<?xml version="1.0" encoding="UTF-8" standalone="no" ?>
<gpx xmlns="http://www.topografix.com/GPX/1/1" xmlns:xsi="http://www.w3.org/2001/XMLSchema-instance" xsi:schemaLocation="http://www.topografix.com/GPX/1/1 http://www.topografix.com/GPX/1/1/gpx.xsd" version="1.1" creator="VisuGPX - https://www.visugpx.com">
  <metadata>
    <name>Départ du côté de la Ducambanderie, puis chemin inconnu à droite</name>
    <desc><![CDATA[Je pars sur un chemin connu, et décide un moment de tourner sur un inconnu%u2026 Supers beaux chemins, pendant un moment puis%u2026. Un peu marécageux (mais pas trop) puis%u2026. Propriété privée ! Sauf que la pancarte est mise de telle façon que tu n%u2019entres pas en effet en face et à gauche, mais ça ne semble pas interdit à droite%u2026 Ah%u2026 ben là j%u2019ai fait quelques demi-tours^^ Quand je sors de ce premier sous-bois, je vois une pancarte « allées et sous-bois interdits » hum%u2026. Je continu tout droit dans une super belle allée%u2026 heu%u2026. Ah%u2026. Marécage, et bois%u2026 impossible de continuer%u2026 Demi-tour 1 ! Je repars du premier sous-bois, un chemin sur la gauche, puis encore une branche, là on finit par arriver devant un portail ! Demi-tour 2%u2026 pour finir, Ténébra décide de reprendre complètement le premier sous-bois%u2026 demi-tour 3%u2026
le reste du chemin, impec !]]></desc>
  </metadata>
  <trk>
    <name><![CDATA[Untitled]]></name>
    <trkseg>
      <trkpt lat="48.70705" lon="1.75475">
        <ele>171.80000305176</ele>
        <time>2012-08-20T06:48:40.000Z</time>
      </trkpt>
      <trkpt lat="48.70706" lon="1.75474">
        <ele>171.80000305176</ele>
        <time>2012-08-20T06:48:41.000Z</time>
      </trkpt>
      <trkpt lat="48.70707" lon="1.7547">
        <ele>171.80000305176</ele>
        <time>2012-08-20T06:48:44.000Z</time>
      </trkpt>
      <trkpt lat="48.70715" lon="1.75458">
        <ele>171.80000305176</ele>
        <time>2012-08-20T06:48:53.000Z</time>
      </trkpt>
      <trkpt lat="48.70718" lon="1.75448">
        <ele>171.60000610352</ele>
        <time>2012-08-20T06:48:59.000Z</time>
      </trkpt>
      <trkpt lat="48.70719" lon="1.75444">
        <ele>171.60000610352</ele>
        <time>2012-08-20T06:49:02.000Z</time>
      </trkpt>
      <trkpt lat="48.70722" lon="1.7544">
        <ele>171.60000610352</ele>
        <time>2012-08-20T06:49:05.000Z</time>
      </trkpt>
      <trkpt lat="48.70724" lon="1.7543">
        <ele>171.60000610352</ele>
        <time>2012-08-20T06:49:12.000Z</time>
      </trkpt>
      <trkpt lat="48.70726" lon="1.75428">
        <ele>171.60000610352</ele>
        <time>2012-08-20T06:49:16.000Z</time>
      </trkpt>
      <trkpt lat="48.70726" lon="1.75428">
        <ele>171.60000610352</ele>
        <time>2012-08-20T06:49:17.000Z</time>
      </trkpt>
      <trkpt lat="48.70731" lon="1.75416">
        <ele>171.80000305176</ele>
        <time>2012-08-20T06:49:31.000Z</time>
      </trkpt>
      <trkpt lat="48.70736" lon="1.75404">
        <ele>172</ele>
        <time>2012-08-20T06:49:38.000Z</time>
      </trkpt>
      <trkpt lat="48.70743" lon="1.75393">
        <ele>172.19999694824</ele>
        <time>2012-08-20T06:49:46.000Z</time>
      </trkpt>
      <trkpt lat="48.70751" lon="1.75378">
        <ele>172.39999389648</ele>
        <time>2012-08-20T06:49:57.000Z</time>
      </trkpt>
      <trkpt lat="48.70757" lon="1.75364">
        <ele>172.80000305176</ele>
        <time>2012-08-20T06:50:07.000Z</time>
      </trkpt>
      <trkpt lat="48.70764" lon="1.75349">
        <ele>173</ele>
        <time>2012-08-20T06:50:17.000Z</time>
      </trkpt>
      <trkpt lat="48.70767" lon="1.7534">
        <ele>173.19999694824</ele>
        <time>2012-08-20T06:50:23.000Z</time>
      </trkpt>
      <trkpt lat="48.70773" lon="1.75327">
        <ele>173.19999694824</ele>
        <time>2012-08-20T06:50:32.000Z</time>
      </trkpt>
      <trkpt lat="48.70777" lon="1.75315">
        <ele>173.39999389648</ele>
        <time>2012-08-20T06:50:40.000Z</time>
      </trkpt>
      <trkpt lat="48.7078" lon="1.75306">
        <ele>173.39999389648</ele>
        <time>2012-08-20T06:50:47.000Z</time>
      </trkpt>
      <trkpt lat="48.70786" lon="1.75294">
        <ele>173.39999389648</ele>
        <time>2012-08-20T06:50:55.000Z</time>
      </trkpt>
      <trkpt lat="48.70791" lon="1.75283">
        <ele>173.39999389648</ele>
        <time>2012-08-20T06:51:03.000Z</time>
      </trkpt>
      <trkpt lat="48.70794" lon="1.75271">
        <ele>173.60000610352</ele>
        <time>2012-08-20T06:51:11.000Z</time>
      </trkpt>
      <trkpt lat="48.708" lon="1.75259">
        <ele>173.60000610352</ele>
        <time>2012-08-20T06:51:20.000Z</time>
      </trkpt>
      <trkpt lat="48.70805" lon="1.75247">
        <ele>173.60000610352</ele>
        <time>2012-08-20T06:51:29.000Z</time>
      </trkpt>
      <trkpt lat="48.7081" lon="1.75234">
        <ele>173.80000305176</ele>
        <time>2012-08-20T06:51:38.000Z</time>
      </trkpt>
      <trkpt lat="48.70812" lon="1.75229">
        <ele>173.80000305176</ele>
        <time>2012-08-20T06:51:42.000Z</time>
      </trkpt>
      <trkpt lat="48.70813" lon="1.75228">
        <ele>173.80000305176</ele>
        <time>2012-08-20T06:51:45.000Z</time>
      </trkpt>
      <trkpt lat="48.70822" lon="1.75198">
        <ele>173.80000305176</ele>
        <time>2012-08-20T06:52:46.000Z</time>
      </trkpt>
      <trkpt lat="48.7083" lon="1.75182">
        <ele>174</ele>
        <time>2012-08-20T06:52:56.000Z</time>
      </trkpt>
      <trkpt lat="48.70836" lon="1.7517">
        <ele>174</ele>
        <time>2012-08-20T06:53:04.000Z</time>
      </trkpt>
      <trkpt lat="48.70838" lon="1.75163">
        <ele>174</ele>
        <time>2012-08-20T06:53:09.000Z</time>
      </trkpt>
      <trkpt lat="48.70842" lon="1.75155">
        <ele>174</ele>
        <time>2012-08-20T06:53:15.000Z</time>
      </trkpt>
      <trkpt lat="48.70843" lon="1.7515">
        <ele>174</ele>
        <time>2012-08-20T06:53:18.000Z</time>
      </trkpt>
      <trkpt lat="48.70844" lon="1.75147">
        <ele>174</ele>
        <time>2012-08-20T06:53:20.000Z</time>
      </trkpt>
      <trkpt lat="48.70846" lon="1.75139">
        <ele>174.19999694824</ele>
        <time>2012-08-20T06:53:25.000Z</time>
      </trkpt>
      <trkpt lat="48.70848" lon="1.75136">
        <ele>174.19999694824</ele>
        <time>2012-08-20T06:53:27.000Z</time>
      </trkpt>
      <trkpt lat="48.70854" lon="1.75125">
        <ele>174.19999694824</ele>
        <time>2012-08-20T06:53:36.000Z</time>
      </trkpt>
      <trkpt lat="48.70858" lon="1.75119">
        <ele>174.19999694824</ele>
        <time>2012-08-20T06:53:41.000Z</time>
      </trkpt>
      <trkpt lat="48.7086" lon="1.75112">
        <ele>174.19999694824</ele>
        <time>2012-08-20T06:53:46.000Z</time>
      </trkpt>
      <trkpt lat="48.70865" lon="1.75102">
        <ele>174</ele>
        <time>2012-08-20T06:53:54.000Z</time>
      </trkpt>
      <trkpt lat="48.70865" lon="1.75099">
        <ele>174</ele>
        <time>2012-08-20T06:53:59.000Z</time>
      </trkpt>
      <trkpt lat="48.70876" lon="1.75076">
        <ele>174</ele>
        <time>2012-08-20T06:54:30.000Z</time>
      </trkpt>
      <trkpt lat="48.70878" lon="1.75072">
        <ele>174.19999694824</ele>
        <time>2012-08-20T06:54:32.000Z</time>
      </trkpt>
      <trkpt lat="48.70883" lon="1.75062">
        <ele>174.19999694824</ele>
        <time>2012-08-20T06:54:40.000Z</time>
      </trkpt>
      <trkpt lat="48.70885" lon="1.75059">
        <ele>174.19999694824</ele>
        <time>2012-08-20T06:54:42.000Z</time>
      </trkpt>
      <trkpt lat="48.7089" lon="1.75048">
        <ele>174.39999389648</ele>
        <time>2012-08-20T06:54:50.000Z</time>
      </trkpt>
      <trkpt lat="48.70895" lon="1.75039">
        <ele>174.60000610352</ele>
        <time>2012-08-20T06:54:57.000Z</time>
      </trkpt>
      <trkpt lat="48.70899" lon="1.7503">
        <ele>174.60000610352</ele>
        <time>2012-08-20T06:55:03.000Z</time>
      </trkpt>
      <trkpt lat="48.70903" lon="1.75023">
        <ele>174.80000305176</ele>
        <time>2012-08-20T06:55:08.000Z</time>
      </trkpt>
      <trkpt lat="48.70909" lon="1.75009">
        <ele>174.80000305176</ele>
        <time>2012-08-20T06:55:17.000Z</time>
      </trkpt>
      <trkpt lat="48.70911" lon="1.75006">
        <ele>175</ele>
        <time>2012-08-20T06:55:19.000Z</time>
      </trkpt>
      <trkpt lat="48.70916" lon="1.74994">
        <ele>175</ele>
        <time>2012-08-20T06:55:27.000Z</time>
      </trkpt>
      <trkpt lat="48.70921" lon="1.74982">
        <ele>175.19999694824</ele>
        <time>2012-08-20T06:55:35.000Z</time>
      </trkpt>
      <trkpt lat="48.70929" lon="1.7497">
        <ele>175.39999389648</ele>
        <time>2012-08-20T06:55:44.000Z</time>
      </trkpt>
      <trkpt lat="48.70933" lon="1.74962">
        <ele>175.60000610352</ele>
        <time>2012-08-20T06:55:50.000Z</time>
      </trkpt>
      <trkpt lat="48.70936" lon="1.74957">
        <ele>175.80000305176</ele>
        <time>2012-08-20T06:55:54.000Z</time>
      </trkpt>
      <trkpt lat="48.70938" lon="1.7495">
        <ele>176</ele>
        <time>2012-08-20T06:55:58.000Z</time>
      </trkpt>
      <trkpt lat="48.7094" lon="1.74946">
        <ele>176</ele>
        <time>2012-08-20T06:56:01.000Z</time>
      </trkpt>
      <trkpt lat="48.70946" lon="1.74937">
        <ele>176.39999389648</ele>
        <time>2012-08-20T06:56:09.000Z</time>
      </trkpt>
      <trkpt lat="48.70948" lon="1.74934">
        <ele>176.39999389648</ele>
        <time>2012-08-20T06:56:11.000Z</time>
      </trkpt>
      <trkpt lat="48.70955" lon="1.74925">
        <ele>176.80000305176</ele>
        <time>2012-08-20T06:56:19.000Z</time>
      </trkpt>
      <trkpt lat="48.70958" lon="1.74919">
        <ele>177</ele>
        <time>2012-08-20T06:56:23.000Z</time>
      </trkpt>
      <trkpt lat="48.70961" lon="1.7491">
        <ele>177.19999694824</ele>
        <time>2012-08-20T06:56:30.000Z</time>
      </trkpt>
      <trkpt lat="48.7097" lon="1.74898">
        <ele>177.80000305176</ele>
        <time>2012-08-20T06:56:41.000Z</time>
      </trkpt>
      <trkpt lat="48.70979" lon="1.74886">
        <ele>178.19999694824</ele>
        <time>2012-08-20T06:56:50.000Z</time>
      </trkpt>
      <trkpt lat="48.70984" lon="1.74879">
        <ele>178.39999389648</ele>
        <time>2012-08-20T06:56:56.000Z</time>
      </trkpt>
      <trkpt lat="48.70988" lon="1.74872">
        <ele>178.60000610352</ele>
        <time>2012-08-20T06:57:02.000Z</time>
      </trkpt>
      <trkpt lat="48.70995" lon="1.74864">
        <ele>178.80000305176</ele>
        <time>2012-08-20T06:57:09.000Z</time>
      </trkpt>
      <trkpt lat="48.71001" lon="1.74854">
        <ele>179</ele>
        <time>2012-08-20T06:57:17.000Z</time>
      </trkpt>
      <trkpt lat="48.71002" lon="1.74851">
        <ele>178.80000305176</ele>
        <time>2012-08-20T06:57:19.000Z</time>
      </trkpt>
      <trkpt lat="48.71007" lon="1.74842">
        <ele>178.60000610352</ele>
        <time>2012-08-20T06:57:26.000Z</time>
      </trkpt>
      <trkpt lat="48.71006" lon="1.74825">
        <ele>178.60000610352</ele>
        <time>2012-08-20T06:57:37.000Z</time>
      </trkpt>
      <trkpt lat="48.71001" lon="1.74817">
        <ele>178.80000305176</ele>
        <time>2012-08-20T06:57:44.000Z</time>
      </trkpt>
      <trkpt lat="48.70993" lon="1.7481">
        <ele>178.60000610352</ele>
        <time>2012-08-20T06:57:52.000Z</time>
      </trkpt>
      <trkpt lat="48.70989" lon="1.74806">
        <ele>178.60000610352</ele>
        <time>2012-08-20T06:57:56.000Z</time>
      </trkpt>
      <trkpt lat="48.70983" lon="1.74798">
        <ele>178.39999389648</ele>
        <time>2012-08-20T06:58:05.000Z</time>
      </trkpt>
      <trkpt lat="48.70976" lon="1.74788">
        <ele>178.39999389648</ele>
        <time>2012-08-20T06:58:12.000Z</time>
      </trkpt>
      <trkpt lat="48.70967" lon="1.74776">
        <ele>178.19999694824</ele>
        <time>2012-08-20T06:58:21.000Z</time>
      </trkpt>
      <trkpt lat="48.7096" lon="1.74767">
        <ele>178.19999694824</ele>
        <time>2012-08-20T06:58:29.000Z</time>
      </trkpt>
      <trkpt lat="48.70954" lon="1.7476">
        <ele>178</ele>
        <time>2012-08-20T06:58:37.000Z</time>
      </trkpt>
      <trkpt lat="48.70954" lon="1.7476">
        <ele>178</ele>
        <time>2012-08-20T06:58:39.000Z</time>
      </trkpt>
      <trkpt lat="48.70945" lon="1.74748">
        <ele>178</ele>
        <time>2012-08-20T06:59:19.000Z</time>
      </trkpt>
      <trkpt lat="48.70934" lon="1.74733">
        <ele>177.80000305176</ele>
        <time>2012-08-20T06:59:31.000Z</time>
      </trkpt>
      <trkpt lat="48.70924" lon="1.7472">
        <ele>177.39999389648</ele>
        <time>2012-08-20T06:59:42.000Z</time>
      </trkpt>
      <trkpt lat="48.70913" lon="1.74706">
        <ele>177</ele>
        <time>2012-08-20T06:59:53.000Z</time>
      </trkpt>
      <trkpt lat="48.70903" lon="1.74693">
        <ele>176.80000305176</ele>
        <time>2012-08-20T07:00:04.000Z</time>
      </trkpt>
      <trkpt lat="48.70896" lon="1.74686">
        <ele>176.60000610352</ele>
        <time>2012-08-20T07:00:11.000Z</time>
      </trkpt>
      <trkpt lat="48.70887" lon="1.74672">
        <ele>176.19999694824</ele>
        <time>2012-08-20T07:00:22.000Z</time>
      </trkpt>
      <trkpt lat="48.70879" lon="1.74663">
        <ele>176</ele>
        <time>2012-08-20T07:00:30.000Z</time>
      </trkpt>
      <trkpt lat="48.7087" lon="1.7465">
        <ele>176</ele>
        <time>2012-08-20T07:00:41.000Z</time>
      </trkpt>
      <trkpt lat="48.70863" lon="1.74639">
        <ele>175.80000305176</ele>
        <time>2012-08-20T07:00:50.000Z</time>
      </trkpt>
      <trkpt lat="48.70855" lon="1.74629">
        <ele>175.80000305176</ele>
        <time>2012-08-20T07:00:59.000Z</time>
      </trkpt>
      <trkpt lat="48.70847" lon="1.74617">
        <ele>176</ele>
        <time>2012-08-20T07:01:09.000Z</time>
      </trkpt>
      <trkpt lat="48.7084" lon="1.74608">
        <ele>176</ele>
        <time>2012-08-20T07:01:17.000Z</time>
      </trkpt>
      <trkpt lat="48.70837" lon="1.74606">
        <ele>176</ele>
        <time>2012-08-20T07:01:20.000Z</time>
      </trkpt>
      <trkpt lat="48.70831" lon="1.74601">
        <ele>176</ele>
        <time>2012-08-20T07:01:26.000Z</time>
      </trkpt>
      <trkpt lat="48.70826" lon="1.74593">
        <ele>176</ele>
        <time>2012-08-20T07:01:33.000Z</time>
      </trkpt>
      <trkpt lat="48.70818" lon="1.74583">
        <ele>176.19999694824</ele>
        <time>2012-08-20T07:01:42.000Z</time>
      </trkpt>
      <trkpt lat="48.70816" lon="1.7458">
        <ele>176.19999694824</ele>
        <time>2012-08-20T07:01:44.000Z</time>
      </trkpt>
      <trkpt lat="48.70813" lon="1.74576">
        <ele>176.19999694824</ele>
        <time>2012-08-20T07:01:48.000Z</time>
      </trkpt>
      <trkpt lat="48.70807" lon="1.74565">
        <ele>176.39999389648</ele>
        <time>2012-08-20T07:01:55.000Z</time>
      </trkpt>
      <trkpt lat="48.70799" lon="1.74553">
        <ele>176.39999389648</ele>
        <time>2012-08-20T07:02:04.000Z</time>
      </trkpt>
      <trkpt lat="48.70793" lon="1.74546">
        <ele>176.39999389648</ele>
        <time>2012-08-20T07:02:10.000Z</time>
      </trkpt>
      <trkpt lat="48.70787" lon="1.74539">
        <ele>176.60000610352</ele>
        <time>2012-08-20T07:02:17.000Z</time>
      </trkpt>
      <trkpt lat="48.70783" lon="1.74534">
        <ele>176.60000610352</ele>
        <time>2012-08-20T07:02:21.000Z</time>
      </trkpt>
      <trkpt lat="48.70777" lon="1.74526">
        <ele>176.60000610352</ele>
        <time>2012-08-20T07:02:27.000Z</time>
      </trkpt>
      <trkpt lat="48.70771" lon="1.74518">
        <ele>176.80000305176</ele>
        <time>2012-08-20T07:02:34.000Z</time>
      </trkpt>
      <trkpt lat="48.70765" lon="1.7451">
        <ele>176.80000305176</ele>
        <time>2012-08-20T07:02:41.000Z</time>
      </trkpt>
      <trkpt lat="48.70758" lon="1.74502">
        <ele>176.80000305176</ele>
        <time>2012-08-20T07:02:48.000Z</time>
      </trkpt>
      <trkpt lat="48.70757" lon="1.745">
        <ele>177</ele>
        <time>2012-08-20T07:02:50.000Z</time>
      </trkpt>
      <trkpt lat="48.70747" lon="1.74489">
        <ele>177.19999694824</ele>
        <time>2012-08-20T07:03:00.000Z</time>
      </trkpt>
      <trkpt lat="48.70745" lon="1.74487">
        <ele>177.39999389648</ele>
        <time>2012-08-20T07:03:02.000Z</time>
      </trkpt>
      <trkpt lat="48.70745" lon="1.74486">
        <ele>177.39999389648</ele>
        <time>2012-08-20T07:03:05.000Z</time>
      </trkpt>
      <trkpt lat="48.7074" lon="1.74482">
        <ele>177.60000610352</ele>
        <time>2012-08-20T07:03:12.000Z</time>
      </trkpt>
      <trkpt lat="48.70734" lon="1.74474">
        <ele>178</ele>
        <time>2012-08-20T07:03:19.000Z</time>
      </trkpt>
      <trkpt lat="48.7073" lon="1.74463">
        <ele>178.19999694824</ele>
        <time>2012-08-20T07:03:26.000Z</time>
      </trkpt>
      <trkpt lat="48.7073" lon="1.74451">
        <ele>178.39999389648</ele>
        <time>2012-08-20T07:03:31.000Z</time>
      </trkpt>
      <trkpt lat="48.70739" lon="1.74446">
        <ele>178</ele>
        <time>2012-08-20T07:03:38.000Z</time>
      </trkpt>
      <trkpt lat="48.7074" lon="1.74446">
        <ele>178</ele>
        <time>2012-08-20T07:03:39.000Z</time>
      </trkpt>
      <trkpt lat="48.70747" lon="1.74443">
        <ele>177.80000305176</ele>
        <time>2012-08-20T07:03:44.000Z</time>
      </trkpt>
      <trkpt lat="48.70756" lon="1.7444">
        <ele>177.60000610352</ele>
        <time>2012-08-20T07:03:52.000Z</time>
      </trkpt>
      <trkpt lat="48.70761" lon="1.74435">
        <ele>177.60000610352</ele>
        <time>2012-08-20T07:03:57.000Z</time>
      </trkpt>
      <trkpt lat="48.70767" lon="1.74432">
        <ele>177.39999389648</ele>
        <time>2012-08-20T07:04:02.000Z</time>
      </trkpt>
      <trkpt lat="48.70772" lon="1.74429">
        <ele>177.39999389648</ele>
        <time>2012-08-20T07:04:06.000Z</time>
      </trkpt>
      <trkpt lat="48.70779" lon="1.74425">
        <ele>177.19999694824</ele>
        <time>2012-08-20T07:04:12.000Z</time>
      </trkpt>
      <trkpt lat="48.70783" lon="1.74423">
        <ele>177.19999694824</ele>
        <time>2012-08-20T07:04:16.000Z</time>
      </trkpt>
      <trkpt lat="48.70793" lon="1.74418">
        <ele>177</ele>
        <time>2012-08-20T07:04:24.000Z</time>
      </trkpt>
      <trkpt lat="48.70796" lon="1.74416">
        <ele>176.80000305176</ele>
        <time>2012-08-20T07:04:27.000Z</time>
      </trkpt>
      <trkpt lat="48.70802" lon="1.74411">
        <ele>176.80000305176</ele>
        <time>2012-08-20T07:04:33.000Z</time>
      </trkpt>
      <trkpt lat="48.70808" lon="1.74407">
        <ele>176.80000305176</ele>
        <time>2012-08-20T07:04:39.000Z</time>
      </trkpt>
      <trkpt lat="48.7081" lon="1.74405">
        <ele>176.80000305176</ele>
        <time>2012-08-20T07:04:42.000Z</time>
      </trkpt>
      <trkpt lat="48.70817" lon="1.74399">
        <ele>176.60000610352</ele>
        <time>2012-08-20T07:04:49.000Z</time>
      </trkpt>
      <trkpt lat="48.70821" lon="1.74396">
        <ele>176.60000610352</ele>
        <time>2012-08-20T07:04:52.000Z</time>
      </trkpt>
      <trkpt lat="48.70824" lon="1.74393">
        <ele>176.60000610352</ele>
        <time>2012-08-20T07:04:56.000Z</time>
      </trkpt>
      <trkpt lat="48.70828" lon="1.74388">
        <ele>176.39999389648</ele>
        <time>2012-08-20T07:05:00.000Z</time>
      </trkpt>
      <trkpt lat="48.70833" lon="1.74383">
        <ele>176.39999389648</ele>
        <time>2012-08-20T07:05:05.000Z</time>
      </trkpt>
      <trkpt lat="48.70839" lon="1.74374">
        <ele>176.39999389648</ele>
        <time>2012-08-20T07:05:12.000Z</time>
      </trkpt>
      <trkpt lat="48.70842" lon="1.7437">
        <ele>176.39999389648</ele>
        <time>2012-08-20T07:05:16.000Z</time>
      </trkpt>
      <trkpt lat="48.70848" lon="1.74358">
        <ele>176.60000610352</ele>
        <time>2012-08-20T07:05:24.000Z</time>
      </trkpt>
      <trkpt lat="48.70849" lon="1.74357">
        <ele>176.60000610352</ele>
        <time>2012-08-20T07:05:25.000Z</time>
      </trkpt>
      <trkpt lat="48.70856" lon="1.74348">
        <ele>176.60000610352</ele>
        <time>2012-08-20T07:05:34.000Z</time>
      </trkpt>
      <trkpt lat="48.7086" lon="1.74343">
        <ele>176.60000610352</ele>
        <time>2012-08-20T07:05:40.000Z</time>
      </trkpt>
      <trkpt lat="48.7086" lon="1.74344">
        <ele>176.60000610352</ele>
        <time>2012-08-20T07:05:42.000Z</time>
      </trkpt>
      <trkpt lat="48.70871" lon="1.74323">
        <ele>177</ele>
        <time>2012-08-20T07:06:13.000Z</time>
      </trkpt>
      <trkpt lat="48.70876" lon="1.74313">
        <ele>177.39999389648</ele>
        <time>2012-08-20T07:06:19.000Z</time>
      </trkpt>
      <trkpt lat="48.70877" lon="1.7431">
        <ele>177.60000610352</ele>
        <time>2012-08-20T07:06:22.000Z</time>
      </trkpt>
      <trkpt lat="48.70882" lon="1.74298">
        <ele>178.19999694824</ele>
        <time>2012-08-20T07:06:30.000Z</time>
      </trkpt>
      <trkpt lat="48.70883" lon="1.74297">
        <ele>178.19999694824</ele>
        <time>2012-08-20T07:06:31.000Z</time>
      </trkpt>
      <trkpt lat="48.70887" lon="1.74291">
        <ele>178.60000610352</ele>
        <time>2012-08-20T07:06:37.000Z</time>
      </trkpt>
      <trkpt lat="48.7089" lon="1.74283">
        <ele>179</ele>
        <time>2012-08-20T07:06:44.000Z</time>
      </trkpt>
      <trkpt lat="48.70897" lon="1.7427">
        <ele>179.60000610352</ele>
        <time>2012-08-20T07:06:52.000Z</time>
      </trkpt>
      <trkpt lat="48.70901" lon="1.7426">
        <ele>180.19999694824</ele>
        <time>2012-08-20T07:06:59.000Z</time>
      </trkpt>
      <trkpt lat="48.70903" lon="1.74254">
        <ele>180.60000610352</ele>
        <time>2012-08-20T07:07:03.000Z</time>
      </trkpt>
      <trkpt lat="48.70905" lon="1.74238">
        <ele>181.19999694824</ele>
        <time>2012-08-20T07:07:13.000Z</time>
      </trkpt>
      <trkpt lat="48.70906" lon="1.74234">
        <ele>181.19999694824</ele>
        <time>2012-08-20T07:07:16.000Z</time>
      </trkpt>
      <trkpt lat="48.70906" lon="1.74233">
        <ele>181.39999389648</ele>
        <time>2012-08-20T07:07:24.000Z</time>
      </trkpt>
      <trkpt lat="48.70907" lon="1.74231">
        <ele>181.39999389648</ele>
        <time>2012-08-20T07:07:30.000Z</time>
      </trkpt>
      <trkpt lat="48.70906" lon="1.74226">
        <ele>181.39999389648</ele>
        <time>2012-08-20T07:07:46.000Z</time>
      </trkpt>
      <trkpt lat="48.70909" lon="1.74222">
        <ele>181.60000610352</ele>
        <time>2012-08-20T07:07:51.000Z</time>
      </trkpt>
      <trkpt lat="48.7091" lon="1.74217">
        <ele>181.80000305176</ele>
        <time>2012-08-20T07:07:57.000Z</time>
      </trkpt>
      <trkpt lat="48.70912" lon="1.74209">
        <ele>182</ele>
        <time>2012-08-20T07:08:03.000Z</time>
      </trkpt>
      <trkpt lat="48.70913" lon="1.74206">
        <ele>182</ele>
        <time>2012-08-20T07:08:05.000Z</time>
      </trkpt>
      <trkpt lat="48.70917" lon="1.74197">
        <ele>182.19999694824</ele>
        <time>2012-08-20T07:08:12.000Z</time>
      </trkpt>
      <trkpt lat="48.70921" lon="1.74187">
        <ele>182.39999389648</ele>
        <time>2012-08-20T07:08:20.000Z</time>
      </trkpt>
      <trkpt lat="48.70923" lon="1.74178">
        <ele>182.60000610352</ele>
        <time>2012-08-20T07:08:25.000Z</time>
      </trkpt>
      <trkpt lat="48.70922" lon="1.74177">
        <ele>182.60000610352</ele>
        <time>2012-08-20T07:08:26.000Z</time>
      </trkpt>
      <trkpt lat="48.70922" lon="1.74166">
        <ele>182.80000305176</ele>
        <time>2012-08-20T07:08:32.000Z</time>
      </trkpt>
      <trkpt lat="48.70924" lon="1.7416">
        <ele>182.80000305176</ele>
        <time>2012-08-20T07:08:36.000Z</time>
      </trkpt>
      <trkpt lat="48.70927" lon="1.74145">
        <ele>182.80000305176</ele>
        <time>2012-08-20T07:08:45.000Z</time>
      </trkpt>
      <trkpt lat="48.70929" lon="1.74134">
        <ele>182.60000610352</ele>
        <time>2012-08-20T07:08:51.000Z</time>
      </trkpt>
      <trkpt lat="48.7093" lon="1.74129">
        <ele>182.60000610352</ele>
        <time>2012-08-20T07:08:54.000Z</time>
      </trkpt>
      <trkpt lat="48.70933" lon="1.74114">
        <ele>182.60000610352</ele>
        <time>2012-08-20T07:09:03.000Z</time>
      </trkpt>
      <trkpt lat="48.70938" lon="1.74104">
        <ele>182.60000610352</ele>
        <time>2012-08-20T07:09:10.000Z</time>
      </trkpt>
      <trkpt lat="48.70939" lon="1.74089">
        <ele>182.60000610352</ele>
        <time>2012-08-20T07:09:17.000Z</time>
      </trkpt>
      <trkpt lat="48.70941" lon="1.74074">
        <ele>182.80000305176</ele>
        <time>2012-08-20T07:09:25.000Z</time>
      </trkpt>
      <trkpt lat="48.70945" lon="1.74062">
        <ele>182.60000610352</ele>
        <time>2012-08-20T07:09:33.000Z</time>
      </trkpt>
      <trkpt lat="48.70949" lon="1.74048">
        <ele>182.60000610352</ele>
        <time>2012-08-20T07:09:42.000Z</time>
      </trkpt>
      <trkpt lat="48.70952" lon="1.74037">
        <ele>182.60000610352</ele>
        <time>2012-08-20T07:09:48.000Z</time>
      </trkpt>
      <trkpt lat="48.70955" lon="1.74023">
        <ele>182.60000610352</ele>
        <time>2012-08-20T07:09:56.000Z</time>
      </trkpt>
      <trkpt lat="48.70957" lon="1.74008">
        <ele>182.60000610352</ele>
        <time>2012-08-20T07:10:03.000Z</time>
      </trkpt>
      <trkpt lat="48.70959" lon="1.73996">
        <ele>182.60000610352</ele>
        <time>2012-08-20T07:10:10.000Z</time>
      </trkpt>
      <trkpt lat="48.70964" lon="1.73978">
        <ele>182.80000305176</ele>
        <time>2012-08-20T07:10:21.000Z</time>
      </trkpt>
      <trkpt lat="48.70965" lon="1.73958">
        <ele>183.39999389648</ele>
        <time>2012-08-20T07:10:31.000Z</time>
      </trkpt>
      <trkpt lat="48.70968" lon="1.73942">
        <ele>183.60000610352</ele>
        <time>2012-08-20T07:10:40.000Z</time>
      </trkpt>
      <trkpt lat="48.70973" lon="1.73923">
        <ele>184.19999694824</ele>
        <time>2012-08-20T07:10:51.000Z</time>
      </trkpt>
      <trkpt lat="48.70977" lon="1.73906">
        <ele>184.19999694824</ele>
        <time>2012-08-20T07:11:01.000Z</time>
      </trkpt>
      <trkpt lat="48.70982" lon="1.73896">
        <ele>184</ele>
        <time>2012-08-20T07:11:08.000Z</time>
      </trkpt>
      <trkpt lat="48.70985" lon="1.73882">
        <ele>183.80000305176</ele>
        <time>2012-08-20T07:11:15.000Z</time>
      </trkpt>
      <trkpt lat="48.70987" lon="1.73866">
        <ele>183.39999389648</ele>
        <time>2012-08-20T07:11:23.000Z</time>
      </trkpt>
      <trkpt lat="48.70988" lon="1.73845">
        <ele>182.80000305176</ele>
        <time>2012-08-20T07:11:32.000Z</time>
      </trkpt>
      <trkpt lat="48.70996" lon="1.73832">
        <ele>182.80000305176</ele>
        <time>2012-08-20T07:11:42.000Z</time>
      </trkpt>
      <trkpt lat="48.71" lon="1.73824">
        <ele>182.80000305176</ele>
        <time>2012-08-20T07:11:48.000Z</time>
      </trkpt>
      <trkpt lat="48.71005" lon="1.73811">
        <ele>182.39999389648</ele>
        <time>2012-08-20T07:11:56.000Z</time>
      </trkpt>
      <trkpt lat="48.71007" lon="1.73806">
        <ele>182.39999389648</ele>
        <time>2012-08-20T07:11:59.000Z</time>
      </trkpt>
      <trkpt lat="48.71016" lon="1.738">
        <ele>182.19999694824</ele>
        <time>2012-08-20T07:12:08.000Z</time>
      </trkpt>
      <trkpt lat="48.71024" lon="1.73792">
        <ele>182.19999694824</ele>
        <time>2012-08-20T07:12:16.000Z</time>
      </trkpt>
      <trkpt lat="48.71028" lon="1.73787">
        <ele>182.19999694824</ele>
        <time>2012-08-20T07:12:20.000Z</time>
      </trkpt>
      <trkpt lat="48.71033" lon="1.7378">
        <ele>182</ele>
        <time>2012-08-20T07:12:26.000Z</time>
      </trkpt>
      <trkpt lat="48.71042" lon="1.7377">
        <ele>182.19999694824</ele>
        <time>2012-08-20T07:12:35.000Z</time>
      </trkpt>
      <trkpt lat="48.71049" lon="1.73758">
        <ele>182.19999694824</ele>
        <time>2012-08-20T07:12:43.000Z</time>
      </trkpt>
      <trkpt lat="48.71059" lon="1.73748">
        <ele>182.39999389648</ele>
        <time>2012-08-20T07:12:52.000Z</time>
      </trkpt>
      <trkpt lat="48.71069" lon="1.7374">
        <ele>182.19999694824</ele>
        <time>2012-08-20T07:13:00.000Z</time>
      </trkpt>
      <trkpt lat="48.71082" lon="1.73731">
        <ele>182</ele>
        <time>2012-08-20T07:13:10.000Z</time>
      </trkpt>
      <trkpt lat="48.71088" lon="1.73724">
        <ele>181.80000305176</ele>
        <time>2012-08-20T07:13:17.000Z</time>
      </trkpt>
      <trkpt lat="48.71096" lon="1.73715">
        <ele>181.60000610352</ele>
        <time>2012-08-20T07:13:25.000Z</time>
      </trkpt>
      <trkpt lat="48.71103" lon="1.73707">
        <ele>181.60000610352</ele>
        <time>2012-08-20T07:13:33.000Z</time>
      </trkpt>
      <trkpt lat="48.71112" lon="1.73699">
        <ele>181.60000610352</ele>
        <time>2012-08-20T07:13:43.000Z</time>
      </trkpt>
      <trkpt lat="48.71118" lon="1.73693">
        <ele>181.60000610352</ele>
        <time>2012-08-20T07:13:50.000Z</time>
      </trkpt>
      <trkpt lat="48.71123" lon="1.73683">
        <ele>181.39999389648</ele>
        <time>2012-08-20T07:13:57.000Z</time>
      </trkpt>
      <trkpt lat="48.7113" lon="1.73674">
        <ele>181.39999389648</ele>
        <time>2012-08-20T07:14:04.000Z</time>
      </trkpt>
      <trkpt lat="48.7114" lon="1.73665">
        <ele>181.60000610352</ele>
        <time>2012-08-20T07:14:13.000Z</time>
      </trkpt>
      <trkpt lat="48.7115" lon="1.73658">
        <ele>182</ele>
        <time>2012-08-20T07:14:21.000Z</time>
      </trkpt>
      <trkpt lat="48.71158" lon="1.73651">
        <ele>182</ele>
        <time>2012-08-20T07:14:29.000Z</time>
      </trkpt>
      <trkpt lat="48.71165" lon="1.73646">
        <ele>182.19999694824</ele>
        <time>2012-08-20T07:14:36.000Z</time>
      </trkpt>
      <trkpt lat="48.71172" lon="1.73637">
        <ele>182</ele>
        <time>2012-08-20T07:14:44.000Z</time>
      </trkpt>
      <trkpt lat="48.71176" lon="1.73632">
        <ele>182</ele>
        <time>2012-08-20T07:14:48.000Z</time>
      </trkpt>
      <trkpt lat="48.71183" lon="1.73626">
        <ele>182</ele>
        <time>2012-08-20T07:14:55.000Z</time>
      </trkpt>
      <trkpt lat="48.71192" lon="1.73614">
        <ele>182</ele>
        <time>2012-08-20T07:15:04.000Z</time>
      </trkpt>
      <trkpt lat="48.71193" lon="1.73612">
        <ele>182</ele>
        <time>2012-08-20T07:15:05.000Z</time>
      </trkpt>
      <trkpt lat="48.712" lon="1.73605">
        <ele>182.19999694824</ele>
        <time>2012-08-20T07:15:11.000Z</time>
      </trkpt>
      <trkpt lat="48.71203" lon="1.73606">
        <ele>182.39999389648</ele>
        <time>2012-08-20T07:15:13.000Z</time>
      </trkpt>
      <trkpt lat="48.71211" lon="1.73613">
        <ele>182.80000305176</ele>
        <time>2012-08-20T07:15:21.000Z</time>
      </trkpt>
      <trkpt lat="48.71215" lon="1.73616">
        <ele>183</ele>
        <time>2012-08-20T07:15:24.000Z</time>
      </trkpt>
      <trkpt lat="48.71219" lon="1.73616">
        <ele>183</ele>
        <time>2012-08-20T07:15:28.000Z</time>
      </trkpt>
      <trkpt lat="48.71223" lon="1.73614">
        <ele>183.19999694824</ele>
        <time>2012-08-20T07:15:34.000Z</time>
      </trkpt>
      <trkpt lat="48.71234" lon="1.73615">
        <ele>183.60000610352</ele>
        <time>2012-08-20T07:15:43.000Z</time>
      </trkpt>
      <trkpt lat="48.71243" lon="1.73614">
        <ele>184</ele>
        <time>2012-08-20T07:15:50.000Z</time>
      </trkpt>
      <trkpt lat="48.71248" lon="1.73614">
        <ele>184.19999694824</ele>
        <time>2012-08-20T07:15:55.000Z</time>
      </trkpt>
      <trkpt lat="48.71261" lon="1.73613">
        <ele>182.39999389648</ele>
        <time>2012-08-20T07:16:04.000Z</time>
      </trkpt>
      <trkpt lat="48.7127" lon="1.7361">
        <ele>181</ele>
        <time>2012-08-20T07:16:11.000Z</time>
      </trkpt>
      <trkpt lat="48.71278" lon="1.73607">
        <ele>179.60000610352</ele>
        <time>2012-08-20T07:16:18.000Z</time>
      </trkpt>
      <trkpt lat="48.71286" lon="1.73598">
        <ele>178.39999389648</ele>
        <time>2012-08-20T07:16:26.000Z</time>
      </trkpt>
      <trkpt lat="48.71293" lon="1.73591">
        <ele>177.60000610352</ele>
        <time>2012-08-20T07:16:33.000Z</time>
      </trkpt>
      <trkpt lat="48.71296" lon="1.73585">
        <ele>177.19999694824</ele>
        <time>2012-08-20T07:16:37.000Z</time>
      </trkpt>
      <trkpt lat="48.71299" lon="1.7358">
        <ele>177</ele>
        <time>2012-08-20T07:16:41.000Z</time>
      </trkpt>
      <trkpt lat="48.71303" lon="1.73569">
        <ele>176.60000610352</ele>
        <time>2012-08-20T07:16:49.000Z</time>
      </trkpt>
      <trkpt lat="48.71304" lon="1.73565">
        <ele>176.60000610352</ele>
        <time>2012-08-20T07:16:52.000Z</time>
      </trkpt>
      <trkpt lat="48.71307" lon="1.7356">
        <ele>176.39999389648</ele>
        <time>2012-08-20T07:16:55.000Z</time>
      </trkpt>
      <trkpt lat="48.7131" lon="1.73549">
        <ele>176.39999389648</ele>
        <time>2012-08-20T07:17:02.000Z</time>
      </trkpt>
      <trkpt lat="48.71314" lon="1.73539">
        <ele>176.19999694824</ele>
        <time>2012-08-20T07:17:08.000Z</time>
      </trkpt>
      <trkpt lat="48.71315" lon="1.73539">
        <ele>176.19999694824</ele>
        <time>2012-08-20T07:17:09.000Z</time>
      </trkpt>
      <trkpt lat="48.71321" lon="1.73533">
        <ele>176</ele>
        <time>2012-08-20T07:17:16.000Z</time>
      </trkpt>
      <trkpt lat="48.71327" lon="1.73527">
        <ele>175.60000610352</ele>
        <time>2012-08-20T07:17:23.000Z</time>
      </trkpt>
      <trkpt lat="48.71329" lon="1.73526">
        <ele>175.60000610352</ele>
        <time>2012-08-20T07:17:25.000Z</time>
      </trkpt>
      <trkpt lat="48.71338" lon="1.73528">
        <ele>174.39999389648</ele>
        <time>2012-08-20T07:17:33.000Z</time>
      </trkpt>
      <trkpt lat="48.71343" lon="1.73534">
        <ele>173.39999389648</ele>
        <time>2012-08-20T07:17:37.000Z</time>
      </trkpt>
      <trkpt lat="48.71352" lon="1.7354">
        <ele>172</ele>
        <time>2012-08-20T07:17:45.000Z</time>
      </trkpt>
      <trkpt lat="48.7136" lon="1.73547">
        <ele>170.39999389648</ele>
        <time>2012-08-20T07:17:52.000Z</time>
      </trkpt>
      <trkpt lat="48.71368" lon="1.73556">
        <ele>169</ele>
        <time>2012-08-20T07:18:00.000Z</time>
      </trkpt>
      <trkpt lat="48.71377" lon="1.73565">
        <ele>167.39999389648</ele>
        <time>2012-08-20T07:18:09.000Z</time>
      </trkpt>
      <trkpt lat="48.71383" lon="1.73573">
        <ele>166.19999694824</ele>
        <time>2012-08-20T07:18:16.000Z</time>
      </trkpt>
      <trkpt lat="48.71391" lon="1.73576">
        <ele>165.19999694824</ele>
        <time>2012-08-20T07:18:24.000Z</time>
      </trkpt>
      <trkpt lat="48.71395" lon="1.73574">
        <ele>164.80000305176</ele>
        <time>2012-08-20T07:18:27.000Z</time>
      </trkpt>
      <trkpt lat="48.71399" lon="1.73575">
        <ele>164.39999389648</ele>
        <time>2012-08-20T07:18:32.000Z</time>
      </trkpt>
      <trkpt lat="48.7141" lon="1.73576">
        <ele>163.19999694824</ele>
        <time>2012-08-20T07:18:40.000Z</time>
      </trkpt>
      <trkpt lat="48.71421" lon="1.73574">
        <ele>162</ele>
        <time>2012-08-20T07:18:49.000Z</time>
      </trkpt>
      <trkpt lat="48.7143" lon="1.73573">
        <ele>161.19999694824</ele>
        <time>2012-08-20T07:18:57.000Z</time>
      </trkpt>
      <trkpt lat="48.71439" lon="1.73571">
        <ele>160.39999389648</ele>
        <time>2012-08-20T07:19:05.000Z</time>
      </trkpt>
      <trkpt lat="48.71447" lon="1.73568">
        <ele>159.60000610352</ele>
        <time>2012-08-20T07:19:13.000Z</time>
      </trkpt>
      <trkpt lat="48.71454" lon="1.73566">
        <ele>159</ele>
        <time>2012-08-20T07:19:19.000Z</time>
      </trkpt>
      <trkpt lat="48.7146" lon="1.73561">
        <ele>158.39999389648</ele>
        <time>2012-08-20T07:19:26.000Z</time>
      </trkpt>
      <trkpt lat="48.71462" lon="1.73561">
        <ele>158.19999694824</ele>
        <time>2012-08-20T07:19:27.000Z</time>
      </trkpt>
      <trkpt lat="48.71471" lon="1.73557">
        <ele>157.19999694824</ele>
        <time>2012-08-20T07:19:35.000Z</time>
      </trkpt>
      <trkpt lat="48.71472" lon="1.73557">
        <ele>157.19999694824</ele>
        <time>2012-08-20T07:19:36.000Z</time>
      </trkpt>
      <trkpt lat="48.71486" lon="1.73555">
        <ele>155.60000610352</ele>
        <time>2012-08-20T07:19:46.000Z</time>
      </trkpt>
      <trkpt lat="48.71496" lon="1.73553">
        <ele>154.39999389648</ele>
        <time>2012-08-20T07:19:54.000Z</time>
      </trkpt>
      <trkpt lat="48.71505" lon="1.73553">
        <ele>153.19999694824</ele>
        <time>2012-08-20T07:20:01.000Z</time>
      </trkpt>
      <trkpt lat="48.71517" lon="1.73551">
        <ele>152</ele>
        <time>2012-08-20T07:20:10.000Z</time>
      </trkpt>
      <trkpt lat="48.71531" lon="1.7355">
        <ele>150.39999389648</ele>
        <time>2012-08-20T07:20:19.000Z</time>
      </trkpt>
      <trkpt lat="48.71544" lon="1.73546">
        <ele>148.80000305176</ele>
        <time>2012-08-20T07:20:30.000Z</time>
      </trkpt>
      <trkpt lat="48.71552" lon="1.73544">
        <ele>148</ele>
        <time>2012-08-20T07:20:37.000Z</time>
      </trkpt>
      <trkpt lat="48.71561" lon="1.73542">
        <ele>147</ele>
        <time>2012-08-20T07:20:44.000Z</time>
      </trkpt>
      <trkpt lat="48.71568" lon="1.7354">
        <ele>146.19999694824</ele>
        <time>2012-08-20T07:20:50.000Z</time>
      </trkpt>
      <trkpt lat="48.71578" lon="1.73537">
        <ele>145</ele>
        <time>2012-08-20T07:20:57.000Z</time>
      </trkpt>
      <trkpt lat="48.71591" lon="1.73535">
        <ele>144</ele>
        <time>2012-08-20T07:21:06.000Z</time>
      </trkpt>
      <trkpt lat="48.71601" lon="1.73532">
        <ele>143.39999389648</ele>
        <time>2012-08-20T07:21:13.000Z</time>
      </trkpt>
      <trkpt lat="48.71612" lon="1.73531">
        <ele>142.80000305176</ele>
        <time>2012-08-20T07:21:21.000Z</time>
      </trkpt>
      <trkpt lat="48.71624" lon="1.73527">
        <ele>142.19999694824</ele>
        <time>2012-08-20T07:21:30.000Z</time>
      </trkpt>
      <trkpt lat="48.71638" lon="1.73522">
        <ele>141.39999389648</ele>
        <time>2012-08-20T07:21:40.000Z</time>
      </trkpt>
      <trkpt lat="48.71652" lon="1.73519">
        <ele>140.80000305176</ele>
        <time>2012-08-20T07:21:51.000Z</time>
      </trkpt>
      <trkpt lat="48.71663" lon="1.73517">
        <ele>140.19999694824</ele>
        <time>2012-08-20T07:22:00.000Z</time>
      </trkpt>
      <trkpt lat="48.71676" lon="1.73514">
        <ele>139.80000305176</ele>
        <time>2012-08-20T07:22:09.000Z</time>
      </trkpt>
      <trkpt lat="48.71688" lon="1.7351">
        <ele>139.39999389648</ele>
        <time>2012-08-20T07:22:19.000Z</time>
      </trkpt>
      <trkpt lat="48.717" lon="1.73509">
        <ele>139</ele>
        <time>2012-08-20T07:22:28.000Z</time>
      </trkpt>
      <trkpt lat="48.71709" lon="1.73508">
        <ele>138.60000610352</ele>
        <time>2012-08-20T07:22:35.000Z</time>
      </trkpt>
      <trkpt lat="48.71722" lon="1.73505">
        <ele>138.19999694824</ele>
        <time>2012-08-20T07:22:44.000Z</time>
      </trkpt>
      <trkpt lat="48.71733" lon="1.73503">
        <ele>137.60000610352</ele>
        <time>2012-08-20T07:22:52.000Z</time>
      </trkpt>
      <trkpt lat="48.71743" lon="1.73499">
        <ele>137.19999694824</ele>
        <time>2012-08-20T07:23:00.000Z</time>
      </trkpt>
      <trkpt lat="48.7175" lon="1.73493">
        <ele>137</ele>
        <time>2012-08-20T07:23:06.000Z</time>
      </trkpt>
      <trkpt lat="48.71754" lon="1.73482">
        <ele>136.80000305176</ele>
        <time>2012-08-20T07:23:13.000Z</time>
      </trkpt>
      <trkpt lat="48.71753" lon="1.73468">
        <ele>136.80000305176</ele>
        <time>2012-08-20T07:23:21.000Z</time>
      </trkpt>
      <trkpt lat="48.71752" lon="1.73463">
        <ele>137</ele>
        <time>2012-08-20T07:23:24.000Z</time>
      </trkpt>
      <trkpt lat="48.7175" lon="1.73452">
        <ele>137</ele>
        <time>2012-08-20T07:23:31.000Z</time>
      </trkpt>
      <trkpt lat="48.71747" lon="1.73435">
        <ele>137.19999694824</ele>
        <time>2012-08-20T07:23:41.000Z</time>
      </trkpt>
      <trkpt lat="48.71744" lon="1.73422">
        <ele>137.19999694824</ele>
        <time>2012-08-20T07:23:49.000Z</time>
      </trkpt>
      <trkpt lat="48.71741" lon="1.73403">
        <ele>137</ele>
        <time>2012-08-20T07:23:59.000Z</time>
      </trkpt>
      <trkpt lat="48.71738" lon="1.7339">
        <ele>136.80000305176</ele>
        <time>2012-08-20T07:24:06.000Z</time>
      </trkpt>
      <trkpt lat="48.71732" lon="1.73376">
        <ele>136.60000610352</ele>
        <time>2012-08-20T07:24:15.000Z</time>
      </trkpt>
      <trkpt lat="48.71728" lon="1.73359">
        <ele>136.39999389648</ele>
        <time>2012-08-20T07:24:25.000Z</time>
      </trkpt>
      <trkpt lat="48.71726" lon="1.73347">
        <ele>136.19999694824</ele>
        <time>2012-08-20T07:24:32.000Z</time>
      </trkpt>
      <trkpt lat="48.7172" lon="1.73325">
        <ele>136</ele>
        <time>2012-08-20T07:24:43.000Z</time>
      </trkpt>
      <trkpt lat="48.71714" lon="1.73309">
        <ele>136.19999694824</ele>
        <time>2012-08-20T07:24:52.000Z</time>
      </trkpt>
      <trkpt lat="48.71711" lon="1.73295">
        <ele>136.19999694824</ele>
        <time>2012-08-20T07:25:00.000Z</time>
      </trkpt>
      <trkpt lat="48.71709" lon="1.73279">
        <ele>136.19999694824</ele>
        <time>2012-08-20T07:25:09.000Z</time>
      </trkpt>
      <trkpt lat="48.71707" lon="1.73262">
        <ele>136.19999694824</ele>
        <time>2012-08-20T07:25:18.000Z</time>
      </trkpt>
      <trkpt lat="48.71708" lon="1.73244">
        <ele>136</ele>
        <time>2012-08-20T07:25:28.000Z</time>
      </trkpt>
      <trkpt lat="48.71706" lon="1.7323">
        <ele>136</ele>
        <time>2012-08-20T07:25:36.000Z</time>
      </trkpt>
      <trkpt lat="48.71701" lon="1.73214">
        <ele>136</ele>
        <time>2012-08-20T07:25:45.000Z</time>
      </trkpt>
      <trkpt lat="48.71698" lon="1.73192">
        <ele>136</ele>
        <time>2012-08-20T07:25:56.000Z</time>
      </trkpt>
      <trkpt lat="48.71695" lon="1.73179">
        <ele>136</ele>
        <time>2012-08-20T07:26:04.000Z</time>
      </trkpt>
      <trkpt lat="48.71694" lon="1.73167">
        <ele>136</ele>
        <time>2012-08-20T07:26:11.000Z</time>
      </trkpt>
      <trkpt lat="48.71692" lon="1.73155">
        <ele>136.39999389648</ele>
        <time>2012-08-20T07:26:18.000Z</time>
      </trkpt>
      <trkpt lat="48.7169" lon="1.73141">
        <ele>136.60000610352</ele>
        <time>2012-08-20T07:26:25.000Z</time>
      </trkpt>
      <trkpt lat="48.71687" lon="1.73124">
        <ele>137.19999694824</ele>
        <time>2012-08-20T07:26:34.000Z</time>
      </trkpt>
      <trkpt lat="48.71685" lon="1.73107">
        <ele>137.60000610352</ele>
        <time>2012-08-20T07:26:43.000Z</time>
      </trkpt>
      <trkpt lat="48.71681" lon="1.73088">
        <ele>138.19999694824</ele>
        <time>2012-08-20T07:26:53.000Z</time>
      </trkpt>
      <trkpt lat="48.71679" lon="1.73068">
        <ele>138.19999694824</ele>
        <time>2012-08-20T07:27:04.000Z</time>
      </trkpt>
      <trkpt lat="48.71677" lon="1.73048">
        <ele>138</ele>
        <time>2012-08-20T07:27:14.000Z</time>
      </trkpt>
      <trkpt lat="48.71678" lon="1.73034">
        <ele>137.80000305176</ele>
        <time>2012-08-20T07:27:21.000Z</time>
      </trkpt>
      <trkpt lat="48.71677" lon="1.73016">
        <ele>137.60000610352</ele>
        <time>2012-08-20T07:27:30.000Z</time>
      </trkpt>
      <trkpt lat="48.71673" lon="1.73">
        <ele>137.60000610352</ele>
        <time>2012-08-20T07:27:38.000Z</time>
      </trkpt>
      <trkpt lat="48.71668" lon="1.7299">
        <ele>137.80000305176</ele>
        <time>2012-08-20T07:27:44.000Z</time>
      </trkpt>
      <trkpt lat="48.71662" lon="1.72979">
        <ele>138</ele>
        <time>2012-08-20T07:27:51.000Z</time>
      </trkpt>
      <trkpt lat="48.71656" lon="1.72967">
        <ele>138.19999694824</ele>
        <time>2012-08-20T07:27:59.000Z</time>
      </trkpt>
      <trkpt lat="48.71652" lon="1.72954">
        <ele>138.19999694824</ele>
        <time>2012-08-20T07:28:07.000Z</time>
      </trkpt>
      <trkpt lat="48.71649" lon="1.72947">
        <ele>138.19999694824</ele>
        <time>2012-08-20T07:28:12.000Z</time>
      </trkpt>
      <trkpt lat="48.71644" lon="1.72934">
        <ele>138.19999694824</ele>
        <time>2012-08-20T07:28:21.000Z</time>
      </trkpt>
      <trkpt lat="48.71638" lon="1.72921">
        <ele>138.39999389648</ele>
        <time>2012-08-20T07:28:29.000Z</time>
      </trkpt>
      <trkpt lat="48.71633" lon="1.72909">
        <ele>138.60000610352</ele>
        <time>2012-08-20T07:28:36.000Z</time>
      </trkpt>
      <trkpt lat="48.71628" lon="1.72897">
        <ele>138.80000305176</ele>
        <time>2012-08-20T07:28:44.000Z</time>
      </trkpt>
      <trkpt lat="48.71622" lon="1.72884">
        <ele>139</ele>
        <time>2012-08-20T07:28:53.000Z</time>
      </trkpt>
      <trkpt lat="48.71614" lon="1.7287">
        <ele>139.19999694824</ele>
        <time>2012-08-20T07:29:02.000Z</time>
      </trkpt>
      <trkpt lat="48.71607" lon="1.72855">
        <ele>139.39999389648</ele>
        <time>2012-08-20T07:29:10.000Z</time>
      </trkpt>
      <trkpt lat="48.71598" lon="1.7284">
        <ele>139.60000610352</ele>
        <time>2012-08-20T07:29:20.000Z</time>
      </trkpt>
      <trkpt lat="48.71592" lon="1.72826">
        <ele>139.80000305176</ele>
        <time>2012-08-20T07:29:29.000Z</time>
      </trkpt>
      <trkpt lat="48.71589" lon="1.72821">
        <ele>140</ele>
        <time>2012-08-20T07:29:33.000Z</time>
      </trkpt>
      <trkpt lat="48.71585" lon="1.72809">
        <ele>140.19999694824</ele>
        <time>2012-08-20T07:29:41.000Z</time>
      </trkpt>
      <trkpt lat="48.71578" lon="1.72795">
        <ele>140.80000305176</ele>
        <time>2012-08-20T07:29:50.000Z</time>
      </trkpt>
      <trkpt lat="48.71574" lon="1.72785">
        <ele>141.19999694824</ele>
        <time>2012-08-20T07:29:57.000Z</time>
      </trkpt>
      <trkpt lat="48.7157" lon="1.72776">
        <ele>141.39999389648</ele>
        <time>2012-08-20T07:30:04.000Z</time>
      </trkpt>
      <trkpt lat="48.71564" lon="1.72762">
        <ele>142</ele>
        <time>2012-08-20T07:30:13.000Z</time>
      </trkpt>
      <trkpt lat="48.71559" lon="1.72751">
        <ele>142.39999389648</ele>
        <time>2012-08-20T07:30:19.000Z</time>
      </trkpt>
      <trkpt lat="48.71552" lon="1.72736">
        <ele>142.60000610352</ele>
        <time>2012-08-20T07:30:27.000Z</time>
      </trkpt>
      <trkpt lat="48.71547" lon="1.72725">
        <ele>142.80000305176</ele>
        <time>2012-08-20T07:30:34.000Z</time>
      </trkpt>
      <trkpt lat="48.71538" lon="1.72712">
        <ele>143</ele>
        <time>2012-08-20T07:30:43.000Z</time>
      </trkpt>
      <trkpt lat="48.71533" lon="1.72697">
        <ele>143</ele>
        <time>2012-08-20T07:30:51.000Z</time>
      </trkpt>
      <trkpt lat="48.71529" lon="1.72683">
        <ele>143</ele>
        <time>2012-08-20T07:30:59.000Z</time>
      </trkpt>
      <trkpt lat="48.71525" lon="1.72668">
        <ele>142.80000305176</ele>
        <time>2012-08-20T07:31:08.000Z</time>
      </trkpt>
      <trkpt lat="48.71521" lon="1.72656">
        <ele>142.80000305176</ele>
        <time>2012-08-20T07:31:15.000Z</time>
      </trkpt>
      <trkpt lat="48.71517" lon="1.72639">
        <ele>142.60000610352</ele>
        <time>2012-08-20T07:31:23.000Z</time>
      </trkpt>
      <trkpt lat="48.71512" lon="1.72628">
        <ele>142.39999389648</ele>
        <time>2012-08-20T07:31:30.000Z</time>
      </trkpt>
      <trkpt lat="48.71508" lon="1.72612">
        <ele>142.39999389648</ele>
        <time>2012-08-20T07:31:39.000Z</time>
      </trkpt>
      <trkpt lat="48.71507" lon="1.72609">
        <ele>142.19999694824</ele>
        <time>2012-08-20T07:31:44.000Z</time>
      </trkpt>
      <trkpt lat="48.71507" lon="1.72587">
        <ele>141.80000305176</ele>
        <time>2012-08-20T07:32:10.000Z</time>
      </trkpt>
      <trkpt lat="48.71505" lon="1.7257">
        <ele>141.60000610352</ele>
        <time>2012-08-20T07:32:19.000Z</time>
      </trkpt>
      <trkpt lat="48.71503" lon="1.72557">
        <ele>141.39999389648</ele>
        <time>2012-08-20T07:32:27.000Z</time>
      </trkpt>
      <trkpt lat="48.715" lon="1.7254">
        <ele>141.39999389648</ele>
        <time>2012-08-20T07:32:35.000Z</time>
      </trkpt>
      <trkpt lat="48.715" lon="1.72531">
        <ele>141.39999389648</ele>
        <time>2012-08-20T07:32:40.000Z</time>
      </trkpt>
      <trkpt lat="48.71499" lon="1.7252">
        <ele>141.39999389648</ele>
        <time>2012-08-20T07:32:46.000Z</time>
      </trkpt>
      <trkpt lat="48.71497" lon="1.72501">
        <ele>141.19999694824</ele>
        <time>2012-08-20T07:32:55.000Z</time>
      </trkpt>
      <trkpt lat="48.71494" lon="1.72482">
        <ele>141</ele>
        <time>2012-08-20T07:33:04.000Z</time>
      </trkpt>
      <trkpt lat="48.71492" lon="1.72469">
        <ele>140.80000305176</ele>
        <time>2012-08-20T07:33:11.000Z</time>
      </trkpt>
      <trkpt lat="48.71492" lon="1.72451">
        <ele>140.39999389648</ele>
        <time>2012-08-20T07:33:21.000Z</time>
      </trkpt>
      <trkpt lat="48.71491" lon="1.72435">
        <ele>140</ele>
        <time>2012-08-20T07:33:30.000Z</time>
      </trkpt>
      <trkpt lat="48.7149" lon="1.72417">
        <ele>139.60000610352</ele>
        <time>2012-08-20T07:33:39.000Z</time>
      </trkpt>
      <trkpt lat="48.71489" lon="1.72403">
        <ele>139.60000610352</ele>
        <time>2012-08-20T07:33:47.000Z</time>
      </trkpt>
      <trkpt lat="48.71487" lon="1.72383">
        <ele>139.39999389648</ele>
        <time>2012-08-20T07:33:56.000Z</time>
      </trkpt>
      <trkpt lat="48.71488" lon="1.72368">
        <ele>139.19999694824</ele>
        <time>2012-08-20T07:34:04.000Z</time>
      </trkpt>
      <trkpt lat="48.71489" lon="1.72349">
        <ele>138.80000305176</ele>
        <time>2012-08-20T07:34:13.000Z</time>
      </trkpt>
      <trkpt lat="48.7149" lon="1.72331">
        <ele>138.60000610352</ele>
        <time>2012-08-20T07:34:21.000Z</time>
      </trkpt>
      <trkpt lat="48.7149" lon="1.72309">
        <ele>138.39999389648</ele>
        <time>2012-08-20T07:34:31.000Z</time>
      </trkpt>
      <trkpt lat="48.71487" lon="1.72289">
        <ele>138.39999389648</ele>
        <time>2012-08-20T07:34:41.000Z</time>
      </trkpt>
      <trkpt lat="48.71485" lon="1.72273">
        <ele>138.19999694824</ele>
        <time>2012-08-20T07:34:50.000Z</time>
      </trkpt>
      <trkpt lat="48.71481" lon="1.72256">
        <ele>138.39999389648</ele>
        <time>2012-08-20T07:34:59.000Z</time>
      </trkpt>
      <trkpt lat="48.71477" lon="1.72246">
        <ele>138.80000305176</ele>
        <time>2012-08-20T07:35:05.000Z</time>
      </trkpt>
      <trkpt lat="48.71472" lon="1.72231">
        <ele>139.39999389648</ele>
        <time>2012-08-20T07:35:12.000Z</time>
      </trkpt>
      <trkpt lat="48.71465" lon="1.72215">
        <ele>140.60000610352</ele>
        <time>2012-08-20T07:35:21.000Z</time>
      </trkpt>
      <trkpt lat="48.7146" lon="1.72199">
        <ele>141.39999389648</ele>
        <time>2012-08-20T07:35:29.000Z</time>
      </trkpt>
      <trkpt lat="48.71451" lon="1.72191">
        <ele>142.39999389648</ele>
        <time>2012-08-20T07:35:37.000Z</time>
      </trkpt>
      <trkpt lat="48.71444" lon="1.72185">
        <ele>143.39999389648</ele>
        <time>2012-08-20T07:35:44.000Z</time>
      </trkpt>
      <trkpt lat="48.71443" lon="1.72183">
        <ele>143.60000610352</ele>
        <time>2012-08-20T07:35:45.000Z</time>
      </trkpt>
      <trkpt lat="48.7144" lon="1.72177">
        <ele>144</ele>
        <time>2012-08-20T07:35:49.000Z</time>
      </trkpt>
      <trkpt lat="48.71434" lon="1.72164">
        <ele>145</ele>
        <time>2012-08-20T07:35:55.000Z</time>
      </trkpt>
      <trkpt lat="48.7143" lon="1.72152">
        <ele>145</ele>
        <time>2012-08-20T07:36:01.000Z</time>
      </trkpt>
      <trkpt lat="48.71429" lon="1.7214">
        <ele>144.60000610352</ele>
        <time>2012-08-20T07:36:10.000Z</time>
      </trkpt>
      <trkpt lat="48.71429" lon="1.72129">
        <ele>144.19999694824</ele>
        <time>2012-08-20T07:36:18.000Z</time>
      </trkpt>
      <trkpt lat="48.71429" lon="1.72127">
        <ele>144.19999694824</ele>
        <time>2012-08-20T07:36:19.000Z</time>
      </trkpt>
      <trkpt lat="48.71423" lon="1.72106">
        <ele>143.60000610352</ele>
        <time>2012-08-20T07:36:27.000Z</time>
      </trkpt>
      <trkpt lat="48.71422" lon="1.72102">
        <ele>143.60000610352</ele>
        <time>2012-08-20T07:36:29.000Z</time>
      </trkpt>
      <trkpt lat="48.71417" lon="1.72092">
        <ele>143.39999389648</ele>
        <time>2012-08-20T07:36:36.000Z</time>
      </trkpt>
      <trkpt lat="48.71415" lon="1.72082">
        <ele>143.19999694824</ele>
        <time>2012-08-20T07:36:43.000Z</time>
      </trkpt>
      <trkpt lat="48.71414" lon="1.72075">
        <ele>143.39999389648</ele>
        <time>2012-08-20T07:36:46.000Z</time>
      </trkpt>
      <trkpt lat="48.71408" lon="1.72059">
        <ele>144.39999389648</ele>
        <time>2012-08-20T07:36:55.000Z</time>
      </trkpt>
      <trkpt lat="48.71402" lon="1.7205">
        <ele>145</ele>
        <time>2012-08-20T07:37:02.000Z</time>
      </trkpt>
      <trkpt lat="48.71395" lon="1.7204">
        <ele>145.39999389648</ele>
        <time>2012-08-20T07:37:09.000Z</time>
      </trkpt>
      <trkpt lat="48.71389" lon="1.72032">
        <ele>145.80000305176</ele>
        <time>2012-08-20T07:37:16.000Z</time>
      </trkpt>
      <trkpt lat="48.71377" lon="1.72018">
        <ele>146.19999694824</ele>
        <time>2012-08-20T07:37:27.000Z</time>
      </trkpt>
      <trkpt lat="48.71365" lon="1.72008">
        <ele>146.39999389648</ele>
        <time>2012-08-20T07:37:37.000Z</time>
      </trkpt>
      <trkpt lat="48.7136" lon="1.72004">
        <ele>146.19999694824</ele>
        <time>2012-08-20T07:37:42.000Z</time>
      </trkpt>
      <trkpt lat="48.7135" lon="1.71994">
        <ele>146.60000610352</ele>
        <time>2012-08-20T07:37:51.000Z</time>
      </trkpt>
      <trkpt lat="48.7134" lon="1.71984">
        <ele>147.19999694824</ele>
        <time>2012-08-20T07:38:00.000Z</time>
      </trkpt>
      <trkpt lat="48.71332" lon="1.71975">
        <ele>147.80000305176</ele>
        <time>2012-08-20T07:38:08.000Z</time>
      </trkpt>
      <trkpt lat="48.71322" lon="1.71966">
        <ele>149</ele>
        <time>2012-08-20T07:38:17.000Z</time>
      </trkpt>
      <trkpt lat="48.71316" lon="1.71955">
        <ele>150</ele>
        <time>2012-08-20T07:38:24.000Z</time>
      </trkpt>
      <trkpt lat="48.71315" lon="1.71941">
        <ele>150.39999389648</ele>
        <time>2012-08-20T07:38:32.000Z</time>
      </trkpt>
      <trkpt lat="48.71316" lon="1.71927">
        <ele>150.60000610352</ele>
        <time>2012-08-20T07:38:40.000Z</time>
      </trkpt>
      <trkpt lat="48.71315" lon="1.71909">
        <ele>151.19999694824</ele>
        <time>2012-08-20T07:38:48.000Z</time>
      </trkpt>
      <trkpt lat="48.71318" lon="1.71891">
        <ele>151</ele>
        <time>2012-08-20T07:38:58.000Z</time>
      </trkpt>
      <trkpt lat="48.7132" lon="1.71875">
        <ele>151</ele>
        <time>2012-08-20T07:39:07.000Z</time>
      </trkpt>
      <trkpt lat="48.71323" lon="1.71863">
        <ele>150.80000305176</ele>
        <time>2012-08-20T07:39:14.000Z</time>
      </trkpt>
      <trkpt lat="48.71326" lon="1.71855">
        <ele>150.60000610352</ele>
        <time>2012-08-20T07:39:19.000Z</time>
      </trkpt>
      <trkpt lat="48.71329" lon="1.71842">
        <ele>150.39999389648</ele>
        <time>2012-08-20T07:39:27.000Z</time>
      </trkpt>
      <trkpt lat="48.71328" lon="1.7183">
        <ele>150.60000610352</ele>
        <time>2012-08-20T07:39:33.000Z</time>
      </trkpt>
      <trkpt lat="48.71327" lon="1.7182">
        <ele>150.19999694824</ele>
        <time>2012-08-20T07:39:38.000Z</time>
      </trkpt>
      <trkpt lat="48.71327" lon="1.7181">
        <ele>149.80000305176</ele>
        <time>2012-08-20T07:39:43.000Z</time>
      </trkpt>
      <trkpt lat="48.71326" lon="1.71796">
        <ele>149.39999389648</ele>
        <time>2012-08-20T07:39:50.000Z</time>
      </trkpt>
      <trkpt lat="48.71325" lon="1.71785">
        <ele>149</ele>
        <time>2012-08-20T07:39:56.000Z</time>
      </trkpt>
      <trkpt lat="48.71322" lon="1.71764">
        <ele>148.60000610352</ele>
        <time>2012-08-20T07:40:07.000Z</time>
      </trkpt>
      <trkpt lat="48.7132" lon="1.71746">
        <ele>148</ele>
        <time>2012-08-20T07:40:16.000Z</time>
      </trkpt>
      <trkpt lat="48.7132" lon="1.71723">
        <ele>147.60000610352</ele>
        <time>2012-08-20T07:40:27.000Z</time>
      </trkpt>
      <trkpt lat="48.7132" lon="1.71704">
        <ele>147.39999389648</ele>
        <time>2012-08-20T07:40:37.000Z</time>
      </trkpt>
      <trkpt lat="48.7132" lon="1.71686">
        <ele>147</ele>
        <time>2012-08-20T07:40:47.000Z</time>
      </trkpt>
      <trkpt lat="48.71319" lon="1.71668">
        <ele>146.80000305176</ele>
        <time>2012-08-20T07:40:57.000Z</time>
      </trkpt>
      <trkpt lat="48.71319" lon="1.71655">
        <ele>146.19999694824</ele>
        <time>2012-08-20T07:41:04.000Z</time>
      </trkpt>
      <trkpt lat="48.71319" lon="1.71644">
        <ele>146</ele>
        <time>2012-08-20T07:41:11.000Z</time>
      </trkpt>
      <trkpt lat="48.71318" lon="1.71631">
        <ele>145.60000610352</ele>
        <time>2012-08-20T07:41:19.000Z</time>
      </trkpt>
      <trkpt lat="48.71318" lon="1.71612">
        <ele>145</ele>
        <time>2012-08-20T07:41:28.000Z</time>
      </trkpt>
      <trkpt lat="48.71319" lon="1.71594">
        <ele>144.19999694824</ele>
        <time>2012-08-20T07:41:37.000Z</time>
      </trkpt>
      <trkpt lat="48.71318" lon="1.71574">
        <ele>143.80000305176</ele>
        <time>2012-08-20T07:41:46.000Z</time>
      </trkpt>
      <trkpt lat="48.71316" lon="1.71554">
        <ele>143.60000610352</ele>
        <time>2012-08-20T07:41:55.000Z</time>
      </trkpt>
      <trkpt lat="48.71315" lon="1.71535">
        <ele>143.39999389648</ele>
        <time>2012-08-20T07:42:04.000Z</time>
      </trkpt>
      <trkpt lat="48.71316" lon="1.71508">
        <ele>143</ele>
        <time>2012-08-20T07:42:17.000Z</time>
      </trkpt>
      <trkpt lat="48.71315" lon="1.71488">
        <ele>142.80000305176</ele>
        <time>2012-08-20T07:42:26.000Z</time>
      </trkpt>
      <trkpt lat="48.71315" lon="1.71481">
        <ele>142.60000610352</ele>
        <time>2012-08-20T07:42:31.000Z</time>
      </trkpt>
      <trkpt lat="48.71321" lon="1.71479">
        <ele>142.39999389648</ele>
        <time>2012-08-20T07:42:36.000Z</time>
      </trkpt>
      <trkpt lat="48.71332" lon="1.71475">
        <ele>141.80000305176</ele>
        <time>2012-08-20T07:42:45.000Z</time>
      </trkpt>
      <trkpt lat="48.71342" lon="1.71472">
        <ele>141.39999389648</ele>
        <time>2012-08-20T07:42:53.000Z</time>
      </trkpt>
      <trkpt lat="48.71352" lon="1.71469">
        <ele>141</ele>
        <time>2012-08-20T07:43:01.000Z</time>
      </trkpt>
      <trkpt lat="48.71361" lon="1.71464">
        <ele>140.80000305176</ele>
        <time>2012-08-20T07:43:08.000Z</time>
      </trkpt>
      <trkpt lat="48.7137" lon="1.7146">
        <ele>140.39999389648</ele>
        <time>2012-08-20T07:43:15.000Z</time>
      </trkpt>
      <trkpt lat="48.71384" lon="1.71453">
        <ele>139.80000305176</ele>
        <time>2012-08-20T07:43:25.000Z</time>
      </trkpt>
      <trkpt lat="48.71395" lon="1.71449">
        <ele>139.39999389648</ele>
        <time>2012-08-20T07:43:33.000Z</time>
      </trkpt>
      <trkpt lat="48.71407" lon="1.71444">
        <ele>139</ele>
        <time>2012-08-20T07:43:42.000Z</time>
      </trkpt>
      <trkpt lat="48.7141" lon="1.71442">
        <ele>138.80000305176</ele>
        <time>2012-08-20T07:43:45.000Z</time>
      </trkpt>
      <trkpt lat="48.71415" lon="1.7144">
        <ele>138.60000610352</ele>
        <time>2012-08-20T07:43:51.000Z</time>
      </trkpt>
      <trkpt lat="48.7142" lon="1.71437">
        <ele>138.39999389648</ele>
        <time>2012-08-20T07:44:00.000Z</time>
      </trkpt>
      <trkpt lat="48.71434" lon="1.71434">
        <ele>138</ele>
        <time>2012-08-20T07:44:09.000Z</time>
      </trkpt>
      <trkpt lat="48.71451" lon="1.71428">
        <ele>137.39999389648</ele>
        <time>2012-08-20T07:44:21.000Z</time>
      </trkpt>
      <trkpt lat="48.71463" lon="1.71423">
        <ele>137</ele>
        <time>2012-08-20T07:44:31.000Z</time>
      </trkpt>
      <trkpt lat="48.71479" lon="1.71417">
        <ele>136.60000610352</ele>
        <time>2012-08-20T07:44:44.000Z</time>
      </trkpt>
      <trkpt lat="48.71489" lon="1.71414">
        <ele>136.19999694824</ele>
        <time>2012-08-20T07:44:52.000Z</time>
      </trkpt>
      <trkpt lat="48.71501" lon="1.71408">
        <ele>135.60000610352</ele>
        <time>2012-08-20T07:45:02.000Z</time>
      </trkpt>
      <trkpt lat="48.7151" lon="1.71405">
        <ele>135.39999389648</ele>
        <time>2012-08-20T07:45:09.000Z</time>
      </trkpt>
      <trkpt lat="48.71518" lon="1.71402">
        <ele>135.39999389648</ele>
        <time>2012-08-20T07:45:15.000Z</time>
      </trkpt>
      <trkpt lat="48.7152" lon="1.71401">
        <ele>135.19999694824</ele>
        <time>2012-08-20T07:45:16.000Z</time>
      </trkpt>
      <trkpt lat="48.7153" lon="1.71399">
        <ele>135.19999694824</ele>
        <time>2012-08-20T07:45:23.000Z</time>
      </trkpt>
      <trkpt lat="48.71541" lon="1.71395">
        <ele>135</ele>
        <time>2012-08-20T07:45:31.000Z</time>
      </trkpt>
      <trkpt lat="48.71554" lon="1.71389">
        <ele>135</ele>
        <time>2012-08-20T07:45:41.000Z</time>
      </trkpt>
      <trkpt lat="48.71564" lon="1.71386">
        <ele>134.80000305176</ele>
        <time>2012-08-20T07:45:48.000Z</time>
      </trkpt>
      <trkpt lat="48.71571" lon="1.71385">
        <ele>134.80000305176</ele>
        <time>2012-08-20T07:45:54.000Z</time>
      </trkpt>
      <trkpt lat="48.71583" lon="1.7138">
        <ele>134.60000610352</ele>
        <time>2012-08-20T07:46:03.000Z</time>
      </trkpt>
      <trkpt lat="48.71591" lon="1.71377">
        <ele>134.39999389648</ele>
        <time>2012-08-20T07:46:10.000Z</time>
      </trkpt>
      <trkpt lat="48.71599" lon="1.71375">
        <ele>134.19999694824</ele>
        <time>2012-08-20T07:46:17.000Z</time>
      </trkpt>
      <trkpt lat="48.71609" lon="1.71372">
        <ele>133.80000305176</ele>
        <time>2012-08-20T07:46:25.000Z</time>
      </trkpt>
      <trkpt lat="48.7162" lon="1.71367">
        <ele>133.39999389648</ele>
        <time>2012-08-20T07:46:33.000Z</time>
      </trkpt>
      <trkpt lat="48.71631" lon="1.71363">
        <ele>133</ele>
        <time>2012-08-20T07:46:41.000Z</time>
      </trkpt>
      <trkpt lat="48.71633" lon="1.71362">
        <ele>133</ele>
        <time>2012-08-20T07:46:42.000Z</time>
      </trkpt>
      <trkpt lat="48.71637" lon="1.7136">
        <ele>132.80000305176</ele>
        <time>2012-08-20T07:46:46.000Z</time>
      </trkpt>
      <trkpt lat="48.71647" lon="1.71355">
        <ele>132.60000610352</ele>
        <time>2012-08-20T07:46:54.000Z</time>
      </trkpt>
      <trkpt lat="48.71661" lon="1.71349">
        <ele>132.19999694824</ele>
        <time>2012-08-20T07:47:04.000Z</time>
      </trkpt>
      <trkpt lat="48.7167" lon="1.71345">
        <ele>132</ele>
        <time>2012-08-20T07:47:11.000Z</time>
      </trkpt>
      <trkpt lat="48.71678" lon="1.71341">
        <ele>131.80000305176</ele>
        <time>2012-08-20T07:47:18.000Z</time>
      </trkpt>
      <trkpt lat="48.71689" lon="1.71337">
        <ele>131.60000610352</ele>
        <time>2012-08-20T07:47:26.000Z</time>
      </trkpt>
      <trkpt lat="48.71701" lon="1.71334">
        <ele>131.19999694824</ele>
        <time>2012-08-20T07:47:35.000Z</time>
      </trkpt>
      <trkpt lat="48.71712" lon="1.7133">
        <ele>130.80000305176</ele>
        <time>2012-08-20T07:47:43.000Z</time>
      </trkpt>
      <trkpt lat="48.71719" lon="1.71327">
        <ele>130.39999389648</ele>
        <time>2012-08-20T07:47:49.000Z</time>
      </trkpt>
      <trkpt lat="48.71725" lon="1.71323">
        <ele>130.19999694824</ele>
        <time>2012-08-20T07:47:53.000Z</time>
      </trkpt>
      <trkpt lat="48.71736" lon="1.71318">
        <ele>129.60000610352</ele>
        <time>2012-08-20T07:48:00.000Z</time>
      </trkpt>
      <trkpt lat="48.71744" lon="1.71316">
        <ele>129.39999389648</ele>
        <time>2012-08-20T07:48:07.000Z</time>
      </trkpt>
      <trkpt lat="48.71753" lon="1.71314">
        <ele>129</ele>
        <time>2012-08-20T07:48:14.000Z</time>
      </trkpt>
      <trkpt lat="48.71765" lon="1.7131">
        <ele>128.60000610352</ele>
        <time>2012-08-20T07:48:22.000Z</time>
      </trkpt>
      <trkpt lat="48.71773" lon="1.71305">
        <ele>128.19999694824</ele>
        <time>2012-08-20T07:48:28.000Z</time>
      </trkpt>
      <trkpt lat="48.71783" lon="1.71304">
        <ele>127.80000305176</ele>
        <time>2012-08-20T07:48:35.000Z</time>
      </trkpt>
      <trkpt lat="48.71793" lon="1.71301">
        <ele>127.59999847412</ele>
        <time>2012-08-20T07:48:43.000Z</time>
      </trkpt>
      <trkpt lat="48.71798" lon="1.71299">
        <ele>127.40000152588</ele>
        <time>2012-08-20T07:48:48.000Z</time>
      </trkpt>
      <trkpt lat="48.7181" lon="1.71297">
        <ele>127</ele>
        <time>2012-08-20T07:48:57.000Z</time>
      </trkpt>
      <trkpt lat="48.71819" lon="1.71294">
        <ele>126.80000305176</ele>
        <time>2012-08-20T07:49:04.000Z</time>
      </trkpt>
      <trkpt lat="48.71823" lon="1.71292">
        <ele>126.59999847412</ele>
        <time>2012-08-20T07:49:08.000Z</time>
      </trkpt>
      <trkpt lat="48.71835" lon="1.71288">
        <ele>126.40000152588</ele>
        <time>2012-08-20T07:49:17.000Z</time>
      </trkpt>
      <trkpt lat="48.71846" lon="1.71283">
        <ele>126.59999847412</ele>
        <time>2012-08-20T07:49:25.000Z</time>
      </trkpt>
      <trkpt lat="48.71856" lon="1.71278">
        <ele>126.59999847412</ele>
        <time>2012-08-20T07:49:32.000Z</time>
      </trkpt>
      <trkpt lat="48.71867" lon="1.71274">
        <ele>126.59999847412</ele>
        <time>2012-08-20T07:49:40.000Z</time>
      </trkpt>
      <trkpt lat="48.71877" lon="1.71269">
        <ele>126.80000305176</ele>
        <time>2012-08-20T07:49:47.000Z</time>
      </trkpt>
      <trkpt lat="48.71887" lon="1.71266">
        <ele>126.80000305176</ele>
        <time>2012-08-20T07:49:54.000Z</time>
      </trkpt>
      <trkpt lat="48.71893" lon="1.71262">
        <ele>126.80000305176</ele>
        <time>2012-08-20T07:49:59.000Z</time>
      </trkpt>
      <trkpt lat="48.71904" lon="1.71258">
        <ele>127</ele>
        <time>2012-08-20T07:50:07.000Z</time>
      </trkpt>
      <trkpt lat="48.71918" lon="1.71254">
        <ele>127</ele>
        <time>2012-08-20T07:50:17.000Z</time>
      </trkpt>
      <trkpt lat="48.71922" lon="1.71252">
        <ele>127</ele>
        <time>2012-08-20T07:50:21.000Z</time>
      </trkpt>
      <trkpt lat="48.71925" lon="1.71252">
        <ele>127.19999694824</ele>
        <time>2012-08-20T07:50:25.000Z</time>
      </trkpt>
      <trkpt lat="48.71931" lon="1.71249">
        <ele>127.19999694824</ele>
        <time>2012-08-20T07:50:38.000Z</time>
      </trkpt>
      <trkpt lat="48.7194" lon="1.71248">
        <ele>127.40000152588</ele>
        <time>2012-08-20T07:50:44.000Z</time>
      </trkpt>
      <trkpt lat="48.71943" lon="1.71246">
        <ele>127.40000152588</ele>
        <time>2012-08-20T07:50:47.000Z</time>
      </trkpt>
      <trkpt lat="48.71954" lon="1.71241">
        <ele>127.59999847412</ele>
        <time>2012-08-20T07:50:54.000Z</time>
      </trkpt>
      <trkpt lat="48.71956" lon="1.71239">
        <ele>127.80000305176</ele>
        <time>2012-08-20T07:50:56.000Z</time>
      </trkpt>
      <trkpt lat="48.71963" lon="1.71235">
        <ele>128</ele>
        <time>2012-08-20T07:51:01.000Z</time>
      </trkpt>
      <trkpt lat="48.71967" lon="1.71235">
        <ele>128</ele>
        <time>2012-08-20T07:51:05.000Z</time>
      </trkpt>
      <trkpt lat="48.71976" lon="1.71233">
        <ele>128.19999694824</ele>
        <time>2012-08-20T07:51:13.000Z</time>
      </trkpt>
      <trkpt lat="48.71984" lon="1.71231">
        <ele>128.19999694824</ele>
        <time>2012-08-20T07:51:20.000Z</time>
      </trkpt>
      <trkpt lat="48.7199" lon="1.71228">
        <ele>128.39999389648</ele>
        <time>2012-08-20T07:51:26.000Z</time>
      </trkpt>
      <trkpt lat="48.72" lon="1.71225">
        <ele>128.60000610352</ele>
        <time>2012-08-20T07:51:34.000Z</time>
      </trkpt>
      <trkpt lat="48.72002" lon="1.71224">
        <ele>128.60000610352</ele>
        <time>2012-08-20T07:51:36.000Z</time>
      </trkpt>
      <trkpt lat="48.72007" lon="1.71223">
        <ele>128.39999389648</ele>
        <time>2012-08-20T07:51:41.000Z</time>
      </trkpt>
      <trkpt lat="48.72018" lon="1.71219">
        <ele>128</ele>
        <time>2012-08-20T07:51:49.000Z</time>
      </trkpt>
      <trkpt lat="48.72028" lon="1.71214">
        <ele>127.80000305176</ele>
        <time>2012-08-20T07:51:56.000Z</time>
      </trkpt>
      <trkpt lat="48.72039" lon="1.71212">
        <ele>127.40000152588</ele>
        <time>2012-08-20T07:52:04.000Z</time>
      </trkpt>
      <trkpt lat="48.72048" lon="1.71208">
        <ele>127</ele>
        <time>2012-08-20T07:52:12.000Z</time>
      </trkpt>
      <trkpt lat="48.72055" lon="1.71206">
        <ele>126.80000305176</ele>
        <time>2012-08-20T07:52:18.000Z</time>
      </trkpt>
      <trkpt lat="48.72057" lon="1.71206">
        <ele>126.59999847412</ele>
        <time>2012-08-20T07:52:19.000Z</time>
      </trkpt>
      <trkpt lat="48.72067" lon="1.71202">
        <ele>126.19999694824</ele>
        <time>2012-08-20T07:52:27.000Z</time>
      </trkpt>
      <trkpt lat="48.7207" lon="1.71201">
        <ele>126.19999694824</ele>
        <time>2012-08-20T07:52:29.000Z</time>
      </trkpt>
      <trkpt lat="48.72074" lon="1.71199">
        <ele>126</ele>
        <time>2012-08-20T07:52:32.000Z</time>
      </trkpt>
      <trkpt lat="48.72079" lon="1.71197">
        <ele>125.80000305176</ele>
        <time>2012-08-20T07:52:36.000Z</time>
      </trkpt>
      <trkpt lat="48.72092" lon="1.71191">
        <ele>125.59999847412</ele>
        <time>2012-08-20T07:52:46.000Z</time>
      </trkpt>
      <trkpt lat="48.72099" lon="1.71189">
        <ele>125.40000152588</ele>
        <time>2012-08-20T07:52:51.000Z</time>
      </trkpt>
      <trkpt lat="48.72104" lon="1.71186">
        <ele>125.40000152588</ele>
        <time>2012-08-20T07:52:56.000Z</time>
      </trkpt>
      <trkpt lat="48.72118" lon="1.71181">
        <ele>125</ele>
        <time>2012-08-20T07:53:07.000Z</time>
      </trkpt>
      <trkpt lat="48.72126" lon="1.71178">
        <ele>125</ele>
        <time>2012-08-20T07:53:13.000Z</time>
      </trkpt>
      <trkpt lat="48.72133" lon="1.71175">
        <ele>124.80000305176</ele>
        <time>2012-08-20T07:53:19.000Z</time>
      </trkpt>
      <trkpt lat="48.72144" lon="1.71171">
        <ele>124.59999847412</ele>
        <time>2012-08-20T07:53:26.000Z</time>
      </trkpt>
      <trkpt lat="48.72152" lon="1.71168">
        <ele>124.40000152588</ele>
        <time>2012-08-20T07:53:32.000Z</time>
      </trkpt>
      <trkpt lat="48.72158" lon="1.71166">
        <ele>124.19999694824</ele>
        <time>2012-08-20T07:53:36.000Z</time>
      </trkpt>
      <trkpt lat="48.72168" lon="1.71161">
        <ele>124</ele>
        <time>2012-08-20T07:53:45.000Z</time>
      </trkpt>
      <trkpt lat="48.72177" lon="1.71159">
        <ele>123.80000305176</ele>
        <time>2012-08-20T07:53:52.000Z</time>
      </trkpt>
      <trkpt lat="48.72186" lon="1.71156">
        <ele>123.59999847412</ele>
        <time>2012-08-20T07:53:59.000Z</time>
      </trkpt>
      <trkpt lat="48.72198" lon="1.71151">
        <ele>123.40000152588</ele>
        <time>2012-08-20T07:54:07.000Z</time>
      </trkpt>
      <trkpt lat="48.72211" lon="1.71147">
        <ele>123</ele>
        <time>2012-08-20T07:54:17.000Z</time>
      </trkpt>
      <trkpt lat="48.72218" lon="1.71142">
        <ele>122.80000305176</ele>
        <time>2012-08-20T07:54:22.000Z</time>
      </trkpt>
      <trkpt lat="48.72228" lon="1.71138">
        <ele>122.40000152588</ele>
        <time>2012-08-20T07:54:29.000Z</time>
      </trkpt>
      <trkpt lat="48.72236" lon="1.71136">
        <ele>122.19999694824</ele>
        <time>2012-08-20T07:54:35.000Z</time>
      </trkpt>
      <trkpt lat="48.72245" lon="1.71134">
        <ele>122</ele>
        <time>2012-08-20T07:54:42.000Z</time>
      </trkpt>
      <trkpt lat="48.7225" lon="1.71131">
        <ele>121.80000305176</ele>
        <time>2012-08-20T07:54:46.000Z</time>
      </trkpt>
      <trkpt lat="48.72259" lon="1.71128">
        <ele>121.40000152588</ele>
        <time>2012-08-20T07:54:53.000Z</time>
      </trkpt>
      <trkpt lat="48.72269" lon="1.71126">
        <ele>121</ele>
        <time>2012-08-20T07:55:00.000Z</time>
      </trkpt>
      <trkpt lat="48.72278" lon="1.71123">
        <ele>120.80000305176</ele>
        <time>2012-08-20T07:55:07.000Z</time>
      </trkpt>
      <trkpt lat="48.72288" lon="1.71118">
        <ele>120.40000152588</ele>
        <time>2012-08-20T07:55:15.000Z</time>
      </trkpt>
      <trkpt lat="48.72298" lon="1.71113">
        <ele>120</ele>
        <time>2012-08-20T07:55:23.000Z</time>
      </trkpt>
      <trkpt lat="48.7231" lon="1.71109">
        <ele>119.80000305176</ele>
        <time>2012-08-20T07:55:33.000Z</time>
      </trkpt>
      <trkpt lat="48.72322" lon="1.71105">
        <ele>119.40000152588</ele>
        <time>2012-08-20T07:55:42.000Z</time>
      </trkpt>
      <trkpt lat="48.72333" lon="1.711">
        <ele>119.19999694824</ele>
        <time>2012-08-20T07:55:51.000Z</time>
      </trkpt>
      <trkpt lat="48.7234" lon="1.71097">
        <ele>119.19999694824</ele>
        <time>2012-08-20T07:55:57.000Z</time>
      </trkpt>
      <trkpt lat="48.72349" lon="1.71094">
        <ele>119.40000152588</ele>
        <time>2012-08-20T07:56:03.000Z</time>
      </trkpt>
      <trkpt lat="48.72359" lon="1.7109">
        <ele>119.40000152588</ele>
        <time>2012-08-20T07:56:10.000Z</time>
      </trkpt>
      <trkpt lat="48.72369" lon="1.71086">
        <ele>119.40000152588</ele>
        <time>2012-08-20T07:56:18.000Z</time>
      </trkpt>
      <trkpt lat="48.72381" lon="1.71083">
        <ele>119.59999847412</ele>
        <time>2012-08-20T07:56:27.000Z</time>
      </trkpt>
      <trkpt lat="48.72391" lon="1.71079">
        <ele>119.59999847412</ele>
        <time>2012-08-20T07:56:35.000Z</time>
      </trkpt>
      <trkpt lat="48.72401" lon="1.71075">
        <ele>119.80000305176</ele>
        <time>2012-08-20T07:56:43.000Z</time>
      </trkpt>
      <trkpt lat="48.72409" lon="1.71072">
        <ele>120</ele>
        <time>2012-08-20T07:56:50.000Z</time>
      </trkpt>
      <trkpt lat="48.7242" lon="1.71068">
        <ele>120</ele>
        <time>2012-08-20T07:56:59.000Z</time>
      </trkpt>
      <trkpt lat="48.72428" lon="1.71065">
        <ele>120.19999694824</ele>
        <time>2012-08-20T07:57:06.000Z</time>
      </trkpt>
      <trkpt lat="48.72437" lon="1.71062">
        <ele>120.19999694824</ele>
        <time>2012-08-20T07:57:13.000Z</time>
      </trkpt>
      <trkpt lat="48.72444" lon="1.71059">
        <ele>120.40000152588</ele>
        <time>2012-08-20T07:57:19.000Z</time>
      </trkpt>
      <trkpt lat="48.72456" lon="1.71056">
        <ele>120.40000152588</ele>
        <time>2012-08-20T07:57:27.000Z</time>
      </trkpt>
      <trkpt lat="48.7246" lon="1.71055">
        <ele>120.59999847412</ele>
        <time>2012-08-20T07:57:30.000Z</time>
      </trkpt>
      <trkpt lat="48.72468" lon="1.71052">
        <ele>120.59999847412</ele>
        <time>2012-08-20T07:57:37.000Z</time>
      </trkpt>
      <trkpt lat="48.72472" lon="1.7105">
        <ele>120.59999847412</ele>
        <time>2012-08-20T07:57:40.000Z</time>
      </trkpt>
      <trkpt lat="48.72476" lon="1.71049">
        <ele>120.80000305176</ele>
        <time>2012-08-20T07:57:43.000Z</time>
      </trkpt>
      <trkpt lat="48.72486" lon="1.71043">
        <ele>120.80000305176</ele>
        <time>2012-08-20T07:57:51.000Z</time>
      </trkpt>
      <trkpt lat="48.72495" lon="1.7104">
        <ele>121</ele>
        <time>2012-08-20T07:57:58.000Z</time>
      </trkpt>
      <trkpt lat="48.72508" lon="1.71036">
        <ele>121</ele>
        <time>2012-08-20T07:58:07.000Z</time>
      </trkpt>
      <trkpt lat="48.72509" lon="1.71035">
        <ele>121</ele>
        <time>2012-08-20T07:58:08.000Z</time>
      </trkpt>
      <trkpt lat="48.72519" lon="1.71033">
        <ele>121</ele>
        <time>2012-08-20T07:58:16.000Z</time>
      </trkpt>
      <trkpt lat="48.72521" lon="1.71033">
        <ele>121</ele>
        <time>2012-08-20T07:58:17.000Z</time>
      </trkpt>
      <trkpt lat="48.72532" lon="1.71029">
        <ele>121</ele>
        <time>2012-08-20T07:58:25.000Z</time>
      </trkpt>
      <trkpt lat="48.72541" lon="1.71025">
        <ele>121</ele>
        <time>2012-08-20T07:58:32.000Z</time>
      </trkpt>
      <trkpt lat="48.72549" lon="1.71023">
        <ele>121</ele>
        <time>2012-08-20T07:58:38.000Z</time>
      </trkpt>
      <trkpt lat="48.72559" lon="1.71019">
        <ele>121</ele>
        <time>2012-08-20T07:58:45.000Z</time>
      </trkpt>
      <trkpt lat="48.72561" lon="1.71018">
        <ele>121</ele>
        <time>2012-08-20T07:58:47.000Z</time>
      </trkpt>
      <trkpt lat="48.7257" lon="1.71015">
        <ele>121</ele>
        <time>2012-08-20T07:58:53.000Z</time>
      </trkpt>
      <trkpt lat="48.72575" lon="1.71014">
        <ele>121</ele>
        <time>2012-08-20T07:58:57.000Z</time>
      </trkpt>
      <trkpt lat="48.72583" lon="1.7101">
        <ele>121</ele>
        <time>2012-08-20T07:59:04.000Z</time>
      </trkpt>
      <trkpt lat="48.72592" lon="1.7101">
        <ele>120.80000305176</ele>
        <time>2012-08-20T07:59:10.000Z</time>
      </trkpt>
      <trkpt lat="48.72604" lon="1.71011">
        <ele>120.80000305176</ele>
        <time>2012-08-20T07:59:18.000Z</time>
      </trkpt>
      <trkpt lat="48.72613" lon="1.71011">
        <ele>120.59999847412</ele>
        <time>2012-08-20T07:59:25.000Z</time>
      </trkpt>
      <trkpt lat="48.72618" lon="1.71011">
        <ele>120.59999847412</ele>
        <time>2012-08-20T07:59:29.000Z</time>
      </trkpt>
      <trkpt lat="48.72625" lon="1.71012">
        <ele>120.59999847412</ele>
        <time>2012-08-20T07:59:35.000Z</time>
      </trkpt>
      <trkpt lat="48.72636" lon="1.71012">
        <ele>120.40000152588</ele>
        <time>2012-08-20T07:59:42.000Z</time>
      </trkpt>
      <trkpt lat="48.72639" lon="1.71011">
        <ele>120.40000152588</ele>
        <time>2012-08-20T07:59:44.000Z</time>
      </trkpt>
      <trkpt lat="48.72645" lon="1.71014">
        <ele>120.19999694824</ele>
        <time>2012-08-20T07:59:48.000Z</time>
      </trkpt>
      <trkpt lat="48.72654" lon="1.71014">
        <ele>120.19999694824</ele>
        <time>2012-08-20T07:59:53.000Z</time>
      </trkpt>
      <trkpt lat="48.72659" lon="1.71016">
        <ele>120</ele>
        <time>2012-08-20T07:59:58.000Z</time>
      </trkpt>
      <trkpt lat="48.72664" lon="1.71016">
        <ele>120</ele>
        <time>2012-08-20T08:00:01.000Z</time>
      </trkpt>
      <trkpt lat="48.72669" lon="1.71017">
        <ele>120</ele>
        <time>2012-08-20T08:00:05.000Z</time>
      </trkpt>
      <trkpt lat="48.7268" lon="1.71016">
        <ele>120</ele>
        <time>2012-08-20T08:00:12.000Z</time>
      </trkpt>
      <trkpt lat="48.72689" lon="1.71018">
        <ele>119.80000305176</ele>
        <time>2012-08-20T08:00:19.000Z</time>
      </trkpt>
      <trkpt lat="48.727" lon="1.71019">
        <ele>119.80000305176</ele>
        <time>2012-08-20T08:00:28.000Z</time>
      </trkpt>
      <trkpt lat="48.72701" lon="1.71019">
        <ele>119.80000305176</ele>
        <time>2012-08-20T08:00:29.000Z</time>
      </trkpt>
      <trkpt lat="48.72709" lon="1.71018">
        <ele>119.80000305176</ele>
        <time>2012-08-20T08:00:35.000Z</time>
      </trkpt>
      <trkpt lat="48.72712" lon="1.71016">
        <ele>119.59999847412</ele>
        <time>2012-08-20T08:00:40.000Z</time>
      </trkpt>
      <trkpt lat="48.72716" lon="1.71016">
        <ele>119.59999847412</ele>
        <time>2012-08-20T08:00:46.000Z</time>
      </trkpt>
      <trkpt lat="48.72718" lon="1.71016">
        <ele>119.59999847412</ele>
        <time>2012-08-20T08:00:52.000Z</time>
      </trkpt>
      <trkpt lat="48.72715" lon="1.71013">
        <ele>119.59999847412</ele>
        <time>2012-08-20T08:00:55.000Z</time>
      </trkpt>
      <trkpt lat="48.72703" lon="1.70998">
        <ele>119.59999847412</ele>
        <time>2012-08-20T08:01:05.000Z</time>
      </trkpt>
      <trkpt lat="48.7269" lon="1.7098">
        <ele>119.59999847412</ele>
        <time>2012-08-20T08:01:12.000Z</time>
      </trkpt>
      <trkpt lat="48.72675" lon="1.70957">
        <ele>119.80000305176</ele>
        <time>2012-08-20T08:01:20.000Z</time>
      </trkpt>
      <trkpt lat="48.72659" lon="1.70931">
        <ele>120.19999694824</ele>
        <time>2012-08-20T08:01:28.000Z</time>
      </trkpt>
      <trkpt lat="48.72647" lon="1.70909">
        <ele>120.59999847412</ele>
        <time>2012-08-20T08:01:35.000Z</time>
      </trkpt>
      <trkpt lat="48.72631" lon="1.7088">
        <ele>121.40000152588</ele>
        <time>2012-08-20T08:01:44.000Z</time>
      </trkpt>
      <trkpt lat="48.72611" lon="1.70845">
        <ele>122.19999694824</ele>
        <time>2012-08-20T08:01:55.000Z</time>
      </trkpt>
      <trkpt lat="48.72594" lon="1.70817">
        <ele>122.80000305176</ele>
        <time>2012-08-20T08:02:04.000Z</time>
      </trkpt>
      <trkpt lat="48.72576" lon="1.70782">
        <ele>122.80000305176</ele>
        <time>2012-08-20T08:02:14.000Z</time>
      </trkpt>
      <trkpt lat="48.72559" lon="1.7075">
        <ele>122.40000152588</ele>
        <time>2012-08-20T08:02:23.000Z</time>
      </trkpt>
      <trkpt lat="48.72544" lon="1.70724">
        <ele>122</ele>
        <time>2012-08-20T08:02:31.000Z</time>
      </trkpt>
      <trkpt lat="48.72527" lon="1.70696">
        <ele>122.19999694824</ele>
        <time>2012-08-20T08:02:39.000Z</time>
      </trkpt>
      <trkpt lat="48.72513" lon="1.7067">
        <ele>122.59999847412</ele>
        <time>2012-08-20T08:02:46.000Z</time>
      </trkpt>
      <trkpt lat="48.725" lon="1.70648">
        <ele>122.80000305176</ele>
        <time>2012-08-20T08:02:52.000Z</time>
      </trkpt>
      <trkpt lat="48.72481" lon="1.70613">
        <ele>121.59999847412</ele>
        <time>2012-08-20T08:03:01.000Z</time>
      </trkpt>
      <trkpt lat="48.72466" lon="1.70581">
        <ele>120.80000305176</ele>
        <time>2012-08-20T08:03:09.000Z</time>
      </trkpt>
      <trkpt lat="48.72453" lon="1.70556">
        <ele>120.40000152588</ele>
        <time>2012-08-20T08:03:16.000Z</time>
      </trkpt>
      <trkpt lat="48.72438" lon="1.70531">
        <ele>120</ele>
        <time>2012-08-20T08:03:24.000Z</time>
      </trkpt>
      <trkpt lat="48.72422" lon="1.70504">
        <ele>120</ele>
        <time>2012-08-20T08:03:31.000Z</time>
      </trkpt>
      <trkpt lat="48.72416" lon="1.70486">
        <ele>120</ele>
        <time>2012-08-20T08:03:36.000Z</time>
      </trkpt>
      <trkpt lat="48.72411" lon="1.70469">
        <ele>120</ele>
        <time>2012-08-20T08:03:42.000Z</time>
      </trkpt>
      <trkpt lat="48.72406" lon="1.70455">
        <ele>119.80000305176</ele>
        <time>2012-08-20T08:03:50.000Z</time>
      </trkpt>
      <trkpt lat="48.72399" lon="1.70438">
        <ele>119.59999847412</ele>
        <time>2012-08-20T08:03:59.000Z</time>
      </trkpt>
      <trkpt lat="48.72394" lon="1.7043">
        <ele>119.59999847412</ele>
        <time>2012-08-20T08:04:04.000Z</time>
      </trkpt>
      <trkpt lat="48.72391" lon="1.70421">
        <ele>119.40000152588</ele>
        <time>2012-08-20T08:04:09.000Z</time>
      </trkpt>
      <trkpt lat="48.72387" lon="1.70409">
        <ele>119.40000152588</ele>
        <time>2012-08-20T08:04:16.000Z</time>
      </trkpt>
      <trkpt lat="48.72381" lon="1.70396">
        <ele>119.40000152588</ele>
        <time>2012-08-20T08:04:24.000Z</time>
      </trkpt>
      <trkpt lat="48.72378" lon="1.70389">
        <ele>119.40000152588</ele>
        <time>2012-08-20T08:04:28.000Z</time>
      </trkpt>
      <trkpt lat="48.72372" lon="1.70377">
        <ele>119.40000152588</ele>
        <time>2012-08-20T08:04:35.000Z</time>
      </trkpt>
      <trkpt lat="48.72367" lon="1.70364">
        <ele>119.40000152588</ele>
        <time>2012-08-20T08:04:42.000Z</time>
      </trkpt>
      <trkpt lat="48.72364" lon="1.70352">
        <ele>119.40000152588</ele>
        <time>2012-08-20T08:04:48.000Z</time>
      </trkpt>
      <trkpt lat="48.72361" lon="1.70342">
        <ele>119.19999694824</ele>
        <time>2012-08-20T08:04:53.000Z</time>
      </trkpt>
      <trkpt lat="48.72355" lon="1.70328">
        <ele>119.19999694824</ele>
        <time>2012-08-20T08:05:00.000Z</time>
      </trkpt>
      <trkpt lat="48.72348" lon="1.7031">
        <ele>119</ele>
        <time>2012-08-20T08:05:10.000Z</time>
      </trkpt>
      <trkpt lat="48.72343" lon="1.703">
        <ele>118.80000305176</ele>
        <time>2012-08-20T08:05:16.000Z</time>
      </trkpt>
      <trkpt lat="48.72335" lon="1.70282">
        <ele>118.59999847412</ele>
        <time>2012-08-20T08:05:26.000Z</time>
      </trkpt>
      <trkpt lat="48.72329" lon="1.70266">
        <ele>119</ele>
        <time>2012-08-20T08:05:35.000Z</time>
      </trkpt>
      <trkpt lat="48.72324" lon="1.70252">
        <ele>119.40000152588</ele>
        <time>2012-08-20T08:05:42.000Z</time>
      </trkpt>
      <trkpt lat="48.72317" lon="1.70235">
        <ele>119.59999847412</ele>
        <time>2012-08-20T08:05:51.000Z</time>
      </trkpt>
      <trkpt lat="48.72313" lon="1.70224">
        <ele>119.80000305176</ele>
        <time>2012-08-20T08:05:57.000Z</time>
      </trkpt>
      <trkpt lat="48.72307" lon="1.70207">
        <ele>120</ele>
        <time>2012-08-20T08:06:06.000Z</time>
      </trkpt>
      <trkpt lat="48.72303" lon="1.70192">
        <ele>120</ele>
        <time>2012-08-20T08:06:14.000Z</time>
      </trkpt>
      <trkpt lat="48.72299" lon="1.70179">
        <ele>120.19999694824</ele>
        <time>2012-08-20T08:06:21.000Z</time>
      </trkpt>
      <trkpt lat="48.72294" lon="1.70157">
        <ele>120.19999694824</ele>
        <time>2012-08-20T08:06:32.000Z</time>
      </trkpt>
      <trkpt lat="48.72287" lon="1.70139">
        <ele>119.80000305176</ele>
        <time>2012-08-20T08:06:42.000Z</time>
      </trkpt>
      <trkpt lat="48.72281" lon="1.70117">
        <ele>119</ele>
        <time>2012-08-20T08:06:53.000Z</time>
      </trkpt>
      <trkpt lat="48.7228" lon="1.70098">
        <ele>118.19999694824</ele>
        <time>2012-08-20T08:07:03.000Z</time>
      </trkpt>
      <trkpt lat="48.72284" lon="1.70084">
        <ele>117.80000305176</ele>
        <time>2012-08-20T08:07:12.000Z</time>
      </trkpt>
      <trkpt lat="48.72291" lon="1.70071">
        <ele>118.19999694824</ele>
        <time>2012-08-20T08:07:20.000Z</time>
      </trkpt>
      <trkpt lat="48.72303" lon="1.70054">
        <ele>118.59999847412</ele>
        <time>2012-08-20T08:07:32.000Z</time>
      </trkpt>
      <trkpt lat="48.72304" lon="1.70052">
        <ele>118.59999847412</ele>
        <time>2012-08-20T08:07:38.000Z</time>
      </trkpt>
      <trkpt lat="48.72304" lon="1.70052">
        <ele>118.59999847412</ele>
        <time>2012-08-20T08:07:39.000Z</time>
      </trkpt>
      <trkpt lat="48.72308" lon="1.70047">
        <ele>118.80000305176</ele>
        <time>2012-08-20T08:08:00.000Z</time>
      </trkpt>
      <trkpt lat="48.72317" lon="1.70033">
        <ele>119.19999694824</ele>
        <time>2012-08-20T08:08:09.000Z</time>
      </trkpt>
      <trkpt lat="48.72327" lon="1.70019">
        <ele>119.59999847412</ele>
        <time>2012-08-20T08:08:19.000Z</time>
      </trkpt>
      <trkpt lat="48.72332" lon="1.70013">
        <ele>119.80000305176</ele>
        <time>2012-08-20T08:08:24.000Z</time>
      </trkpt>
      <trkpt lat="48.72336" lon="1.70006">
        <ele>119.80000305176</ele>
        <time>2012-08-20T08:08:29.000Z</time>
      </trkpt>
      <trkpt lat="48.72337" lon="1.70004">
        <ele>119.80000305176</ele>
        <time>2012-08-20T08:08:30.000Z</time>
      </trkpt>
      <trkpt lat="48.72339" lon="1.70001">
        <ele>119.80000305176</ele>
        <time>2012-08-20T08:08:32.000Z</time>
      </trkpt>
      <trkpt lat="48.72345" lon="1.69994">
        <ele>119.19999694824</ele>
        <time>2012-08-20T08:08:38.000Z</time>
      </trkpt>
      <trkpt lat="48.72349" lon="1.6999">
        <ele>119</ele>
        <time>2012-08-20T08:08:41.000Z</time>
      </trkpt>
      <trkpt lat="48.72358" lon="1.69983">
        <ele>118.19999694824</ele>
        <time>2012-08-20T08:08:49.000Z</time>
      </trkpt>
      <trkpt lat="48.72366" lon="1.69974">
        <ele>117.59999847412</ele>
        <time>2012-08-20T08:08:57.000Z</time>
      </trkpt>
      <trkpt lat="48.72368" lon="1.69971">
        <ele>117.19999694824</ele>
        <time>2012-08-20T08:09:00.000Z</time>
      </trkpt>
      <trkpt lat="48.72371" lon="1.69956">
        <ele>116.59999847412</ele>
        <time>2012-08-20T08:09:08.000Z</time>
      </trkpt>
      <trkpt lat="48.72371" lon="1.69952">
        <ele>116.59999847412</ele>
        <time>2012-08-20T08:09:10.000Z</time>
      </trkpt>
      <trkpt lat="48.72364" lon="1.69934">
        <ele>116.19999694824</ele>
        <time>2012-08-20T08:09:20.000Z</time>
      </trkpt>
      <trkpt lat="48.72355" lon="1.69919">
        <ele>116</ele>
        <time>2012-08-20T08:09:29.000Z</time>
      </trkpt>
      <trkpt lat="48.72346" lon="1.69904">
        <ele>116</ele>
        <time>2012-08-20T08:09:39.000Z</time>
      </trkpt>
      <trkpt lat="48.72339" lon="1.69886">
        <ele>115.59999847412</ele>
        <time>2012-08-20T08:09:49.000Z</time>
      </trkpt>
      <trkpt lat="48.7233" lon="1.69868">
        <ele>115.40000152588</ele>
        <time>2012-08-20T08:09:59.000Z</time>
      </trkpt>
      <trkpt lat="48.72324" lon="1.69851">
        <ele>115</ele>
        <time>2012-08-20T08:10:08.000Z</time>
      </trkpt>
      <trkpt lat="48.72318" lon="1.69834">
        <ele>114.80000305176</ele>
        <time>2012-08-20T08:10:17.000Z</time>
      </trkpt>
      <trkpt lat="48.72312" lon="1.69816">
        <ele>115.19999694824</ele>
        <time>2012-08-20T08:10:26.000Z</time>
      </trkpt>
      <trkpt lat="48.72307" lon="1.69799">
        <ele>115.59999847412</ele>
        <time>2012-08-20T08:10:35.000Z</time>
      </trkpt>
      <trkpt lat="48.723" lon="1.69779">
        <ele>116.19999694824</ele>
        <time>2012-08-20T08:10:45.000Z</time>
      </trkpt>
      <trkpt lat="48.72295" lon="1.69764">
        <ele>116.59999847412</ele>
        <time>2012-08-20T08:10:54.000Z</time>
      </trkpt>
      <trkpt lat="48.72291" lon="1.69751">
        <ele>117</ele>
        <time>2012-08-20T08:11:01.000Z</time>
      </trkpt>
      <trkpt lat="48.72284" lon="1.69734">
        <ele>117</ele>
        <time>2012-08-20T08:11:11.000Z</time>
      </trkpt>
      <trkpt lat="48.7228" lon="1.69724">
        <ele>117</ele>
        <time>2012-08-20T08:11:18.000Z</time>
      </trkpt>
      <trkpt lat="48.72275" lon="1.69709">
        <ele>117</ele>
        <time>2012-08-20T08:11:27.000Z</time>
      </trkpt>
      <trkpt lat="48.7227" lon="1.69694">
        <ele>116.80000305176</ele>
        <time>2012-08-20T08:11:35.000Z</time>
      </trkpt>
      <trkpt lat="48.72265" lon="1.69683">
        <ele>116.80000305176</ele>
        <time>2012-08-20T08:11:43.000Z</time>
      </trkpt>
      <trkpt lat="48.72257" lon="1.69664">
        <ele>116.80000305176</ele>
        <time>2012-08-20T08:11:52.000Z</time>
      </trkpt>
      <trkpt lat="48.72248" lon="1.69646">
        <ele>117.40000152588</ele>
        <time>2012-08-20T08:12:02.000Z</time>
      </trkpt>
      <trkpt lat="48.72241" lon="1.69631">
        <ele>118</ele>
        <time>2012-08-20T08:12:11.000Z</time>
      </trkpt>
      <trkpt lat="48.72234" lon="1.69618">
        <ele>118.59999847412</ele>
        <time>2012-08-20T08:12:19.000Z</time>
      </trkpt>
      <trkpt lat="48.72228" lon="1.69603">
        <ele>119.19999694824</ele>
        <time>2012-08-20T08:12:27.000Z</time>
      </trkpt>
      <trkpt lat="48.72221" lon="1.69584">
        <ele>120</ele>
        <time>2012-08-20T08:12:37.000Z</time>
      </trkpt>
      <trkpt lat="48.72211" lon="1.69561">
        <ele>121.59999847412</ele>
        <time>2012-08-20T08:12:50.000Z</time>
      </trkpt>
      <trkpt lat="48.72204" lon="1.69543">
        <ele>122.59999847412</ele>
        <time>2012-08-20T08:13:00.000Z</time>
      </trkpt>
      <trkpt lat="48.72199" lon="1.69538">
        <ele>123</ele>
        <time>2012-08-20T08:13:06.000Z</time>
      </trkpt>
      <trkpt lat="48.72191" lon="1.69536">
        <ele>123.40000152588</ele>
        <time>2012-08-20T08:13:13.000Z</time>
      </trkpt>
      <trkpt lat="48.72189" lon="1.69535">
        <ele>123.59999847412</ele>
        <time>2012-08-20T08:13:15.000Z</time>
      </trkpt>
      <trkpt lat="48.7218" lon="1.69534">
        <ele>124</ele>
        <time>2012-08-20T08:13:24.000Z</time>
      </trkpt>
      <trkpt lat="48.7217" lon="1.69534">
        <ele>124.40000152588</ele>
        <time>2012-08-20T08:13:31.000Z</time>
      </trkpt>
      <trkpt lat="48.72168" lon="1.69534">
        <ele>124.59999847412</ele>
        <time>2012-08-20T08:13:33.000Z</time>
      </trkpt>
      <trkpt lat="48.7216" lon="1.69533">
        <ele>124.59999847412</ele>
        <time>2012-08-20T08:13:38.000Z</time>
      </trkpt>
      <trkpt lat="48.72148" lon="1.69532">
        <ele>124.59999847412</ele>
        <time>2012-08-20T08:13:47.000Z</time>
      </trkpt>
      <trkpt lat="48.7214" lon="1.69533">
        <ele>124.80000305176</ele>
        <time>2012-08-20T08:13:54.000Z</time>
      </trkpt>
      <trkpt lat="48.72137" lon="1.69533">
        <ele>124.80000305176</ele>
        <time>2012-08-20T08:13:58.000Z</time>
      </trkpt>
      <trkpt lat="48.7213" lon="1.69535">
        <ele>124.80000305176</ele>
        <time>2012-08-20T08:14:05.000Z</time>
      </trkpt>
      <trkpt lat="48.72127" lon="1.69536">
        <ele>124.80000305176</ele>
        <time>2012-08-20T08:14:07.000Z</time>
      </trkpt>
      <trkpt lat="48.72117" lon="1.69536">
        <ele>124.80000305176</ele>
        <time>2012-08-20T08:14:15.000Z</time>
      </trkpt>
      <trkpt lat="48.72115" lon="1.69536">
        <ele>124.80000305176</ele>
        <time>2012-08-20T08:14:17.000Z</time>
      </trkpt>
      <trkpt lat="48.721" lon="1.69537">
        <ele>125</ele>
        <time>2012-08-20T08:14:28.000Z</time>
      </trkpt>
      <trkpt lat="48.7209" lon="1.69538">
        <ele>125</ele>
        <time>2012-08-20T08:14:36.000Z</time>
      </trkpt>
      <trkpt lat="48.72076" lon="1.6954">
        <ele>125.19999694824</ele>
        <time>2012-08-20T08:14:46.000Z</time>
      </trkpt>
      <trkpt lat="48.72063" lon="1.69541">
        <ele>125.40000152588</ele>
        <time>2012-08-20T08:14:55.000Z</time>
      </trkpt>
      <trkpt lat="48.7206" lon="1.69541">
        <ele>125.40000152588</ele>
        <time>2012-08-20T08:14:57.000Z</time>
      </trkpt>
      <trkpt lat="48.72055" lon="1.69543">
        <ele>125.59999847412</ele>
        <time>2012-08-20T08:15:02.000Z</time>
      </trkpt>
      <trkpt lat="48.72043" lon="1.69541">
        <ele>125.80000305176</ele>
        <time>2012-08-20T08:15:11.000Z</time>
      </trkpt>
      <trkpt lat="48.7203" lon="1.69542">
        <ele>126</ele>
        <time>2012-08-20T08:15:20.000Z</time>
      </trkpt>
      <trkpt lat="48.7202" lon="1.69543">
        <ele>126.19999694824</ele>
        <time>2012-08-20T08:15:27.000Z</time>
      </trkpt>
      <trkpt lat="48.72017" lon="1.69543">
        <ele>126.19999694824</ele>
        <time>2012-08-20T08:15:29.000Z</time>
      </trkpt>
      <trkpt lat="48.72008" lon="1.69546">
        <ele>126.40000152588</ele>
        <time>2012-08-20T08:15:35.000Z</time>
      </trkpt>
      <trkpt lat="48.71995" lon="1.69544">
        <ele>126.59999847412</ele>
        <time>2012-08-20T08:15:44.000Z</time>
      </trkpt>
      <trkpt lat="48.71994" lon="1.69544">
        <ele>126.59999847412</ele>
        <time>2012-08-20T08:15:45.000Z</time>
      </trkpt>
      <trkpt lat="48.71983" lon="1.69545">
        <ele>127</ele>
        <time>2012-08-20T08:15:53.000Z</time>
      </trkpt>
      <trkpt lat="48.71972" lon="1.69547">
        <ele>127.19999694824</ele>
        <time>2012-08-20T08:16:00.000Z</time>
      </trkpt>
      <trkpt lat="48.71962" lon="1.69549">
        <ele>127.59999847412</ele>
        <time>2012-08-20T08:16:07.000Z</time>
      </trkpt>
      <trkpt lat="48.7195" lon="1.69551">
        <ele>128</ele>
        <time>2012-08-20T08:16:16.000Z</time>
      </trkpt>
      <trkpt lat="48.7194" lon="1.69551">
        <ele>128.19999694824</ele>
        <time>2012-08-20T08:16:22.000Z</time>
      </trkpt>
      <trkpt lat="48.71927" lon="1.69552">
        <ele>128.60000610352</ele>
        <time>2012-08-20T08:16:31.000Z</time>
      </trkpt>
      <trkpt lat="48.71913" lon="1.69554">
        <ele>129</ele>
        <time>2012-08-20T08:16:41.000Z</time>
      </trkpt>
      <trkpt lat="48.71903" lon="1.69554">
        <ele>129.19999694824</ele>
        <time>2012-08-20T08:16:48.000Z</time>
      </trkpt>
      <trkpt lat="48.71893" lon="1.69553">
        <ele>129.19999694824</ele>
        <time>2012-08-20T08:16:56.000Z</time>
      </trkpt>
      <trkpt lat="48.71881" lon="1.69551">
        <ele>129.39999389648</ele>
        <time>2012-08-20T08:17:03.000Z</time>
      </trkpt>
      <trkpt lat="48.71871" lon="1.69551">
        <ele>129.60000610352</ele>
        <time>2012-08-20T08:17:10.000Z</time>
      </trkpt>
      <trkpt lat="48.71862" lon="1.69551">
        <ele>129.80000305176</ele>
        <time>2012-08-20T08:17:17.000Z</time>
      </trkpt>
      <trkpt lat="48.71851" lon="1.69552">
        <ele>130</ele>
        <time>2012-08-20T08:17:25.000Z</time>
      </trkpt>
      <trkpt lat="48.71842" lon="1.69552">
        <ele>130</ele>
        <time>2012-08-20T08:17:32.000Z</time>
      </trkpt>
      <trkpt lat="48.71833" lon="1.69553">
        <ele>130.19999694824</ele>
        <time>2012-08-20T08:17:39.000Z</time>
      </trkpt>
      <trkpt lat="48.71824" lon="1.69554">
        <ele>130</ele>
        <time>2012-08-20T08:17:46.000Z</time>
      </trkpt>
      <trkpt lat="48.71812" lon="1.69555">
        <ele>129.80000305176</ele>
        <time>2012-08-20T08:17:54.000Z</time>
      </trkpt>
      <trkpt lat="48.71811" lon="1.69555">
        <ele>129.60000610352</ele>
        <time>2012-08-20T08:17:55.000Z</time>
      </trkpt>
      <trkpt lat="48.71803" lon="1.69554">
        <ele>129.39999389648</ele>
        <time>2012-08-20T08:18:02.000Z</time>
      </trkpt>
      <trkpt lat="48.71794" lon="1.69554">
        <ele>129.19999694824</ele>
        <time>2012-08-20T08:18:06.000Z</time>
      </trkpt>
      <trkpt lat="48.71774" lon="1.69556">
        <ele>128.60000610352</ele>
        <time>2012-08-20T08:18:12.000Z</time>
      </trkpt>
      <trkpt lat="48.71753" lon="1.69559">
        <ele>128</ele>
        <time>2012-08-20T08:18:19.000Z</time>
      </trkpt>
      <trkpt lat="48.71731" lon="1.69562">
        <ele>129</ele>
        <time>2012-08-20T08:18:26.000Z</time>
      </trkpt>
      <trkpt lat="48.71716" lon="1.69563">
        <ele>129.80000305176</ele>
        <time>2012-08-20T08:18:31.000Z</time>
      </trkpt>
      <trkpt lat="48.71702" lon="1.69562">
        <ele>130.39999389648</ele>
        <time>2012-08-20T08:18:36.000Z</time>
      </trkpt>
      <trkpt lat="48.71689" lon="1.69563">
        <ele>131.19999694824</ele>
        <time>2012-08-20T08:18:41.000Z</time>
      </trkpt>
      <trkpt lat="48.71672" lon="1.69567">
        <ele>132.19999694824</ele>
        <time>2012-08-20T08:18:46.000Z</time>
      </trkpt>
      <trkpt lat="48.71653" lon="1.69569">
        <ele>133</ele>
        <time>2012-08-20T08:18:52.000Z</time>
      </trkpt>
      <trkpt lat="48.71642" lon="1.69571">
        <ele>133.60000610352</ele>
        <time>2012-08-20T08:18:57.000Z</time>
      </trkpt>
      <trkpt lat="48.71631" lon="1.69571">
        <ele>134</ele>
        <time>2012-08-20T08:19:04.000Z</time>
      </trkpt>
      <trkpt lat="48.71615" lon="1.69573">
        <ele>134.60000610352</ele>
        <time>2012-08-20T08:19:15.000Z</time>
      </trkpt>
      <trkpt lat="48.716" lon="1.69574">
        <ele>135.19999694824</ele>
        <time>2012-08-20T08:19:26.000Z</time>
      </trkpt>
      <trkpt lat="48.71588" lon="1.69574">
        <ele>135.80000305176</ele>
        <time>2012-08-20T08:19:35.000Z</time>
      </trkpt>
      <trkpt lat="48.71577" lon="1.69575">
        <ele>136.19999694824</ele>
        <time>2012-08-20T08:19:43.000Z</time>
      </trkpt>
      <trkpt lat="48.71564" lon="1.69576">
        <ele>136.80000305176</ele>
        <time>2012-08-20T08:19:52.000Z</time>
      </trkpt>
      <trkpt lat="48.71551" lon="1.69576">
        <ele>137.60000610352</ele>
        <time>2012-08-20T08:20:01.000Z</time>
      </trkpt>
      <trkpt lat="48.7154" lon="1.69577">
        <ele>138</ele>
        <time>2012-08-20T08:20:09.000Z</time>
      </trkpt>
      <trkpt lat="48.71527" lon="1.69576">
        <ele>138.60000610352</ele>
        <time>2012-08-20T08:20:18.000Z</time>
      </trkpt>
      <trkpt lat="48.71511" lon="1.69577">
        <ele>139.39999389648</ele>
        <time>2012-08-20T08:20:29.000Z</time>
      </trkpt>
      <trkpt lat="48.71504" lon="1.69577">
        <ele>139.80000305176</ele>
        <time>2012-08-20T08:20:34.000Z</time>
      </trkpt>
      <trkpt lat="48.71497" lon="1.69577">
        <ele>140.19999694824</ele>
        <time>2012-08-20T08:20:39.000Z</time>
      </trkpt>
      <trkpt lat="48.71482" lon="1.69578">
        <ele>141.19999694824</ele>
        <time>2012-08-20T08:20:49.000Z</time>
      </trkpt>
      <trkpt lat="48.71472" lon="1.69579">
        <ele>142</ele>
        <time>2012-08-20T08:20:56.000Z</time>
      </trkpt>
      <trkpt lat="48.71466" lon="1.69579">
        <ele>142.39999389648</ele>
        <time>2012-08-20T08:21:01.000Z</time>
      </trkpt>
      <trkpt lat="48.7146" lon="1.69584">
        <ele>142.80000305176</ele>
        <time>2012-08-20T08:21:06.000Z</time>
      </trkpt>
      <trkpt lat="48.71452" lon="1.69584">
        <ele>143.39999389648</ele>
        <time>2012-08-20T08:21:11.000Z</time>
      </trkpt>
      <trkpt lat="48.71434" lon="1.69584">
        <ele>144.80000305176</ele>
        <time>2012-08-20T08:21:23.000Z</time>
      </trkpt>
      <trkpt lat="48.71421" lon="1.69586">
        <ele>145.60000610352</ele>
        <time>2012-08-20T08:21:29.000Z</time>
      </trkpt>
      <trkpt lat="48.71405" lon="1.69586">
        <ele>146.39999389648</ele>
        <time>2012-08-20T08:21:34.000Z</time>
      </trkpt>
      <trkpt lat="48.71386" lon="1.69587">
        <ele>147</ele>
        <time>2012-08-20T08:21:40.000Z</time>
      </trkpt>
      <trkpt lat="48.71367" lon="1.69587">
        <ele>147.80000305176</ele>
        <time>2012-08-20T08:21:46.000Z</time>
      </trkpt>
      <trkpt lat="48.71357" lon="1.69589">
        <ele>148</ele>
        <time>2012-08-20T08:21:51.000Z</time>
      </trkpt>
      <trkpt lat="48.71344" lon="1.69592">
        <ele>148.60000610352</ele>
        <time>2012-08-20T08:22:00.000Z</time>
      </trkpt>
      <trkpt lat="48.71335" lon="1.69593">
        <ele>148.80000305176</ele>
        <time>2012-08-20T08:22:06.000Z</time>
      </trkpt>
      <trkpt lat="48.71329" lon="1.69592">
        <ele>149.19999694824</ele>
        <time>2012-08-20T08:22:10.000Z</time>
      </trkpt>
      <trkpt lat="48.71314" lon="1.69591">
        <ele>150</ele>
        <time>2012-08-20T08:22:20.000Z</time>
      </trkpt>
      <trkpt lat="48.71303" lon="1.69592">
        <ele>150.60000610352</ele>
        <time>2012-08-20T08:22:28.000Z</time>
      </trkpt>
      <trkpt lat="48.71301" lon="1.69594">
        <ele>150.60000610352</ele>
        <time>2012-08-20T08:22:30.000Z</time>
      </trkpt>
      <trkpt lat="48.71298" lon="1.69596">
        <ele>150.80000305176</ele>
        <time>2012-08-20T08:22:33.000Z</time>
      </trkpt>
      <trkpt lat="48.71287" lon="1.69595">
        <ele>151.39999389648</ele>
        <time>2012-08-20T08:22:41.000Z</time>
      </trkpt>
      <trkpt lat="48.71286" lon="1.69595">
        <ele>151.60000610352</ele>
        <time>2012-08-20T08:22:43.000Z</time>
      </trkpt>
      <trkpt lat="48.71281" lon="1.69595">
        <ele>151.80000305176</ele>
        <time>2012-08-20T08:22:49.000Z</time>
      </trkpt>
      <trkpt lat="48.71293" lon="1.69599">
        <ele>151</ele>
        <time>2012-08-20T08:23:09.000Z</time>
      </trkpt>
      <trkpt lat="48.71299" lon="1.696">
        <ele>150.60000610352</ele>
        <time>2012-08-20T08:23:13.000Z</time>
      </trkpt>
      <trkpt lat="48.71304" lon="1.69603">
        <ele>150.39999389648</ele>
        <time>2012-08-20T08:23:19.000Z</time>
      </trkpt>
      <trkpt lat="48.71305" lon="1.69608">
        <ele>150.19999694824</ele>
        <time>2012-08-20T08:23:22.000Z</time>
      </trkpt>
      <trkpt lat="48.71305" lon="1.69628">
        <ele>149.80000305176</ele>
        <time>2012-08-20T08:23:32.000Z</time>
      </trkpt>
      <trkpt lat="48.71307" lon="1.69647">
        <ele>149.39999389648</ele>
        <time>2012-08-20T08:23:40.000Z</time>
      </trkpt>
      <trkpt lat="48.71305" lon="1.69669">
        <ele>149</ele>
        <time>2012-08-20T08:23:50.000Z</time>
      </trkpt>
      <trkpt lat="48.71303" lon="1.69694">
        <ele>148.19999694824</ele>
        <time>2012-08-20T08:24:00.000Z</time>
      </trkpt>
      <trkpt lat="48.71303" lon="1.69717">
        <ele>147.19999694824</ele>
        <time>2012-08-20T08:24:10.000Z</time>
      </trkpt>
      <trkpt lat="48.71303" lon="1.6974">
        <ele>146.39999389648</ele>
        <time>2012-08-20T08:24:19.000Z</time>
      </trkpt>
      <trkpt lat="48.71303" lon="1.69763">
        <ele>146</ele>
        <time>2012-08-20T08:24:29.000Z</time>
      </trkpt>
      <trkpt lat="48.71303" lon="1.69785">
        <ele>145.60000610352</ele>
        <time>2012-08-20T08:24:38.000Z</time>
      </trkpt>
      <trkpt lat="48.71302" lon="1.6981">
        <ele>145.39999389648</ele>
        <time>2012-08-20T08:24:48.000Z</time>
      </trkpt>
      <trkpt lat="48.71302" lon="1.69834">
        <ele>145.19999694824</ele>
        <time>2012-08-20T08:24:58.000Z</time>
      </trkpt>
      <trkpt lat="48.71302" lon="1.69852">
        <ele>144.80000305176</ele>
        <time>2012-08-20T08:25:06.000Z</time>
      </trkpt>
      <trkpt lat="48.71303" lon="1.69874">
        <ele>144.39999389648</ele>
        <time>2012-08-20T08:25:15.000Z</time>
      </trkpt>
      <trkpt lat="48.71304" lon="1.69888">
        <ele>144</ele>
        <time>2012-08-20T08:25:21.000Z</time>
      </trkpt>
      <trkpt lat="48.71305" lon="1.69917">
        <ele>143.39999389648</ele>
        <time>2012-08-20T08:25:32.000Z</time>
      </trkpt>
      <trkpt lat="48.71306" lon="1.69934">
        <ele>143</ele>
        <time>2012-08-20T08:25:39.000Z</time>
      </trkpt>
      <trkpt lat="48.71311" lon="1.69937">
        <ele>142.60000610352</ele>
        <time>2012-08-20T08:25:45.000Z</time>
      </trkpt>
      <trkpt lat="48.71314" lon="1.69937">
        <ele>142.60000610352</ele>
        <time>2012-08-20T08:25:47.000Z</time>
      </trkpt>
      <trkpt lat="48.71326" lon="1.69931">
        <ele>142</ele>
        <time>2012-08-20T08:25:57.000Z</time>
      </trkpt>
      <trkpt lat="48.71339" lon="1.69924">
        <ele>141.60000610352</ele>
        <time>2012-08-20T08:26:06.000Z</time>
      </trkpt>
      <trkpt lat="48.71354" lon="1.69917">
        <ele>141</ele>
        <time>2012-08-20T08:26:16.000Z</time>
      </trkpt>
      <trkpt lat="48.71366" lon="1.69912">
        <ele>140.39999389648</ele>
        <time>2012-08-20T08:26:25.000Z</time>
      </trkpt>
      <trkpt lat="48.71385" lon="1.69904">
        <ele>139.60000610352</ele>
        <time>2012-08-20T08:26:38.000Z</time>
      </trkpt>
      <trkpt lat="48.71402" lon="1.69896">
        <ele>138.60000610352</ele>
        <time>2012-08-20T08:26:50.000Z</time>
      </trkpt>
      <trkpt lat="48.71417" lon="1.6989">
        <ele>137.60000610352</ele>
        <time>2012-08-20T08:27:00.000Z</time>
      </trkpt>
      <trkpt lat="48.71436" lon="1.69882">
        <ele>137.19999694824</ele>
        <time>2012-08-20T08:27:12.000Z</time>
      </trkpt>
      <trkpt lat="48.71449" lon="1.69877">
        <ele>137</ele>
        <time>2012-08-20T08:27:21.000Z</time>
      </trkpt>
      <trkpt lat="48.71462" lon="1.69871">
        <ele>136.60000610352</ele>
        <time>2012-08-20T08:27:30.000Z</time>
      </trkpt>
      <trkpt lat="48.71477" lon="1.69862">
        <ele>136.39999389648</ele>
        <time>2012-08-20T08:27:40.000Z</time>
      </trkpt>
      <trkpt lat="48.71492" lon="1.69857">
        <ele>136.19999694824</ele>
        <time>2012-08-20T08:27:51.000Z</time>
      </trkpt>
      <trkpt lat="48.71506" lon="1.6985">
        <ele>135.80000305176</ele>
        <time>2012-08-20T08:28:01.000Z</time>
      </trkpt>
      <trkpt lat="48.71518" lon="1.69843">
        <ele>135.60000610352</ele>
        <time>2012-08-20T08:28:10.000Z</time>
      </trkpt>
      <trkpt lat="48.71528" lon="1.69839">
        <ele>135.39999389648</ele>
        <time>2012-08-20T08:28:17.000Z</time>
      </trkpt>
      <trkpt lat="48.71538" lon="1.69835">
        <ele>135</ele>
        <time>2012-08-20T08:28:24.000Z</time>
      </trkpt>
      <trkpt lat="48.71542" lon="1.69833">
        <ele>135</ele>
        <time>2012-08-20T08:28:27.000Z</time>
      </trkpt>
      <trkpt lat="48.71549" lon="1.6983">
        <ele>135</ele>
        <time>2012-08-20T08:28:32.000Z</time>
      </trkpt>
      <trkpt lat="48.71558" lon="1.69826">
        <ele>134.80000305176</ele>
        <time>2012-08-20T08:28:39.000Z</time>
      </trkpt>
      <trkpt lat="48.7157" lon="1.69822">
        <ele>134.60000610352</ele>
        <time>2012-08-20T08:28:48.000Z</time>
      </trkpt>
      <trkpt lat="48.71582" lon="1.69817">
        <ele>134.39999389648</ele>
        <time>2012-08-20T08:28:57.000Z</time>
      </trkpt>
      <trkpt lat="48.71592" lon="1.69812">
        <ele>134.19999694824</ele>
        <time>2012-08-20T08:29:05.000Z</time>
      </trkpt>
      <trkpt lat="48.71602" lon="1.69808">
        <ele>134</ele>
        <time>2012-08-20T08:29:13.000Z</time>
      </trkpt>
      <trkpt lat="48.71611" lon="1.69805">
        <ele>134</ele>
        <time>2012-08-20T08:29:20.000Z</time>
      </trkpt>
      <trkpt lat="48.71621" lon="1.69799">
        <ele>133.80000305176</ele>
        <time>2012-08-20T08:29:26.000Z</time>
      </trkpt>
      <trkpt lat="48.71631" lon="1.69794">
        <ele>133.60000610352</ele>
        <time>2012-08-20T08:29:32.000Z</time>
      </trkpt>
      <trkpt lat="48.7164" lon="1.69791">
        <ele>133.19999694824</ele>
        <time>2012-08-20T08:29:38.000Z</time>
      </trkpt>
      <trkpt lat="48.71647" lon="1.6979">
        <ele>133.19999694824</ele>
        <time>2012-08-20T08:29:43.000Z</time>
      </trkpt>
      <trkpt lat="48.71656" lon="1.69785">
        <ele>133</ele>
        <time>2012-08-20T08:29:50.000Z</time>
      </trkpt>
      <trkpt lat="48.71668" lon="1.69779">
        <ele>132.60000610352</ele>
        <time>2012-08-20T08:29:58.000Z</time>
      </trkpt>
      <trkpt lat="48.71683" lon="1.69773">
        <ele>131.80000305176</ele>
        <time>2012-08-20T08:30:08.000Z</time>
      </trkpt>
      <trkpt lat="48.71688" lon="1.69776">
        <ele>131.60000610352</ele>
        <time>2012-08-20T08:30:12.000Z</time>
      </trkpt>
      <trkpt lat="48.7169" lon="1.69779">
        <ele>131.39999389648</ele>
        <time>2012-08-20T08:30:14.000Z</time>
      </trkpt>
      <trkpt lat="48.71694" lon="1.69793">
        <ele>131.19999694824</ele>
        <time>2012-08-20T08:30:21.000Z</time>
      </trkpt>
      <trkpt lat="48.71698" lon="1.69807">
        <ele>131</ele>
        <time>2012-08-20T08:30:27.000Z</time>
      </trkpt>
      <trkpt lat="48.71699" lon="1.69817">
        <ele>130.80000305176</ele>
        <time>2012-08-20T08:30:30.000Z</time>
      </trkpt>
      <trkpt lat="48.71703" lon="1.6984">
        <ele>130.60000610352</ele>
        <time>2012-08-20T08:30:35.000Z</time>
      </trkpt>
      <trkpt lat="48.71707" lon="1.69868">
        <ele>130.39999389648</ele>
        <time>2012-08-20T08:30:41.000Z</time>
      </trkpt>
      <trkpt lat="48.71711" lon="1.69892">
        <ele>130.19999694824</ele>
        <time>2012-08-20T08:30:46.000Z</time>
      </trkpt>
      <trkpt lat="48.71717" lon="1.69912">
        <ele>130</ele>
        <time>2012-08-20T08:30:50.000Z</time>
      </trkpt>
      <trkpt lat="48.7172" lon="1.69939">
        <ele>129.60000610352</ele>
        <time>2012-08-20T08:30:56.000Z</time>
      </trkpt>
      <trkpt lat="48.71722" lon="1.69952">
        <ele>129.19999694824</ele>
        <time>2012-08-20T08:30:59.000Z</time>
      </trkpt>
      <trkpt lat="48.71724" lon="1.69967">
        <ele>129</ele>
        <time>2012-08-20T08:31:02.000Z</time>
      </trkpt>
      <trkpt lat="48.71728" lon="1.69984">
        <ele>128.60000610352</ele>
        <time>2012-08-20T08:31:08.000Z</time>
      </trkpt>
      <trkpt lat="48.7173" lon="1.69998">
        <ele>128.19999694824</ele>
        <time>2012-08-20T08:31:14.000Z</time>
      </trkpt>
      <trkpt lat="48.7173" lon="1.70002">
        <ele>128.19999694824</ele>
        <time>2012-08-20T08:31:18.000Z</time>
      </trkpt>
      <trkpt lat="48.71734" lon="1.69993">
        <ele>128.39999389648</ele>
        <time>2012-08-20T08:31:45.000Z</time>
      </trkpt>
      <trkpt lat="48.71738" lon="1.7">
        <ele>128.19999694824</ele>
        <time>2012-08-20T08:31:49.000Z</time>
      </trkpt>
      <trkpt lat="48.71737" lon="1.70003">
        <ele>128</ele>
        <time>2012-08-20T08:31:51.000Z</time>
      </trkpt>
      <trkpt lat="48.71734" lon="1.70009">
        <ele>128</ele>
        <time>2012-08-20T08:31:57.000Z</time>
      </trkpt>
      <trkpt lat="48.71734" lon="1.70034">
        <ele>127.59999847412</ele>
        <time>2012-08-20T08:32:24.000Z</time>
      </trkpt>
      <trkpt lat="48.71735" lon="1.70044">
        <ele>127.40000152588</ele>
        <time>2012-08-20T08:32:28.000Z</time>
      </trkpt>
      <trkpt lat="48.71736" lon="1.70052">
        <ele>127.19999694824</ele>
        <time>2012-08-20T08:32:32.000Z</time>
      </trkpt>
      <trkpt lat="48.71738" lon="1.70072">
        <ele>126.59999847412</ele>
        <time>2012-08-20T08:32:40.000Z</time>
      </trkpt>
      <trkpt lat="48.71739" lon="1.70079">
        <ele>126.40000152588</ele>
        <time>2012-08-20T08:32:43.000Z</time>
      </trkpt>
      <trkpt lat="48.71742" lon="1.70093">
        <ele>126.19999694824</ele>
        <time>2012-08-20T08:32:49.000Z</time>
      </trkpt>
      <trkpt lat="48.71746" lon="1.70115">
        <ele>125.80000305176</ele>
        <time>2012-08-20T08:32:58.000Z</time>
      </trkpt>
      <trkpt lat="48.71748" lon="1.70134">
        <ele>125.59999847412</ele>
        <time>2012-08-20T08:33:06.000Z</time>
      </trkpt>
      <trkpt lat="48.71751" lon="1.70153">
        <ele>125.19999694824</ele>
        <time>2012-08-20T08:33:14.000Z</time>
      </trkpt>
      <trkpt lat="48.71755" lon="1.70166">
        <ele>124.80000305176</ele>
        <time>2012-08-20T08:33:20.000Z</time>
      </trkpt>
      <trkpt lat="48.71758" lon="1.70179">
        <ele>124.59999847412</ele>
        <time>2012-08-20T08:33:26.000Z</time>
      </trkpt>
      <trkpt lat="48.71758" lon="1.70188">
        <ele>124.40000152588</ele>
        <time>2012-08-20T08:33:32.000Z</time>
      </trkpt>
      <trkpt lat="48.71759" lon="1.70198">
        <ele>124.19999694824</ele>
        <time>2012-08-20T08:33:37.000Z</time>
      </trkpt>
      <trkpt lat="48.71762" lon="1.70215">
        <ele>124</ele>
        <time>2012-08-20T08:33:45.000Z</time>
      </trkpt>
      <trkpt lat="48.71765" lon="1.70227">
        <ele>123.59999847412</ele>
        <time>2012-08-20T08:33:52.000Z</time>
      </trkpt>
      <trkpt lat="48.71766" lon="1.70233">
        <ele>123.40000152588</ele>
        <time>2012-08-20T08:33:55.000Z</time>
      </trkpt>
      <trkpt lat="48.71769" lon="1.70239">
        <ele>123.19999694824</ele>
        <time>2012-08-20T08:33:59.000Z</time>
      </trkpt>
      <trkpt lat="48.71771" lon="1.70244">
        <ele>123</ele>
        <time>2012-08-20T08:34:02.000Z</time>
      </trkpt>
      <trkpt lat="48.71773" lon="1.7026">
        <ele>122.80000305176</ele>
        <time>2012-08-20T08:34:10.000Z</time>
      </trkpt>
      <trkpt lat="48.71776" lon="1.7027">
        <ele>122.59999847412</ele>
        <time>2012-08-20T08:34:15.000Z</time>
      </trkpt>
      <trkpt lat="48.71777" lon="1.7029">
        <ele>122.40000152588</ele>
        <time>2012-08-20T08:34:22.000Z</time>
      </trkpt>
      <trkpt lat="48.71778" lon="1.70308">
        <ele>122.19999694824</ele>
        <time>2012-08-20T08:34:28.000Z</time>
      </trkpt>
      <trkpt lat="48.71779" lon="1.70316">
        <ele>122.19999694824</ele>
        <time>2012-08-20T08:34:31.000Z</time>
      </trkpt>
      <trkpt lat="48.71779" lon="1.70334">
        <ele>122</ele>
        <time>2012-08-20T08:34:38.000Z</time>
      </trkpt>
      <trkpt lat="48.7178" lon="1.70336">
        <ele>122</ele>
        <time>2012-08-20T08:34:39.000Z</time>
      </trkpt>
      <trkpt lat="48.71782" lon="1.70354">
        <ele>122.40000152588</ele>
        <time>2012-08-20T08:34:47.000Z</time>
      </trkpt>
      <trkpt lat="48.71785" lon="1.70369">
        <ele>122.80000305176</ele>
        <time>2012-08-20T08:34:54.000Z</time>
      </trkpt>
      <trkpt lat="48.71787" lon="1.70379">
        <ele>123</ele>
        <time>2012-08-20T08:34:59.000Z</time>
      </trkpt>
      <trkpt lat="48.71788" lon="1.70383">
        <ele>123</ele>
        <time>2012-08-20T08:35:01.000Z</time>
      </trkpt>
      <trkpt lat="48.71789" lon="1.70399">
        <ele>123.40000152588</ele>
        <time>2012-08-20T08:35:08.000Z</time>
      </trkpt>
      <trkpt lat="48.7179" lon="1.70408">
        <ele>123.80000305176</ele>
        <time>2012-08-20T08:35:14.000Z</time>
      </trkpt>
      <trkpt lat="48.71792" lon="1.70419">
        <ele>124</ele>
        <time>2012-08-20T08:35:20.000Z</time>
      </trkpt>
      <trkpt lat="48.71795" lon="1.70435">
        <ele>124.59999847412</ele>
        <time>2012-08-20T08:35:27.000Z</time>
      </trkpt>
      <trkpt lat="48.71798" lon="1.70449">
        <ele>125.19999694824</ele>
        <time>2012-08-20T08:35:33.000Z</time>
      </trkpt>
      <trkpt lat="48.718" lon="1.70465">
        <ele>125.59999847412</ele>
        <time>2012-08-20T08:35:40.000Z</time>
      </trkpt>
      <trkpt lat="48.718" lon="1.70471">
        <ele>125.80000305176</ele>
        <time>2012-08-20T08:35:43.000Z</time>
      </trkpt>
      <trkpt lat="48.71802" lon="1.70482">
        <ele>126</ele>
        <time>2012-08-20T08:35:50.000Z</time>
      </trkpt>
      <trkpt lat="48.71809" lon="1.70505">
        <ele>127</ele>
        <time>2012-08-20T08:35:59.000Z</time>
      </trkpt>
      <trkpt lat="48.71813" lon="1.70526">
        <ele>127.59999847412</ele>
        <time>2012-08-20T08:36:04.000Z</time>
      </trkpt>
      <trkpt lat="48.71816" lon="1.7055">
        <ele>128.19999694824</ele>
        <time>2012-08-20T08:36:09.000Z</time>
      </trkpt>
      <trkpt lat="48.7182" lon="1.70575">
        <ele>128.80000305176</ele>
        <time>2012-08-20T08:36:14.000Z</time>
      </trkpt>
      <trkpt lat="48.71823" lon="1.70598">
        <ele>129.19999694824</ele>
        <time>2012-08-20T08:36:20.000Z</time>
      </trkpt>
      <trkpt lat="48.71826" lon="1.70619">
        <ele>129.39999389648</ele>
        <time>2012-08-20T08:36:28.000Z</time>
      </trkpt>
      <trkpt lat="48.71827" lon="1.70628">
        <ele>129.60000610352</ele>
        <time>2012-08-20T08:36:35.000Z</time>
      </trkpt>
      <trkpt lat="48.71828" lon="1.7064">
        <ele>129.60000610352</ele>
        <time>2012-08-20T08:36:47.000Z</time>
      </trkpt>
      <trkpt lat="48.71829" lon="1.70648">
        <ele>129.80000305176</ele>
        <time>2012-08-20T08:36:50.000Z</time>
      </trkpt>
      <trkpt lat="48.7183" lon="1.70657">
        <ele>129.80000305176</ele>
        <time>2012-08-20T08:36:54.000Z</time>
      </trkpt>
      <trkpt lat="48.71833" lon="1.7067">
        <ele>130</ele>
        <time>2012-08-20T08:37:00.000Z</time>
      </trkpt>
      <trkpt lat="48.71835" lon="1.70679">
        <ele>130.39999389648</ele>
        <time>2012-08-20T08:37:04.000Z</time>
      </trkpt>
      <trkpt lat="48.71836" lon="1.70686">
        <ele>130.60000610352</ele>
        <time>2012-08-20T08:37:07.000Z</time>
      </trkpt>
      <trkpt lat="48.71839" lon="1.70705">
        <ele>131</ele>
        <time>2012-08-20T08:37:16.000Z</time>
      </trkpt>
      <trkpt lat="48.71841" lon="1.7072">
        <ele>131.39999389648</ele>
        <time>2012-08-20T08:37:23.000Z</time>
      </trkpt>
      <trkpt lat="48.71844" lon="1.70742">
        <ele>132</ele>
        <time>2012-08-20T08:37:32.000Z</time>
      </trkpt>
      <trkpt lat="48.71847" lon="1.7076">
        <ele>132</ele>
        <time>2012-08-20T08:37:40.000Z</time>
      </trkpt>
      <trkpt lat="48.71851" lon="1.70775">
        <ele>132</ele>
        <time>2012-08-20T08:37:47.000Z</time>
      </trkpt>
      <trkpt lat="48.71853" lon="1.70788">
        <ele>131.80000305176</ele>
        <time>2012-08-20T08:37:54.000Z</time>
      </trkpt>
      <trkpt lat="48.71856" lon="1.70808">
        <ele>131.60000610352</ele>
        <time>2012-08-20T08:38:01.000Z</time>
      </trkpt>
      <trkpt lat="48.71861" lon="1.70836">
        <ele>131.19999694824</ele>
        <time>2012-08-20T08:38:07.000Z</time>
      </trkpt>
      <trkpt lat="48.71865" lon="1.70856">
        <ele>130.39999389648</ele>
        <time>2012-08-20T08:38:12.000Z</time>
      </trkpt>
      <trkpt lat="48.71867" lon="1.7087">
        <ele>130</ele>
        <time>2012-08-20T08:38:18.000Z</time>
      </trkpt>
      <trkpt lat="48.7187" lon="1.70888">
        <ele>129.19999694824</ele>
        <time>2012-08-20T08:38:25.000Z</time>
      </trkpt>
      <trkpt lat="48.71872" lon="1.70908">
        <ele>128.39999389648</ele>
        <time>2012-08-20T08:38:32.000Z</time>
      </trkpt>
      <trkpt lat="48.71872" lon="1.70916">
        <ele>128</ele>
        <time>2012-08-20T08:38:35.000Z</time>
      </trkpt>
      <trkpt lat="48.71873" lon="1.70925">
        <ele>128</ele>
        <time>2012-08-20T08:38:39.000Z</time>
      </trkpt>
      <trkpt lat="48.71877" lon="1.7094">
        <ele>127.80000305176</ele>
        <time>2012-08-20T08:38:46.000Z</time>
      </trkpt>
      <trkpt lat="48.71878" lon="1.70957">
        <ele>127.80000305176</ele>
        <time>2012-08-20T08:38:53.000Z</time>
      </trkpt>
      <trkpt lat="48.7188" lon="1.70973">
        <ele>127.59999847412</ele>
        <time>2012-08-20T08:39:00.000Z</time>
      </trkpt>
      <trkpt lat="48.71881" lon="1.70977">
        <ele>127.59999847412</ele>
        <time>2012-08-20T08:39:02.000Z</time>
      </trkpt>
      <trkpt lat="48.71883" lon="1.70983">
        <ele>127.59999847412</ele>
        <time>2012-08-20T08:39:06.000Z</time>
      </trkpt>
      <trkpt lat="48.71886" lon="1.71002">
        <ele>127.40000152588</ele>
        <time>2012-08-20T08:39:14.000Z</time>
      </trkpt>
      <trkpt lat="48.71889" lon="1.71024">
        <ele>128</ele>
        <time>2012-08-20T08:39:22.000Z</time>
      </trkpt>
      <trkpt lat="48.71892" lon="1.71038">
        <ele>128.19999694824</ele>
        <time>2012-08-20T08:39:28.000Z</time>
      </trkpt>
      <trkpt lat="48.71893" lon="1.71052">
        <ele>128.60000610352</ele>
        <time>2012-08-20T08:39:35.000Z</time>
      </trkpt>
      <trkpt lat="48.71893" lon="1.71051">
        <ele>128.60000610352</ele>
        <time>2012-08-20T08:39:40.000Z</time>
      </trkpt>
      <trkpt lat="48.71893" lon="1.71055">
        <ele>128.60000610352</ele>
        <time>2012-08-20T08:39:45.000Z</time>
      </trkpt>
      <trkpt lat="48.71898" lon="1.71078">
        <ele>129</ele>
        <time>2012-08-20T08:39:49.000Z</time>
      </trkpt>
      <trkpt lat="48.71901" lon="1.71104">
        <ele>129</ele>
        <time>2012-08-20T08:39:54.000Z</time>
      </trkpt>
      <trkpt lat="48.71906" lon="1.71131">
        <ele>128.80000305176</ele>
        <time>2012-08-20T08:39:59.000Z</time>
      </trkpt>
      <trkpt lat="48.71911" lon="1.71163">
        <ele>128.80000305176</ele>
        <time>2012-08-20T08:40:05.000Z</time>
      </trkpt>
      <trkpt lat="48.71914" lon="1.7118">
        <ele>128.60000610352</ele>
        <time>2012-08-20T08:40:12.000Z</time>
      </trkpt>
      <trkpt lat="48.71916" lon="1.71185">
        <ele>128.60000610352</ele>
        <time>2012-08-20T08:40:15.000Z</time>
      </trkpt>
      <trkpt lat="48.71917" lon="1.71194">
        <ele>128.39999389648</ele>
        <time>2012-08-20T08:40:21.000Z</time>
      </trkpt>
      <trkpt lat="48.71923" lon="1.71206">
        <ele>128.19999694824</ele>
        <time>2012-08-20T08:40:43.000Z</time>
      </trkpt>
      <trkpt lat="48.71923" lon="1.71208">
        <ele>128</ele>
        <time>2012-08-20T08:40:47.000Z</time>
      </trkpt>
      <trkpt lat="48.71919" lon="1.71203">
        <ele>128.19999694824</ele>
        <time>2012-08-20T08:40:52.000Z</time>
      </trkpt>
      <trkpt lat="48.71917" lon="1.71202">
        <ele>128.19999694824</ele>
        <time>2012-08-20T08:40:54.000Z</time>
      </trkpt>
      <trkpt lat="48.7191" lon="1.71199">
        <ele>128</ele>
        <time>2012-08-20T08:41:01.000Z</time>
      </trkpt>
      <trkpt lat="48.71908" lon="1.712">
        <ele>128</ele>
        <time>2012-08-20T08:41:02.000Z</time>
      </trkpt>
      <trkpt lat="48.71906" lon="1.71203">
        <ele>127.80000305176</ele>
        <time>2012-08-20T08:41:07.000Z</time>
      </trkpt>
      <trkpt lat="48.71912" lon="1.71194">
        <ele>128.19999694824</ele>
        <time>2012-08-20T08:41:26.000Z</time>
      </trkpt>
      <trkpt lat="48.71908" lon="1.71172">
        <ele>128.60000610352</ele>
        <time>2012-08-20T08:41:35.000Z</time>
      </trkpt>
      <trkpt lat="48.71905" lon="1.71153">
        <ele>128.60000610352</ele>
        <time>2012-08-20T08:41:44.000Z</time>
      </trkpt>
      <trkpt lat="48.71903" lon="1.71137">
        <ele>128.80000305176</ele>
        <time>2012-08-20T08:41:51.000Z</time>
      </trkpt>
      <trkpt lat="48.71899" lon="1.71121">
        <ele>128.80000305176</ele>
        <time>2012-08-20T08:41:58.000Z</time>
      </trkpt>
      <trkpt lat="48.71897" lon="1.71095">
        <ele>129.19999694824</ele>
        <time>2012-08-20T08:42:09.000Z</time>
      </trkpt>
      <trkpt lat="48.71892" lon="1.71068">
        <ele>129</ele>
        <time>2012-08-20T08:42:15.000Z</time>
      </trkpt>
      <trkpt lat="48.71885" lon="1.71028">
        <ele>128</ele>
        <time>2012-08-20T08:42:22.000Z</time>
      </trkpt>
      <trkpt lat="48.71881" lon="1.71003">
        <ele>127.59999847412</ele>
        <time>2012-08-20T08:42:26.000Z</time>
      </trkpt>
      <trkpt lat="48.71879" lon="1.70984">
        <ele>127.59999847412</ele>
        <time>2012-08-20T08:42:29.000Z</time>
      </trkpt>
      <trkpt lat="48.71876" lon="1.70958">
        <ele>127.80000305176</ele>
        <time>2012-08-20T08:42:33.000Z</time>
      </trkpt>
      <trkpt lat="48.71874" lon="1.70944">
        <ele>127.80000305176</ele>
        <time>2012-08-20T08:42:35.000Z</time>
      </trkpt>
      <trkpt lat="48.71868" lon="1.70902">
        <ele>128.60000610352</ele>
        <time>2012-08-20T08:42:40.000Z</time>
      </trkpt>
      <trkpt lat="48.71858" lon="1.70835">
        <ele>131.19999694824</ele>
        <time>2012-08-20T08:42:47.000Z</time>
      </trkpt>
      <trkpt lat="48.71848" lon="1.7078">
        <ele>131.80000305176</ele>
        <time>2012-08-20T08:42:53.000Z</time>
      </trkpt>
      <trkpt lat="48.71838" lon="1.70727">
        <ele>131.60000610352</ele>
        <time>2012-08-20T08:42:59.000Z</time>
      </trkpt>
      <trkpt lat="48.71834" lon="1.70694">
        <ele>130.60000610352</ele>
        <time>2012-08-20T08:43:04.000Z</time>
      </trkpt>
      <trkpt lat="48.71832" lon="1.7068">
        <ele>130.39999389648</ele>
        <time>2012-08-20T08:43:07.000Z</time>
      </trkpt>
      <trkpt lat="48.71827" lon="1.70656">
        <ele>129.80000305176</ele>
        <time>2012-08-20T08:43:13.000Z</time>
      </trkpt>
      <trkpt lat="48.71827" lon="1.70643">
        <ele>129.80000305176</ele>
        <time>2012-08-20T08:43:18.000Z</time>
      </trkpt>
      <trkpt lat="48.71829" lon="1.70634">
        <ele>129.60000610352</ele>
        <time>2012-08-20T08:43:23.000Z</time>
      </trkpt>
      <trkpt lat="48.71833" lon="1.70628">
        <ele>129.60000610352</ele>
        <time>2012-08-20T08:43:29.000Z</time>
      </trkpt>
      <trkpt lat="48.71838" lon="1.70613">
        <ele>129.39999389648</ele>
        <time>2012-08-20T08:43:36.000Z</time>
      </trkpt>
      <trkpt lat="48.71845" lon="1.70596">
        <ele>129.39999389648</ele>
        <time>2012-08-20T08:43:46.000Z</time>
      </trkpt>
      <trkpt lat="48.7185" lon="1.70583">
        <ele>129.19999694824</ele>
        <time>2012-08-20T08:43:53.000Z</time>
      </trkpt>
      <trkpt lat="48.71855" lon="1.70568">
        <ele>129</ele>
        <time>2012-08-20T08:44:01.000Z</time>
      </trkpt>
      <trkpt lat="48.71856" lon="1.70567">
        <ele>129</ele>
        <time>2012-08-20T08:44:04.000Z</time>
      </trkpt>
      <trkpt lat="48.71864" lon="1.70562">
        <ele>129</ele>
        <time>2012-08-20T08:44:15.000Z</time>
      </trkpt>
      <trkpt lat="48.71869" lon="1.70556">
        <ele>129</ele>
        <time>2012-08-20T08:44:20.000Z</time>
      </trkpt>
      <trkpt lat="48.71873" lon="1.70551">
        <ele>128.80000305176</ele>
        <time>2012-08-20T08:44:26.000Z</time>
      </trkpt>
      <trkpt lat="48.7188" lon="1.7054">
        <ele>128.80000305176</ele>
        <time>2012-08-20T08:44:34.000Z</time>
      </trkpt>
      <trkpt lat="48.7189" lon="1.70529">
        <ele>128.60000610352</ele>
        <time>2012-08-20T08:44:41.000Z</time>
      </trkpt>
      <trkpt lat="48.71898" lon="1.7052">
        <ele>128.39999389648</ele>
        <time>2012-08-20T08:44:49.000Z</time>
      </trkpt>
      <trkpt lat="48.71905" lon="1.70511">
        <ele>128.19999694824</ele>
        <time>2012-08-20T08:44:56.000Z</time>
      </trkpt>
      <trkpt lat="48.7191" lon="1.70505">
        <ele>128.19999694824</ele>
        <time>2012-08-20T08:45:02.000Z</time>
      </trkpt>
      <trkpt lat="48.71917" lon="1.70496">
        <ele>128</ele>
        <time>2012-08-20T08:45:08.000Z</time>
      </trkpt>
      <trkpt lat="48.71931" lon="1.70483">
        <ele>127.40000152588</ele>
        <time>2012-08-20T08:45:18.000Z</time>
      </trkpt>
      <trkpt lat="48.71942" lon="1.7047">
        <ele>127.19999694824</ele>
        <time>2012-08-20T08:45:27.000Z</time>
      </trkpt>
      <trkpt lat="48.7195" lon="1.70461">
        <ele>127</ele>
        <time>2012-08-20T08:45:33.000Z</time>
      </trkpt>
      <trkpt lat="48.7196" lon="1.70448">
        <ele>126.80000305176</ele>
        <time>2012-08-20T08:45:42.000Z</time>
      </trkpt>
      <trkpt lat="48.7197" lon="1.70439">
        <ele>126.80000305176</ele>
        <time>2012-08-20T08:45:49.000Z</time>
      </trkpt>
      <trkpt lat="48.71978" lon="1.7043">
        <ele>126.80000305176</ele>
        <time>2012-08-20T08:45:57.000Z</time>
      </trkpt>
      <trkpt lat="48.71987" lon="1.7042">
        <ele>126.80000305176</ele>
        <time>2012-08-20T08:46:04.000Z</time>
      </trkpt>
      <trkpt lat="48.71996" lon="1.7041">
        <ele>126.80000305176</ele>
        <time>2012-08-20T08:46:11.000Z</time>
      </trkpt>
      <trkpt lat="48.72005" lon="1.70398">
        <ele>126.59999847412</ele>
        <time>2012-08-20T08:46:19.000Z</time>
      </trkpt>
      <trkpt lat="48.72016" lon="1.70387">
        <ele>126.40000152588</ele>
        <time>2012-08-20T08:46:28.000Z</time>
      </trkpt>
      <trkpt lat="48.72019" lon="1.70385">
        <ele>126.40000152588</ele>
        <time>2012-08-20T08:46:30.000Z</time>
      </trkpt>
      <trkpt lat="48.72028" lon="1.70374">
        <ele>126.40000152588</ele>
        <time>2012-08-20T08:46:38.000Z</time>
      </trkpt>
      <trkpt lat="48.72034" lon="1.70366">
        <ele>126.19999694824</ele>
        <time>2012-08-20T08:46:43.000Z</time>
      </trkpt>
      <trkpt lat="48.72041" lon="1.70358">
        <ele>126</ele>
        <time>2012-08-20T08:46:49.000Z</time>
      </trkpt>
      <trkpt lat="48.72051" lon="1.70348">
        <ele>126</ele>
        <time>2012-08-20T08:46:56.000Z</time>
      </trkpt>
      <trkpt lat="48.72059" lon="1.70339">
        <ele>125.80000305176</ele>
        <time>2012-08-20T08:47:03.000Z</time>
      </trkpt>
      <trkpt lat="48.72068" lon="1.7033">
        <ele>125.80000305176</ele>
        <time>2012-08-20T08:47:09.000Z</time>
      </trkpt>
      <trkpt lat="48.72078" lon="1.7032">
        <ele>125.59999847412</ele>
        <time>2012-08-20T08:47:17.000Z</time>
      </trkpt>
      <trkpt lat="48.72083" lon="1.70315">
        <ele>125.59999847412</ele>
        <time>2012-08-20T08:47:21.000Z</time>
      </trkpt>
      <trkpt lat="48.72087" lon="1.70308">
        <ele>125.19999694824</ele>
        <time>2012-08-20T08:47:25.000Z</time>
      </trkpt>
      <trkpt lat="48.72093" lon="1.70299">
        <ele>124.59999847412</ele>
        <time>2012-08-20T08:47:31.000Z</time>
      </trkpt>
      <trkpt lat="48.72105" lon="1.70285">
        <ele>123.80000305176</ele>
        <time>2012-08-20T08:47:40.000Z</time>
      </trkpt>
      <trkpt lat="48.72113" lon="1.70277">
        <ele>123.40000152588</ele>
        <time>2012-08-20T08:47:46.000Z</time>
      </trkpt>
      <trkpt lat="48.72123" lon="1.70266">
        <ele>123</ele>
        <time>2012-08-20T08:47:54.000Z</time>
      </trkpt>
      <trkpt lat="48.72125" lon="1.70265">
        <ele>123</ele>
        <time>2012-08-20T08:47:55.000Z</time>
      </trkpt>
      <trkpt lat="48.72129" lon="1.70259">
        <ele>122.80000305176</ele>
        <time>2012-08-20T08:48:01.000Z</time>
      </trkpt>
      <trkpt lat="48.72132" lon="1.70257">
        <ele>122.80000305176</ele>
        <time>2012-08-20T08:48:04.000Z</time>
      </trkpt>
      <trkpt lat="48.72141" lon="1.70248">
        <ele>122.59999847412</ele>
        <time>2012-08-20T08:48:10.000Z</time>
      </trkpt>
      <trkpt lat="48.72143" lon="1.70246">
        <ele>122.40000152588</ele>
        <time>2012-08-20T08:48:11.000Z</time>
      </trkpt>
      <trkpt lat="48.7215" lon="1.70237">
        <ele>122.19999694824</ele>
        <time>2012-08-20T08:48:17.000Z</time>
      </trkpt>
      <trkpt lat="48.72151" lon="1.70235">
        <ele>122</ele>
        <time>2012-08-20T08:48:18.000Z</time>
      </trkpt>
      <trkpt lat="48.72162" lon="1.70223">
        <ele>121.40000152588</ele>
        <time>2012-08-20T08:48:26.000Z</time>
      </trkpt>
      <trkpt lat="48.72166" lon="1.70218">
        <ele>121.19999694824</ele>
        <time>2012-08-20T08:48:30.000Z</time>
      </trkpt>
      <trkpt lat="48.72174" lon="1.70209">
        <ele>121.19999694824</ele>
        <time>2012-08-20T08:48:38.000Z</time>
      </trkpt>
      <trkpt lat="48.7218" lon="1.70201">
        <ele>121</ele>
        <time>2012-08-20T08:48:44.000Z</time>
      </trkpt>
      <trkpt lat="48.72187" lon="1.70193">
        <ele>121</ele>
        <time>2012-08-20T08:48:50.000Z</time>
      </trkpt>
      <trkpt lat="48.72196" lon="1.70182">
        <ele>121</ele>
        <time>2012-08-20T08:48:58.000Z</time>
      </trkpt>
      <trkpt lat="48.72204" lon="1.70172">
        <ele>121</ele>
        <time>2012-08-20T08:49:04.000Z</time>
      </trkpt>
      <trkpt lat="48.72219" lon="1.70157">
        <ele>120.80000305176</ele>
        <time>2012-08-20T08:49:12.000Z</time>
      </trkpt>
      <trkpt lat="48.72229" lon="1.70145">
        <ele>120.40000152588</ele>
        <time>2012-08-20T08:49:20.000Z</time>
      </trkpt>
      <trkpt lat="48.72235" lon="1.70138">
        <ele>120</ele>
        <time>2012-08-20T08:49:26.000Z</time>
      </trkpt>
      <trkpt lat="48.72243" lon="1.70129">
        <ele>119.59999847412</ele>
        <time>2012-08-20T08:49:33.000Z</time>
      </trkpt>
      <trkpt lat="48.72248" lon="1.70121">
        <ele>119.19999694824</ele>
        <time>2012-08-20T08:49:39.000Z</time>
      </trkpt>
      <trkpt lat="48.72256" lon="1.70114">
        <ele>118.80000305176</ele>
        <time>2012-08-20T08:49:45.000Z</time>
      </trkpt>
      <trkpt lat="48.72257" lon="1.70112">
        <ele>118.80000305176</ele>
        <time>2012-08-20T08:49:49.000Z</time>
      </trkpt>
      <trkpt lat="48.72254" lon="1.7011">
        <ele>118.59999847412</ele>
        <time>2012-08-20T08:50:36.000Z</time>
      </trkpt>
      <trkpt lat="48.72251" lon="1.70116">
        <ele>119</ele>
        <time>2012-08-20T08:50:42.000Z</time>
      </trkpt>
      <trkpt lat="48.72249" lon="1.70123">
        <ele>119.40000152588</ele>
        <time>2012-08-20T08:50:47.000Z</time>
      </trkpt>
      <trkpt lat="48.72242" lon="1.70133">
        <ele>120</ele>
        <time>2012-08-20T08:50:55.000Z</time>
      </trkpt>
      <trkpt lat="48.72238" lon="1.70136">
        <ele>120</ele>
        <time>2012-08-20T08:50:59.000Z</time>
      </trkpt>
      <trkpt lat="48.72229" lon="1.70146">
        <ele>120.40000152588</ele>
        <time>2012-08-20T08:51:06.000Z</time>
      </trkpt>
      <trkpt lat="48.72227" lon="1.70148">
        <ele>120.59999847412</ele>
        <time>2012-08-20T08:51:08.000Z</time>
      </trkpt>
      <trkpt lat="48.72219" lon="1.70157">
        <ele>120.80000305176</ele>
        <time>2012-08-20T08:51:15.000Z</time>
      </trkpt>
      <trkpt lat="48.72214" lon="1.70164">
        <ele>121</ele>
        <time>2012-08-20T08:51:20.000Z</time>
      </trkpt>
      <trkpt lat="48.72211" lon="1.70168">
        <ele>121</ele>
        <time>2012-08-20T08:51:22.000Z</time>
      </trkpt>
      <trkpt lat="48.72207" lon="1.70172">
        <ele>121</ele>
        <time>2012-08-20T08:51:26.000Z</time>
      </trkpt>
      <trkpt lat="48.72198" lon="1.70181">
        <ele>121</ele>
        <time>2012-08-20T08:51:33.000Z</time>
      </trkpt>
      <trkpt lat="48.7219" lon="1.70191">
        <ele>121</ele>
        <time>2012-08-20T08:51:40.000Z</time>
      </trkpt>
      <trkpt lat="48.72187" lon="1.70195">
        <ele>121</ele>
        <time>2012-08-20T08:51:42.000Z</time>
      </trkpt>
      <trkpt lat="48.72175" lon="1.70207">
        <ele>121</ele>
        <time>2012-08-20T08:51:50.000Z</time>
      </trkpt>
      <trkpt lat="48.72164" lon="1.70218">
        <ele>121.40000152588</ele>
        <time>2012-08-20T08:51:54.000Z</time>
      </trkpt>
      <trkpt lat="48.72153" lon="1.70231">
        <ele>122</ele>
        <time>2012-08-20T08:51:58.000Z</time>
      </trkpt>
      <trkpt lat="48.72137" lon="1.70244">
        <ele>122.59999847412</ele>
        <time>2012-08-20T08:52:03.000Z</time>
      </trkpt>
      <trkpt lat="48.72123" lon="1.70245">
        <ele>123</ele>
        <time>2012-08-20T08:52:08.000Z</time>
      </trkpt>
      <trkpt lat="48.72119" lon="1.70244">
        <ele>123</ele>
        <time>2012-08-20T08:52:10.000Z</time>
      </trkpt>
      <trkpt lat="48.72091" lon="1.70239">
        <ele>123.59999847412</ele>
        <time>2012-08-20T08:52:17.000Z</time>
      </trkpt>
      <trkpt lat="48.72077" lon="1.70243">
        <ele>123.80000305176</ele>
        <time>2012-08-20T08:52:20.000Z</time>
      </trkpt>
      <trkpt lat="48.72044" lon="1.70255">
        <ele>123.59999847412</ele>
        <time>2012-08-20T08:52:28.000Z</time>
      </trkpt>
      <trkpt lat="48.7204" lon="1.70258">
        <ele>123.59999847412</ele>
        <time>2012-08-20T08:52:29.000Z</time>
      </trkpt>
      <trkpt lat="48.72033" lon="1.70264">
        <ele>123.80000305176</ele>
        <time>2012-08-20T08:52:31.000Z</time>
      </trkpt>
      <trkpt lat="48.7202" lon="1.70275">
        <ele>123.80000305176</ele>
        <time>2012-08-20T08:52:35.000Z</time>
      </trkpt>
      <trkpt lat="48.72003" lon="1.7029">
        <ele>124</ele>
        <time>2012-08-20T08:52:42.000Z</time>
      </trkpt>
      <trkpt lat="48.72003" lon="1.7029">
        <ele>124</ele>
        <time>2012-08-20T08:52:43.000Z</time>
      </trkpt>
      <trkpt lat="48.71997" lon="1.70296">
        <ele>124</ele>
        <time>2012-08-20T08:52:49.000Z</time>
      </trkpt>
      <trkpt lat="48.71996" lon="1.70299">
        <ele>124</ele>
        <time>2012-08-20T08:52:53.000Z</time>
      </trkpt>
      <trkpt lat="48.71981" lon="1.70313">
        <ele>124</ele>
        <time>2012-08-20T08:53:19.000Z</time>
      </trkpt>
      <trkpt lat="48.71978" lon="1.70315">
        <ele>124</ele>
        <time>2012-08-20T08:53:20.000Z</time>
      </trkpt>
      <trkpt lat="48.71971" lon="1.70321">
        <ele>124</ele>
        <time>2012-08-20T08:53:26.000Z</time>
      </trkpt>
      <trkpt lat="48.71957" lon="1.70334">
        <ele>124</ele>
        <time>2012-08-20T08:53:33.000Z</time>
      </trkpt>
      <trkpt lat="48.71948" lon="1.70341">
        <ele>124</ele>
        <time>2012-08-20T08:53:39.000Z</time>
      </trkpt>
      <trkpt lat="48.71939" lon="1.70348">
        <ele>124</ele>
        <time>2012-08-20T08:53:46.000Z</time>
      </trkpt>
      <trkpt lat="48.71928" lon="1.70355">
        <ele>124</ele>
        <time>2012-08-20T08:53:53.000Z</time>
      </trkpt>
      <trkpt lat="48.71922" lon="1.70362">
        <ele>124.19999694824</ele>
        <time>2012-08-20T08:53:59.000Z</time>
      </trkpt>
      <trkpt lat="48.71922" lon="1.70364">
        <ele>124.19999694824</ele>
        <time>2012-08-20T08:54:00.000Z</time>
      </trkpt>
      <trkpt lat="48.71915" lon="1.70387">
        <ele>125</ele>
        <time>2012-08-20T08:54:10.000Z</time>
      </trkpt>
      <trkpt lat="48.71907" lon="1.70411">
        <ele>125.80000305176</ele>
        <time>2012-08-20T08:54:15.000Z</time>
      </trkpt>
      <trkpt lat="48.71905" lon="1.70414">
        <ele>126</ele>
        <time>2012-08-20T08:54:16.000Z</time>
      </trkpt>
      <trkpt lat="48.71903" lon="1.70416">
        <ele>126</ele>
        <time>2012-08-20T08:54:18.000Z</time>
      </trkpt>
      <trkpt lat="48.71904" lon="1.70416">
        <ele>126</ele>
        <time>2012-08-20T08:54:20.000Z</time>
      </trkpt>
      <trkpt lat="48.71901" lon="1.70427">
        <ele>126.19999694824</ele>
        <time>2012-08-20T08:54:25.000Z</time>
      </trkpt>
      <trkpt lat="48.71898" lon="1.70443">
        <ele>126.59999847412</ele>
        <time>2012-08-20T08:54:32.000Z</time>
      </trkpt>
      <trkpt lat="48.7189" lon="1.70464">
        <ele>127.19999694824</ele>
        <time>2012-08-20T08:54:42.000Z</time>
      </trkpt>
      <trkpt lat="48.71886" lon="1.70475">
        <ele>127.40000152588</ele>
        <time>2012-08-20T08:54:48.000Z</time>
      </trkpt>
      <trkpt lat="48.71881" lon="1.70491">
        <ele>127.80000305176</ele>
        <time>2012-08-20T08:54:56.000Z</time>
      </trkpt>
      <trkpt lat="48.71876" lon="1.70503">
        <ele>128</ele>
        <time>2012-08-20T08:55:02.000Z</time>
      </trkpt>
      <trkpt lat="48.71871" lon="1.70516">
        <ele>128.19999694824</ele>
        <time>2012-08-20T08:55:08.000Z</time>
      </trkpt>
      <trkpt lat="48.71865" lon="1.7053">
        <ele>128.60000610352</ele>
        <time>2012-08-20T08:55:15.000Z</time>
      </trkpt>
      <trkpt lat="48.71861" lon="1.70544">
        <ele>128.80000305176</ele>
        <time>2012-08-20T08:55:22.000Z</time>
      </trkpt>
      <trkpt lat="48.71856" lon="1.70562">
        <ele>129</ele>
        <time>2012-08-20T08:55:29.000Z</time>
      </trkpt>
      <trkpt lat="48.71851" lon="1.70577">
        <ele>129.19999694824</ele>
        <time>2012-08-20T08:55:35.000Z</time>
      </trkpt>
      <trkpt lat="48.71844" lon="1.70598">
        <ele>129.39999389648</ele>
        <time>2012-08-20T08:55:44.000Z</time>
      </trkpt>
      <trkpt lat="48.71837" lon="1.70618">
        <ele>129.39999389648</ele>
        <time>2012-08-20T08:55:53.000Z</time>
      </trkpt>
      <trkpt lat="48.71831" lon="1.70628">
        <ele>129.60000610352</ele>
        <time>2012-08-20T08:55:59.000Z</time>
      </trkpt>
      <trkpt lat="48.71828" lon="1.70626">
        <ele>129.60000610352</ele>
        <time>2012-08-20T08:56:02.000Z</time>
      </trkpt>
      <trkpt lat="48.71822" lon="1.70612">
        <ele>129.39999389648</ele>
        <time>2012-08-20T08:56:08.000Z</time>
      </trkpt>
      <trkpt lat="48.71818" lon="1.70596">
        <ele>129.19999694824</ele>
        <time>2012-08-20T08:56:13.000Z</time>
      </trkpt>
      <trkpt lat="48.71814" lon="1.70572">
        <ele>128.80000305176</ele>
        <time>2012-08-20T08:56:20.000Z</time>
      </trkpt>
      <trkpt lat="48.71811" lon="1.70553">
        <ele>128.19999694824</ele>
        <time>2012-08-20T08:56:25.000Z</time>
      </trkpt>
      <trkpt lat="48.71808" lon="1.70537">
        <ele>127.80000305176</ele>
        <time>2012-08-20T08:56:29.000Z</time>
      </trkpt>
      <trkpt lat="48.71804" lon="1.70512">
        <ele>127</ele>
        <time>2012-08-20T08:56:35.000Z</time>
      </trkpt>
      <trkpt lat="48.71801" lon="1.70493">
        <ele>126.19999694824</ele>
        <time>2012-08-20T08:56:40.000Z</time>
      </trkpt>
      <trkpt lat="48.71799" lon="1.70474">
        <ele>125.80000305176</ele>
        <time>2012-08-20T08:56:46.000Z</time>
      </trkpt>
      <trkpt lat="48.71797" lon="1.70455">
        <ele>125.19999694824</ele>
        <time>2012-08-20T08:56:54.000Z</time>
      </trkpt>
      <trkpt lat="48.71794" lon="1.70438">
        <ele>124.59999847412</ele>
        <time>2012-08-20T08:57:01.000Z</time>
      </trkpt>
      <trkpt lat="48.71791" lon="1.70418">
        <ele>124</ele>
        <time>2012-08-20T08:57:09.000Z</time>
      </trkpt>
      <trkpt lat="48.71788" lon="1.70401">
        <ele>123.59999847412</ele>
        <time>2012-08-20T08:57:16.000Z</time>
      </trkpt>
      <trkpt lat="48.71785" lon="1.70384">
        <ele>123</ele>
        <time>2012-08-20T08:57:23.000Z</time>
      </trkpt>
      <trkpt lat="48.71782" lon="1.70367">
        <ele>122.59999847412</ele>
        <time>2012-08-20T08:57:30.000Z</time>
      </trkpt>
      <trkpt lat="48.7178" lon="1.7035">
        <ele>122.19999694824</ele>
        <time>2012-08-20T08:57:37.000Z</time>
      </trkpt>
      <trkpt lat="48.71777" lon="1.7034">
        <ele>122</ele>
        <time>2012-08-20T08:57:41.000Z</time>
      </trkpt>
      <trkpt lat="48.71776" lon="1.70328">
        <ele>122</ele>
        <time>2012-08-20T08:57:46.000Z</time>
      </trkpt>
      <trkpt lat="48.71775" lon="1.70316">
        <ele>122.19999694824</ele>
        <time>2012-08-20T08:57:51.000Z</time>
      </trkpt>
      <trkpt lat="48.7177" lon="1.70297">
        <ele>122.40000152588</ele>
        <time>2012-08-20T08:57:59.000Z</time>
      </trkpt>
      <trkpt lat="48.71768" lon="1.70279">
        <ele>122.80000305176</ele>
        <time>2012-08-20T08:58:07.000Z</time>
      </trkpt>
      <trkpt lat="48.71767" lon="1.70264">
        <ele>123</ele>
        <time>2012-08-20T08:58:14.000Z</time>
      </trkpt>
      <trkpt lat="48.71763" lon="1.70251">
        <ele>123.40000152588</ele>
        <time>2012-08-20T08:58:20.000Z</time>
      </trkpt>
      <trkpt lat="48.7176" lon="1.70233">
        <ele>123.80000305176</ele>
        <time>2012-08-20T08:58:26.000Z</time>
      </trkpt>
      <trkpt lat="48.71758" lon="1.70215">
        <ele>124</ele>
        <time>2012-08-20T08:58:30.000Z</time>
      </trkpt>
      <trkpt lat="48.71754" lon="1.70184">
        <ele>124.59999847412</ele>
        <time>2012-08-20T08:58:36.000Z</time>
      </trkpt>
      <trkpt lat="48.71751" lon="1.70162">
        <ele>125</ele>
        <time>2012-08-20T08:58:41.000Z</time>
      </trkpt>
      <trkpt lat="48.71747" lon="1.70145">
        <ele>125.40000152588</ele>
        <time>2012-08-20T08:58:46.000Z</time>
      </trkpt>
      <trkpt lat="48.71743" lon="1.70122">
        <ele>125.80000305176</ele>
        <time>2012-08-20T08:58:51.000Z</time>
      </trkpt>
      <trkpt lat="48.71737" lon="1.70089">
        <ele>126.40000152588</ele>
        <time>2012-08-20T08:58:57.000Z</time>
      </trkpt>
      <trkpt lat="48.71736" lon="1.70068">
        <ele>126.80000305176</ele>
        <time>2012-08-20T08:59:02.000Z</time>
      </trkpt>
      <trkpt lat="48.71732" lon="1.70052">
        <ele>127.19999694824</ele>
        <time>2012-08-20T08:59:06.000Z</time>
      </trkpt>
      <trkpt lat="48.71731" lon="1.70037">
        <ele>127.59999847412</ele>
        <time>2012-08-20T08:59:10.000Z</time>
      </trkpt>
      <trkpt lat="48.71737" lon="1.70026">
        <ele>127.59999847412</ele>
        <time>2012-08-20T08:59:17.000Z</time>
      </trkpt>
      <trkpt lat="48.71738" lon="1.70019">
        <ele>127.80000305176</ele>
        <time>2012-08-20T08:59:21.000Z</time>
      </trkpt>
      <trkpt lat="48.71738" lon="1.70014">
        <ele>127.80000305176</ele>
        <time>2012-08-20T08:59:25.000Z</time>
      </trkpt>
      <trkpt lat="48.71734" lon="1.70007">
        <ele>128</ele>
        <time>2012-08-20T08:59:31.000Z</time>
      </trkpt>
      <trkpt lat="48.71726" lon="1.69995">
        <ele>128.39999389648</ele>
        <time>2012-08-20T08:59:37.000Z</time>
      </trkpt>
      <trkpt lat="48.71724" lon="1.69985">
        <ele>128.60000610352</ele>
        <time>2012-08-20T08:59:41.000Z</time>
      </trkpt>
      <trkpt lat="48.71722" lon="1.69973">
        <ele>128.80000305176</ele>
        <time>2012-08-20T08:59:47.000Z</time>
      </trkpt>
      <trkpt lat="48.71719" lon="1.69958">
        <ele>129.19999694824</ele>
        <time>2012-08-20T08:59:54.000Z</time>
      </trkpt>
      <trkpt lat="48.71716" lon="1.69939">
        <ele>129.60000610352</ele>
        <time>2012-08-20T09:00:02.000Z</time>
      </trkpt>
      <trkpt lat="48.71715" lon="1.69933">
        <ele>129.60000610352</ele>
        <time>2012-08-20T09:00:04.000Z</time>
      </trkpt>
      <trkpt lat="48.71712" lon="1.69917">
        <ele>130</ele>
        <time>2012-08-20T09:00:10.000Z</time>
      </trkpt>
      <trkpt lat="48.7171" lon="1.69908">
        <ele>130</ele>
        <time>2012-08-20T09:00:14.000Z</time>
      </trkpt>
      <trkpt lat="48.71707" lon="1.69887">
        <ele>130.19999694824</ele>
        <time>2012-08-20T09:00:24.000Z</time>
      </trkpt>
      <trkpt lat="48.71706" lon="1.69871">
        <ele>130.39999389648</ele>
        <time>2012-08-20T09:00:31.000Z</time>
      </trkpt>
      <trkpt lat="48.71703" lon="1.69855">
        <ele>130.60000610352</ele>
        <time>2012-08-20T09:00:38.000Z</time>
      </trkpt>
      <trkpt lat="48.71702" lon="1.6985">
        <ele>130.60000610352</ele>
        <time>2012-08-20T09:00:40.000Z</time>
      </trkpt>
      <trkpt lat="48.71697" lon="1.69829">
        <ele>131</ele>
        <time>2012-08-20T09:00:49.000Z</time>
      </trkpt>
      <trkpt lat="48.71692" lon="1.69811">
        <ele>131.19999694824</ele>
        <time>2012-08-20T09:00:57.000Z</time>
      </trkpt>
      <trkpt lat="48.7169" lon="1.69795">
        <ele>131.39999389648</ele>
        <time>2012-08-20T09:01:04.000Z</time>
      </trkpt>
      <trkpt lat="48.71687" lon="1.69779">
        <ele>131.60000610352</ele>
        <time>2012-08-20T09:01:09.000Z</time>
      </trkpt>
      <trkpt lat="48.71685" lon="1.69774">
        <ele>131.80000305176</ele>
        <time>2012-08-20T09:01:14.000Z</time>
      </trkpt>
      <trkpt lat="48.7168" lon="1.69771">
        <ele>132</ele>
        <time>2012-08-20T09:01:18.000Z</time>
      </trkpt>
      <trkpt lat="48.71666" lon="1.69777">
        <ele>132.60000610352</ele>
        <time>2012-08-20T09:01:28.000Z</time>
      </trkpt>
      <trkpt lat="48.71659" lon="1.69781">
        <ele>132.80000305176</ele>
        <time>2012-08-20T09:01:33.000Z</time>
      </trkpt>
      <trkpt lat="48.71646" lon="1.69784">
        <ele>133.19999694824</ele>
        <time>2012-08-20T09:01:39.000Z</time>
      </trkpt>
      <trkpt lat="48.7163" lon="1.69793">
        <ele>133.60000610352</ele>
        <time>2012-08-20T09:01:45.000Z</time>
      </trkpt>
      <trkpt lat="48.71616" lon="1.69801">
        <ele>133.80000305176</ele>
        <time>2012-08-20T09:01:51.000Z</time>
      </trkpt>
      <trkpt lat="48.71605" lon="1.69805">
        <ele>134</ele>
        <time>2012-08-20T09:01:59.000Z</time>
      </trkpt>
      <trkpt lat="48.71597" lon="1.69808">
        <ele>134.19999694824</ele>
        <time>2012-08-20T09:02:05.000Z</time>
      </trkpt>
      <trkpt lat="48.71589" lon="1.69811">
        <ele>134.39999389648</ele>
        <time>2012-08-20T09:02:11.000Z</time>
      </trkpt>
      <trkpt lat="48.71576" lon="1.69817">
        <ele>134.60000610352</ele>
        <time>2012-08-20T09:02:20.000Z</time>
      </trkpt>
      <trkpt lat="48.71564" lon="1.69824">
        <ele>134.60000610352</ele>
        <time>2012-08-20T09:02:28.000Z</time>
      </trkpt>
      <trkpt lat="48.71549" lon="1.69831">
        <ele>134.80000305176</ele>
        <time>2012-08-20T09:02:35.000Z</time>
      </trkpt>
      <trkpt lat="48.71521" lon="1.69843">
        <ele>135.39999389648</ele>
        <time>2012-08-20T09:02:44.000Z</time>
      </trkpt>
      <trkpt lat="48.71495" lon="1.69854">
        <ele>136</ele>
        <time>2012-08-20T09:02:52.000Z</time>
      </trkpt>
      <trkpt lat="48.7147" lon="1.69865">
        <ele>136.39999389648</ele>
        <time>2012-08-20T09:02:59.000Z</time>
      </trkpt>
      <trkpt lat="48.71442" lon="1.69878">
        <ele>137</ele>
        <time>2012-08-20T09:03:07.000Z</time>
      </trkpt>
      <trkpt lat="48.71414" lon="1.6989">
        <ele>137.80000305176</ele>
        <time>2012-08-20T09:03:15.000Z</time>
      </trkpt>
      <trkpt lat="48.71389" lon="1.69901">
        <ele>139.39999389648</ele>
        <time>2012-08-20T09:03:22.000Z</time>
      </trkpt>
      <trkpt lat="48.71349" lon="1.69918">
        <ele>141.19999694824</ele>
        <time>2012-08-20T09:03:33.000Z</time>
      </trkpt>
      <trkpt lat="48.71319" lon="1.69932">
        <ele>142.39999389648</ele>
        <time>2012-08-20T09:03:42.000Z</time>
      </trkpt>
      <trkpt lat="48.71297" lon="1.69942">
        <ele>143.19999694824</ele>
        <time>2012-08-20T09:03:49.000Z</time>
      </trkpt>
      <trkpt lat="48.71284" lon="1.69948">
        <ele>143.80000305176</ele>
        <time>2012-08-20T09:03:54.000Z</time>
      </trkpt>
      <trkpt lat="48.71279" lon="1.69951">
        <ele>144</ele>
        <time>2012-08-20T09:03:57.000Z</time>
      </trkpt>
      <trkpt lat="48.71265" lon="1.69957">
        <ele>144.80000305176</ele>
        <time>2012-08-20T09:04:02.000Z</time>
      </trkpt>
      <trkpt lat="48.71249" lon="1.69966">
        <ele>145.39999389648</ele>
        <time>2012-08-20T09:04:07.000Z</time>
      </trkpt>
      <trkpt lat="48.71244" lon="1.69972">
        <ele>145.60000610352</ele>
        <time>2012-08-20T09:04:09.000Z</time>
      </trkpt>
      <trkpt lat="48.71226" lon="1.69992">
        <ele>146.39999389648</ele>
        <time>2012-08-20T09:04:15.000Z</time>
      </trkpt>
      <trkpt lat="48.71211" lon="1.70007">
        <ele>147.19999694824</ele>
        <time>2012-08-20T09:04:20.000Z</time>
      </trkpt>
      <trkpt lat="48.71198" lon="1.70021">
        <ele>147.60000610352</ele>
        <time>2012-08-20T09:04:24.000Z</time>
      </trkpt>
      <trkpt lat="48.71183" lon="1.70036">
        <ele>148.39999389648</ele>
        <time>2012-08-20T09:04:29.000Z</time>
      </trkpt>
      <trkpt lat="48.7117" lon="1.70042">
        <ele>149.19999694824</ele>
        <time>2012-08-20T09:04:33.000Z</time>
      </trkpt>
      <trkpt lat="48.7115" lon="1.70041">
        <ele>150.19999694824</ele>
        <time>2012-08-20T09:04:38.000Z</time>
      </trkpt>
      <trkpt lat="48.71127" lon="1.70033">
        <ele>151.39999389648</ele>
        <time>2012-08-20T09:04:44.000Z</time>
      </trkpt>
      <trkpt lat="48.71106" lon="1.70026">
        <ele>152.39999389648</ele>
        <time>2012-08-20T09:04:49.000Z</time>
      </trkpt>
      <trkpt lat="48.71084" lon="1.70019">
        <ele>153.19999694824</ele>
        <time>2012-08-20T09:04:54.000Z</time>
      </trkpt>
      <trkpt lat="48.71075" lon="1.70017">
        <ele>153.80000305176</ele>
        <time>2012-08-20T09:04:59.000Z</time>
      </trkpt>
      <trkpt lat="48.71069" lon="1.70016">
        <ele>154.39999389648</ele>
        <time>2012-08-20T09:05:02.000Z</time>
      </trkpt>
      <trkpt lat="48.71057" lon="1.70014">
        <ele>155.19999694824</ele>
        <time>2012-08-20T09:05:09.000Z</time>
      </trkpt>
      <trkpt lat="48.71048" lon="1.70009">
        <ele>156</ele>
        <time>2012-08-20T09:05:14.000Z</time>
      </trkpt>
      <trkpt lat="48.71026" lon="1.69998">
        <ele>157.80000305176</ele>
        <time>2012-08-20T09:05:21.000Z</time>
      </trkpt>
      <trkpt lat="48.71019" lon="1.69996">
        <ele>158.39999389648</ele>
        <time>2012-08-20T09:05:25.000Z</time>
      </trkpt>
      <trkpt lat="48.71013" lon="1.69995">
        <ele>158.80000305176</ele>
        <time>2012-08-20T09:05:31.000Z</time>
      </trkpt>
      <trkpt lat="48.71012" lon="1.69994">
        <ele>159</ele>
        <time>2012-08-20T09:05:32.000Z</time>
      </trkpt>
      <trkpt lat="48.71002" lon="1.69993">
        <ele>159.60000610352</ele>
        <time>2012-08-20T09:05:39.000Z</time>
      </trkpt>
      <trkpt lat="48.70995" lon="1.6999">
        <ele>160.39999389648</ele>
        <time>2012-08-20T09:05:44.000Z</time>
      </trkpt>
      <trkpt lat="48.70988" lon="1.69985">
        <ele>161</ele>
        <time>2012-08-20T09:05:50.000Z</time>
      </trkpt>
      <trkpt lat="48.70978" lon="1.69979">
        <ele>161.80000305176</ele>
        <time>2012-08-20T09:05:58.000Z</time>
      </trkpt>
      <trkpt lat="48.70977" lon="1.69978">
        <ele>161.80000305176</ele>
        <time>2012-08-20T09:05:59.000Z</time>
      </trkpt>
      <trkpt lat="48.7097" lon="1.69974">
        <ele>162.19999694824</ele>
        <time>2012-08-20T09:06:06.000Z</time>
      </trkpt>
      <trkpt lat="48.70968" lon="1.69974">
        <ele>162.39999389648</ele>
        <time>2012-08-20T09:06:07.000Z</time>
      </trkpt>
      <trkpt lat="48.70958" lon="1.69971">
        <ele>163</ele>
        <time>2012-08-20T09:06:14.000Z</time>
      </trkpt>
      <trkpt lat="48.7095" lon="1.69968">
        <ele>163.60000610352</ele>
        <time>2012-08-20T09:06:19.000Z</time>
      </trkpt>
      <trkpt lat="48.70941" lon="1.69964">
        <ele>163.80000305176</ele>
        <time>2012-08-20T09:06:25.000Z</time>
      </trkpt>
      <trkpt lat="48.70938" lon="1.69963">
        <ele>164</ele>
        <time>2012-08-20T09:06:27.000Z</time>
      </trkpt>
      <trkpt lat="48.70927" lon="1.69958">
        <ele>164.19999694824</ele>
        <time>2012-08-20T09:06:36.000Z</time>
      </trkpt>
      <trkpt lat="48.70918" lon="1.69953">
        <ele>164</ele>
        <time>2012-08-20T09:06:43.000Z</time>
      </trkpt>
      <trkpt lat="48.70911" lon="1.69948">
        <ele>164.60000610352</ele>
        <time>2012-08-20T09:06:49.000Z</time>
      </trkpt>
      <trkpt lat="48.70903" lon="1.69944">
        <ele>165.60000610352</ele>
        <time>2012-08-20T09:06:54.000Z</time>
      </trkpt>
      <trkpt lat="48.709" lon="1.69945">
        <ele>166.19999694824</ele>
        <time>2012-08-20T09:06:58.000Z</time>
      </trkpt>
      <trkpt lat="48.70895" lon="1.69945">
        <ele>167.19999694824</ele>
        <time>2012-08-20T09:07:02.000Z</time>
      </trkpt>
      <trkpt lat="48.70886" lon="1.69945">
        <ele>168.80000305176</ele>
        <time>2012-08-20T09:07:07.000Z</time>
      </trkpt>
      <trkpt lat="48.70879" lon="1.69944">
        <ele>170</ele>
        <time>2012-08-20T09:07:12.000Z</time>
      </trkpt>
      <trkpt lat="48.7087" lon="1.6994">
        <ele>171.39999389648</ele>
        <time>2012-08-20T09:07:19.000Z</time>
      </trkpt>
      <trkpt lat="48.70866" lon="1.6994">
        <ele>172.19999694824</ele>
        <time>2012-08-20T09:07:21.000Z</time>
      </trkpt>
      <trkpt lat="48.70857" lon="1.69933">
        <ele>173.19999694824</ele>
        <time>2012-08-20T09:07:28.000Z</time>
      </trkpt>
      <trkpt lat="48.70843" lon="1.69927">
        <ele>175.80000305176</ele>
        <time>2012-08-20T09:07:34.000Z</time>
      </trkpt>
      <trkpt lat="48.70825" lon="1.69922">
        <ele>178</ele>
        <time>2012-08-20T09:07:39.000Z</time>
      </trkpt>
      <trkpt lat="48.70808" lon="1.6992">
        <ele>179.39999389648</ele>
        <time>2012-08-20T09:07:44.000Z</time>
      </trkpt>
      <trkpt lat="48.70798" lon="1.69924">
        <ele>180.39999389648</ele>
        <time>2012-08-20T09:07:48.000Z</time>
      </trkpt>
      <trkpt lat="48.70791" lon="1.69927">
        <ele>181</ele>
        <time>2012-08-20T09:07:55.000Z</time>
      </trkpt>
      <trkpt lat="48.70785" lon="1.69935">
        <ele>182</ele>
        <time>2012-08-20T09:08:03.000Z</time>
      </trkpt>
      <trkpt lat="48.70782" lon="1.69937">
        <ele>182.39999389648</ele>
        <time>2012-08-20T09:08:05.000Z</time>
      </trkpt>
      <trkpt lat="48.70776" lon="1.6994">
        <ele>183</ele>
        <time>2012-08-20T09:08:10.000Z</time>
      </trkpt>
      <trkpt lat="48.7077" lon="1.69945">
        <ele>183.80000305176</ele>
        <time>2012-08-20T09:08:15.000Z</time>
      </trkpt>
      <trkpt lat="48.7076" lon="1.6995">
        <ele>184.80000305176</ele>
        <time>2012-08-20T09:08:23.000Z</time>
      </trkpt>
      <trkpt lat="48.70753" lon="1.69954">
        <ele>185.60000610352</ele>
        <time>2012-08-20T09:08:29.000Z</time>
      </trkpt>
      <trkpt lat="48.70748" lon="1.69957">
        <ele>186</ele>
        <time>2012-08-20T09:08:33.000Z</time>
      </trkpt>
      <trkpt lat="48.70745" lon="1.69959">
        <ele>186</ele>
        <time>2012-08-20T09:08:36.000Z</time>
      </trkpt>
      <trkpt lat="48.70742" lon="1.69974">
        <ele>186.60000610352</ele>
        <time>2012-08-20T09:08:43.000Z</time>
      </trkpt>
      <trkpt lat="48.70742" lon="1.69978">
        <ele>186.80000305176</ele>
        <time>2012-08-20T09:08:45.000Z</time>
      </trkpt>
      <trkpt lat="48.70743" lon="1.69998">
        <ele>187.80000305176</ele>
        <time>2012-08-20T09:08:55.000Z</time>
      </trkpt>
      <trkpt lat="48.70742" lon="1.70006">
        <ele>188</ele>
        <time>2012-08-20T09:08:59.000Z</time>
      </trkpt>
      <trkpt lat="48.7074" lon="1.70022">
        <ele>187.80000305176</ele>
        <time>2012-08-20T09:09:07.000Z</time>
      </trkpt>
      <trkpt lat="48.7074" lon="1.7003">
        <ele>187.80000305176</ele>
        <time>2012-08-20T09:09:11.000Z</time>
      </trkpt>
      <trkpt lat="48.7074" lon="1.7005">
        <ele>187.80000305176</ele>
        <time>2012-08-20T09:09:20.000Z</time>
      </trkpt>
      <trkpt lat="48.70739" lon="1.70065">
        <ele>187.80000305176</ele>
        <time>2012-08-20T09:09:27.000Z</time>
      </trkpt>
      <trkpt lat="48.70739" lon="1.70082">
        <ele>187.80000305176</ele>
        <time>2012-08-20T09:09:35.000Z</time>
      </trkpt>
      <trkpt lat="48.70738" lon="1.70098">
        <ele>187.39999389648</ele>
        <time>2012-08-20T09:09:42.000Z</time>
      </trkpt>
      <trkpt lat="48.70736" lon="1.70118">
        <ele>186.80000305176</ele>
        <time>2012-08-20T09:09:51.000Z</time>
      </trkpt>
      <trkpt lat="48.70735" lon="1.70135">
        <ele>186.39999389648</ele>
        <time>2012-08-20T09:09:59.000Z</time>
      </trkpt>
      <trkpt lat="48.70736" lon="1.70153">
        <ele>185.80000305176</ele>
        <time>2012-08-20T09:10:06.000Z</time>
      </trkpt>
      <trkpt lat="48.70734" lon="1.70167">
        <ele>185.39999389648</ele>
        <time>2012-08-20T09:10:13.000Z</time>
      </trkpt>
      <trkpt lat="48.70733" lon="1.70187">
        <ele>184.80000305176</ele>
        <time>2012-08-20T09:10:22.000Z</time>
      </trkpt>
      <trkpt lat="48.70733" lon="1.70208">
        <ele>184.39999389648</ele>
        <time>2012-08-20T09:10:31.000Z</time>
      </trkpt>
      <trkpt lat="48.70734" lon="1.7022">
        <ele>184</ele>
        <time>2012-08-20T09:10:36.000Z</time>
      </trkpt>
      <trkpt lat="48.70728" lon="1.70241">
        <ele>183.19999694824</ele>
        <time>2012-08-20T09:10:45.000Z</time>
      </trkpt>
      <trkpt lat="48.70724" lon="1.70254">
        <ele>182.39999389648</ele>
        <time>2012-08-20T09:10:51.000Z</time>
      </trkpt>
      <trkpt lat="48.70721" lon="1.70267">
        <ele>181.39999389648</ele>
        <time>2012-08-20T09:10:57.000Z</time>
      </trkpt>
      <trkpt lat="48.70719" lon="1.70283">
        <ele>180.39999389648</ele>
        <time>2012-08-20T09:11:04.000Z</time>
      </trkpt>
      <trkpt lat="48.70717" lon="1.70298">
        <ele>179.60000610352</ele>
        <time>2012-08-20T09:11:10.000Z</time>
      </trkpt>
      <trkpt lat="48.70716" lon="1.70309">
        <ele>178.80000305176</ele>
        <time>2012-08-20T09:11:14.000Z</time>
      </trkpt>
      <trkpt lat="48.70713" lon="1.70324">
        <ele>178.19999694824</ele>
        <time>2012-08-20T09:11:21.000Z</time>
      </trkpt>
      <trkpt lat="48.7071" lon="1.70343">
        <ele>177.80000305176</ele>
        <time>2012-08-20T09:11:30.000Z</time>
      </trkpt>
      <trkpt lat="48.70707" lon="1.7036">
        <ele>178</ele>
        <time>2012-08-20T09:11:38.000Z</time>
      </trkpt>
      <trkpt lat="48.70706" lon="1.70374">
        <ele>178.19999694824</ele>
        <time>2012-08-20T09:11:44.000Z</time>
      </trkpt>
      <trkpt lat="48.70703" lon="1.7039">
        <ele>178.60000610352</ele>
        <time>2012-08-20T09:11:52.000Z</time>
      </trkpt>
      <trkpt lat="48.70701" lon="1.70408">
        <ele>179</ele>
        <time>2012-08-20T09:11:59.000Z</time>
      </trkpt>
      <trkpt lat="48.707" lon="1.70421">
        <ele>179.60000610352</ele>
        <time>2012-08-20T09:12:05.000Z</time>
      </trkpt>
      <trkpt lat="48.70692" lon="1.70443">
        <ele>181.80000305176</ele>
        <time>2012-08-20T09:12:15.000Z</time>
      </trkpt>
      <trkpt lat="48.70687" lon="1.70457">
        <ele>182.80000305176</ele>
        <time>2012-08-20T09:12:22.000Z</time>
      </trkpt>
      <trkpt lat="48.70682" lon="1.70476">
        <ele>184.19999694824</ele>
        <time>2012-08-20T09:12:31.000Z</time>
      </trkpt>
      <trkpt lat="48.7068" lon="1.70483">
        <ele>184.60000610352</ele>
        <time>2012-08-20T09:12:34.000Z</time>
      </trkpt>
      <trkpt lat="48.70678" lon="1.70503">
        <ele>185.19999694824</ele>
        <time>2012-08-20T09:12:43.000Z</time>
      </trkpt>
      <trkpt lat="48.70673" lon="1.70518">
        <ele>185.60000610352</ele>
        <time>2012-08-20T09:12:49.000Z</time>
      </trkpt>
      <trkpt lat="48.70669" lon="1.70529">
        <ele>186</ele>
        <time>2012-08-20T09:12:55.000Z</time>
      </trkpt>
      <trkpt lat="48.70668" lon="1.7053">
        <ele>186.19999694824</ele>
        <time>2012-08-20T09:12:56.000Z</time>
      </trkpt>
      <trkpt lat="48.70663" lon="1.70544">
        <ele>186</ele>
        <time>2012-08-20T09:13:04.000Z</time>
      </trkpt>
      <trkpt lat="48.70663" lon="1.70546">
        <ele>186</ele>
        <time>2012-08-20T09:13:05.000Z</time>
      </trkpt>
      <trkpt lat="48.70661" lon="1.70556">
        <ele>185.80000305176</ele>
        <time>2012-08-20T09:13:11.000Z</time>
      </trkpt>
      <trkpt lat="48.7066" lon="1.70559">
        <ele>185.80000305176</ele>
        <time>2012-08-20T09:13:12.000Z</time>
      </trkpt>
      <trkpt lat="48.70658" lon="1.70576">
        <ele>185.39999389648</ele>
        <time>2012-08-20T09:13:19.000Z</time>
      </trkpt>
      <trkpt lat="48.70654" lon="1.70589">
        <ele>185.39999389648</ele>
        <time>2012-08-20T09:13:25.000Z</time>
      </trkpt>
      <trkpt lat="48.70648" lon="1.70599">
        <ele>185.39999389648</ele>
        <time>2012-08-20T09:13:30.000Z</time>
      </trkpt>
      <trkpt lat="48.70643" lon="1.70611">
        <ele>185.39999389648</ele>
        <time>2012-08-20T09:13:36.000Z</time>
      </trkpt>
      <trkpt lat="48.70637" lon="1.70622">
        <ele>185.60000610352</ele>
        <time>2012-08-20T09:13:43.000Z</time>
      </trkpt>
      <trkpt lat="48.70636" lon="1.70624">
        <ele>185.60000610352</ele>
        <time>2012-08-20T09:13:44.000Z</time>
      </trkpt>
      <trkpt lat="48.70633" lon="1.70639">
        <ele>185.60000610352</ele>
        <time>2012-08-20T09:13:51.000Z</time>
      </trkpt>
      <trkpt lat="48.70627" lon="1.70655">
        <ele>185.60000610352</ele>
        <time>2012-08-20T09:13:58.000Z</time>
      </trkpt>
      <trkpt lat="48.70626" lon="1.70661">
        <ele>185.60000610352</ele>
        <time>2012-08-20T09:14:01.000Z</time>
      </trkpt>
      <trkpt lat="48.70624" lon="1.70672">
        <ele>185.60000610352</ele>
        <time>2012-08-20T09:14:07.000Z</time>
      </trkpt>
      <trkpt lat="48.7062" lon="1.70683">
        <ele>185.60000610352</ele>
        <time>2012-08-20T09:14:11.000Z</time>
      </trkpt>
      <trkpt lat="48.70614" lon="1.70708">
        <ele>185.60000610352</ele>
        <time>2012-08-20T09:14:21.000Z</time>
      </trkpt>
      <trkpt lat="48.7061" lon="1.70722">
        <ele>185.60000610352</ele>
        <time>2012-08-20T09:14:28.000Z</time>
      </trkpt>
      <trkpt lat="48.70607" lon="1.70735">
        <ele>185.80000305176</ele>
        <time>2012-08-20T09:14:35.000Z</time>
      </trkpt>
      <trkpt lat="48.70602" lon="1.70752">
        <ele>185.80000305176</ele>
        <time>2012-08-20T09:14:42.000Z</time>
      </trkpt>
      <trkpt lat="48.70598" lon="1.70766">
        <ele>185.39999389648</ele>
        <time>2012-08-20T09:14:48.000Z</time>
      </trkpt>
      <trkpt lat="48.70593" lon="1.70778">
        <ele>185.19999694824</ele>
        <time>2012-08-20T09:14:54.000Z</time>
      </trkpt>
      <trkpt lat="48.7059" lon="1.70795">
        <ele>184.80000305176</ele>
        <time>2012-08-20T09:15:02.000Z</time>
      </trkpt>
      <trkpt lat="48.70586" lon="1.70809">
        <ele>184.60000610352</ele>
        <time>2012-08-20T09:15:09.000Z</time>
      </trkpt>
      <trkpt lat="48.70583" lon="1.70821">
        <ele>184.39999389648</ele>
        <time>2012-08-20T09:15:15.000Z</time>
      </trkpt>
      <trkpt lat="48.70579" lon="1.70841">
        <ele>184</ele>
        <time>2012-08-20T09:15:24.000Z</time>
      </trkpt>
      <trkpt lat="48.70577" lon="1.70848">
        <ele>183.80000305176</ele>
        <time>2012-08-20T09:15:27.000Z</time>
      </trkpt>
      <trkpt lat="48.70572" lon="1.70865">
        <ele>183.80000305176</ele>
        <time>2012-08-20T09:15:34.000Z</time>
      </trkpt>
      <trkpt lat="48.7057" lon="1.70882">
        <ele>183.60000610352</ele>
        <time>2012-08-20T09:15:41.000Z</time>
      </trkpt>
      <trkpt lat="48.70567" lon="1.70897">
        <ele>183.60000610352</ele>
        <time>2012-08-20T09:15:48.000Z</time>
      </trkpt>
      <trkpt lat="48.70562" lon="1.70911">
        <ele>183.60000610352</ele>
        <time>2012-08-20T09:15:55.000Z</time>
      </trkpt>
      <trkpt lat="48.7056" lon="1.70924">
        <ele>183.39999389648</ele>
        <time>2012-08-20T09:16:01.000Z</time>
      </trkpt>
      <trkpt lat="48.70555" lon="1.70941">
        <ele>183.39999389648</ele>
        <time>2012-08-20T09:16:09.000Z</time>
      </trkpt>
      <trkpt lat="48.70552" lon="1.70957">
        <ele>183.19999694824</ele>
        <time>2012-08-20T09:16:16.000Z</time>
      </trkpt>
      <trkpt lat="48.70551" lon="1.70976">
        <ele>183</ele>
        <time>2012-08-20T09:16:23.000Z</time>
      </trkpt>
      <trkpt lat="48.70546" lon="1.70996">
        <ele>183</ele>
        <time>2012-08-20T09:16:31.000Z</time>
      </trkpt>
      <trkpt lat="48.70543" lon="1.71018">
        <ele>183.19999694824</ele>
        <time>2012-08-20T09:16:38.000Z</time>
      </trkpt>
      <trkpt lat="48.70538" lon="1.71036">
        <ele>183.60000610352</ele>
        <time>2012-08-20T09:16:46.000Z</time>
      </trkpt>
      <trkpt lat="48.70535" lon="1.71048">
        <ele>183.80000305176</ele>
        <time>2012-08-20T09:16:52.000Z</time>
      </trkpt>
      <trkpt lat="48.7053" lon="1.7106">
        <ele>184</ele>
        <time>2012-08-20T09:16:59.000Z</time>
      </trkpt>
      <trkpt lat="48.70526" lon="1.71073">
        <ele>184.19999694824</ele>
        <time>2012-08-20T09:17:05.000Z</time>
      </trkpt>
      <trkpt lat="48.70523" lon="1.71086">
        <ele>184.39999389648</ele>
        <time>2012-08-20T09:17:11.000Z</time>
      </trkpt>
      <trkpt lat="48.7052" lon="1.711">
        <ele>184.60000610352</ele>
        <time>2012-08-20T09:17:18.000Z</time>
      </trkpt>
      <trkpt lat="48.70515" lon="1.71113">
        <ele>184.60000610352</ele>
        <time>2012-08-20T09:17:24.000Z</time>
      </trkpt>
      <trkpt lat="48.70515" lon="1.71123">
        <ele>184.60000610352</ele>
        <time>2012-08-20T09:17:28.000Z</time>
      </trkpt>
      <trkpt lat="48.70515" lon="1.71128">
        <ele>184.60000610352</ele>
        <time>2012-08-20T09:17:30.000Z</time>
      </trkpt>
      <trkpt lat="48.7051" lon="1.71139">
        <ele>184.80000305176</ele>
        <time>2012-08-20T09:17:37.000Z</time>
      </trkpt>
      <trkpt lat="48.70508" lon="1.71145">
        <ele>184.80000305176</ele>
        <time>2012-08-20T09:17:40.000Z</time>
      </trkpt>
      <trkpt lat="48.70504" lon="1.71162">
        <ele>184.80000305176</ele>
        <time>2012-08-20T09:17:48.000Z</time>
      </trkpt>
      <trkpt lat="48.70501" lon="1.7118">
        <ele>185.19999694824</ele>
        <time>2012-08-20T09:17:56.000Z</time>
      </trkpt>
      <trkpt lat="48.70503" lon="1.71185">
        <ele>185.19999694824</ele>
        <time>2012-08-20T09:18:00.000Z</time>
      </trkpt>
      <trkpt lat="48.70505" lon="1.71186">
        <ele>185.19999694824</ele>
        <time>2012-08-20T09:18:02.000Z</time>
      </trkpt>
      <trkpt lat="48.70503" lon="1.71192">
        <ele>185.19999694824</ele>
        <time>2012-08-20T09:18:07.000Z</time>
      </trkpt>
      <trkpt lat="48.70496" lon="1.71199">
        <ele>185.39999389648</ele>
        <time>2012-08-20T09:18:14.000Z</time>
      </trkpt>
      <trkpt lat="48.70492" lon="1.71208">
        <ele>185.60000610352</ele>
        <time>2012-08-20T09:18:19.000Z</time>
      </trkpt>
      <trkpt lat="48.70487" lon="1.71222">
        <ele>185.80000305176</ele>
        <time>2012-08-20T09:18:27.000Z</time>
      </trkpt>
      <trkpt lat="48.70484" lon="1.71234">
        <ele>186</ele>
        <time>2012-08-20T09:18:34.000Z</time>
      </trkpt>
      <trkpt lat="48.70478" lon="1.71253">
        <ele>186.39999389648</ele>
        <time>2012-08-20T09:18:40.000Z</time>
      </trkpt>
      <trkpt lat="48.70477" lon="1.71258">
        <ele>186.39999389648</ele>
        <time>2012-08-20T09:18:44.000Z</time>
      </trkpt>
      <trkpt lat="48.70478" lon="1.71263">
        <ele>186.39999389648</ele>
        <time>2012-08-20T09:18:46.000Z</time>
      </trkpt>
      <trkpt lat="48.7048" lon="1.71281">
        <ele>186.80000305176</ele>
        <time>2012-08-20T09:18:53.000Z</time>
      </trkpt>
      <trkpt lat="48.70474" lon="1.71292">
        <ele>186.80000305176</ele>
        <time>2012-08-20T09:18:59.000Z</time>
      </trkpt>
      <trkpt lat="48.70469" lon="1.71311">
        <ele>187</ele>
        <time>2012-08-20T09:19:07.000Z</time>
      </trkpt>
      <trkpt lat="48.70467" lon="1.71333">
        <ele>187.19999694824</ele>
        <time>2012-08-20T09:19:15.000Z</time>
      </trkpt>
      <trkpt lat="48.70468" lon="1.7135">
        <ele>187.19999694824</ele>
        <time>2012-08-20T09:19:22.000Z</time>
      </trkpt>
      <trkpt lat="48.70464" lon="1.71363">
        <ele>187.19999694824</ele>
        <time>2012-08-20T09:19:28.000Z</time>
      </trkpt>
      <trkpt lat="48.7046" lon="1.71382">
        <ele>187</ele>
        <time>2012-08-20T09:19:37.000Z</time>
      </trkpt>
      <trkpt lat="48.70457" lon="1.71399">
        <ele>187</ele>
        <time>2012-08-20T09:19:45.000Z</time>
      </trkpt>
      <trkpt lat="48.70457" lon="1.71415">
        <ele>187</ele>
        <time>2012-08-20T09:19:51.000Z</time>
      </trkpt>
      <trkpt lat="48.70453" lon="1.71427">
        <ele>186.80000305176</ele>
        <time>2012-08-20T09:19:57.000Z</time>
      </trkpt>
      <trkpt lat="48.70451" lon="1.71443">
        <ele>186.60000610352</ele>
        <time>2012-08-20T09:20:04.000Z</time>
      </trkpt>
      <trkpt lat="48.70447" lon="1.71459">
        <ele>186.39999389648</ele>
        <time>2012-08-20T09:20:11.000Z</time>
      </trkpt>
      <trkpt lat="48.70444" lon="1.71471">
        <ele>186.39999389648</ele>
        <time>2012-08-20T09:20:16.000Z</time>
      </trkpt>
      <trkpt lat="48.70441" lon="1.71487">
        <ele>186.19999694824</ele>
        <time>2012-08-20T09:20:23.000Z</time>
      </trkpt>
      <trkpt lat="48.70437" lon="1.71504">
        <ele>186.19999694824</ele>
        <time>2012-08-20T09:20:31.000Z</time>
      </trkpt>
      <trkpt lat="48.70436" lon="1.71517">
        <ele>186</ele>
        <time>2012-08-20T09:20:37.000Z</time>
      </trkpt>
      <trkpt lat="48.70434" lon="1.71523">
        <ele>186</ele>
        <time>2012-08-20T09:20:40.000Z</time>
      </trkpt>
      <trkpt lat="48.70433" lon="1.71546">
        <ele>185.80000305176</ele>
        <time>2012-08-20T09:20:49.000Z</time>
      </trkpt>
      <trkpt lat="48.70427" lon="1.71562">
        <ele>185.39999389648</ele>
        <time>2012-08-20T09:20:56.000Z</time>
      </trkpt>
      <trkpt lat="48.7042" lon="1.71578">
        <ele>185.19999694824</ele>
        <time>2012-08-20T09:21:04.000Z</time>
      </trkpt>
      <trkpt lat="48.70414" lon="1.71589">
        <ele>185</ele>
        <time>2012-08-20T09:21:10.000Z</time>
      </trkpt>
      <trkpt lat="48.70413" lon="1.7159">
        <ele>185</ele>
        <time>2012-08-20T09:21:11.000Z</time>
      </trkpt>
      <trkpt lat="48.70413" lon="1.71606">
        <ele>185.19999694824</ele>
        <time>2012-08-20T09:21:17.000Z</time>
      </trkpt>
      <trkpt lat="48.70411" lon="1.7161">
        <ele>185.19999694824</ele>
        <time>2012-08-20T09:21:19.000Z</time>
      </trkpt>
      <trkpt lat="48.70406" lon="1.71622">
        <ele>185.19999694824</ele>
        <time>2012-08-20T09:21:26.000Z</time>
      </trkpt>
      <trkpt lat="48.70401" lon="1.71637">
        <ele>185.19999694824</ele>
        <time>2012-08-20T09:21:32.000Z</time>
      </trkpt>
      <trkpt lat="48.704" lon="1.71644">
        <ele>185.39999389648</ele>
        <time>2012-08-20T09:21:35.000Z</time>
      </trkpt>
      <trkpt lat="48.70401" lon="1.71661">
        <ele>185.60000610352</ele>
        <time>2012-08-20T09:21:42.000Z</time>
      </trkpt>
      <trkpt lat="48.70399" lon="1.71668">
        <ele>185.60000610352</ele>
        <time>2012-08-20T09:21:46.000Z</time>
      </trkpt>
      <trkpt lat="48.704" lon="1.71681">
        <ele>185.80000305176</ele>
        <time>2012-08-20T09:21:52.000Z</time>
      </trkpt>
      <trkpt lat="48.704" lon="1.71693">
        <ele>186</ele>
        <time>2012-08-20T09:21:57.000Z</time>
      </trkpt>
      <trkpt lat="48.70397" lon="1.71702">
        <ele>186</ele>
        <time>2012-08-20T09:22:01.000Z</time>
      </trkpt>
      <trkpt lat="48.70393" lon="1.71719">
        <ele>186.19999694824</ele>
        <time>2012-08-20T09:22:09.000Z</time>
      </trkpt>
      <trkpt lat="48.70388" lon="1.71731">
        <ele>186.39999389648</ele>
        <time>2012-08-20T09:22:16.000Z</time>
      </trkpt>
      <trkpt lat="48.70385" lon="1.71747">
        <ele>186.60000610352</ele>
        <time>2012-08-20T09:22:23.000Z</time>
      </trkpt>
      <trkpt lat="48.70383" lon="1.71762">
        <ele>186.39999389648</ele>
        <time>2012-08-20T09:22:28.000Z</time>
      </trkpt>
      <trkpt lat="48.70381" lon="1.71777">
        <ele>186.19999694824</ele>
        <time>2012-08-20T09:22:34.000Z</time>
      </trkpt>
      <trkpt lat="48.70379" lon="1.71788">
        <ele>185.80000305176</ele>
        <time>2012-08-20T09:22:39.000Z</time>
      </trkpt>
      <trkpt lat="48.70373" lon="1.71798">
        <ele>185.60000610352</ele>
        <time>2012-08-20T09:22:44.000Z</time>
      </trkpt>
      <trkpt lat="48.70368" lon="1.71816">
        <ele>185.19999694824</ele>
        <time>2012-08-20T09:22:51.000Z</time>
      </trkpt>
      <trkpt lat="48.70368" lon="1.71834">
        <ele>184.80000305176</ele>
        <time>2012-08-20T09:22:58.000Z</time>
      </trkpt>
      <trkpt lat="48.70363" lon="1.71845">
        <ele>184.60000610352</ele>
        <time>2012-08-20T09:23:03.000Z</time>
      </trkpt>
      <trkpt lat="48.70362" lon="1.71856">
        <ele>184.39999389648</ele>
        <time>2012-08-20T09:23:08.000Z</time>
      </trkpt>
      <trkpt lat="48.70361" lon="1.71872">
        <ele>184.19999694824</ele>
        <time>2012-08-20T09:23:15.000Z</time>
      </trkpt>
      <trkpt lat="48.70358" lon="1.71881">
        <ele>184</ele>
        <time>2012-08-20T09:23:20.000Z</time>
      </trkpt>
      <trkpt lat="48.70355" lon="1.7189">
        <ele>183.80000305176</ele>
        <time>2012-08-20T09:23:25.000Z</time>
      </trkpt>
      <trkpt lat="48.70349" lon="1.71906">
        <ele>183.60000610352</ele>
        <time>2012-08-20T09:23:33.000Z</time>
      </trkpt>
      <trkpt lat="48.70344" lon="1.7192">
        <ele>183.19999694824</ele>
        <time>2012-08-20T09:23:40.000Z</time>
      </trkpt>
      <trkpt lat="48.7034" lon="1.71931">
        <ele>183.19999694824</ele>
        <time>2012-08-20T09:23:46.000Z</time>
      </trkpt>
      <trkpt lat="48.70338" lon="1.71944">
        <ele>183.19999694824</ele>
        <time>2012-08-20T09:23:51.000Z</time>
      </trkpt>
      <trkpt lat="48.70337" lon="1.71951">
        <ele>183</ele>
        <time>2012-08-20T09:23:53.000Z</time>
      </trkpt>
      <trkpt lat="48.70335" lon="1.71974">
        <ele>183</ele>
        <time>2012-08-20T09:24:00.000Z</time>
      </trkpt>
      <trkpt lat="48.70335" lon="1.7199">
        <ele>183</ele>
        <time>2012-08-20T09:24:06.000Z</time>
      </trkpt>
      <trkpt lat="48.70335" lon="1.72004">
        <ele>183.19999694824</ele>
        <time>2012-08-20T09:24:11.000Z</time>
      </trkpt>
      <trkpt lat="48.70332" lon="1.72017">
        <ele>183.39999389648</ele>
        <time>2012-08-20T09:24:17.000Z</time>
      </trkpt>
      <trkpt lat="48.70328" lon="1.72031">
        <ele>183.39999389648</ele>
        <time>2012-08-20T09:24:23.000Z</time>
      </trkpt>
      <trkpt lat="48.70325" lon="1.72045">
        <ele>183.60000610352</ele>
        <time>2012-08-20T09:24:29.000Z</time>
      </trkpt>
      <trkpt lat="48.70321" lon="1.7206">
        <ele>183.80000305176</ele>
        <time>2012-08-20T09:24:35.000Z</time>
      </trkpt>
      <trkpt lat="48.70314" lon="1.72073">
        <ele>183.80000305176</ele>
        <time>2012-08-20T09:24:42.000Z</time>
      </trkpt>
      <trkpt lat="48.7031" lon="1.72085">
        <ele>184</ele>
        <time>2012-08-20T09:24:48.000Z</time>
      </trkpt>
      <trkpt lat="48.70306" lon="1.721">
        <ele>184</ele>
        <time>2012-08-20T09:24:54.000Z</time>
      </trkpt>
      <trkpt lat="48.70304" lon="1.72113">
        <ele>184.19999694824</ele>
        <time>2012-08-20T09:25:01.000Z</time>
      </trkpt>
      <trkpt lat="48.70303" lon="1.72139">
        <ele>184.80000305176</ele>
        <time>2012-08-20T09:25:11.000Z</time>
      </trkpt>
      <trkpt lat="48.70297" lon="1.72156">
        <ele>185</ele>
        <time>2012-08-20T09:25:17.000Z</time>
      </trkpt>
      <trkpt lat="48.70297" lon="1.7216">
        <ele>185</ele>
        <time>2012-08-20T09:25:18.000Z</time>
      </trkpt>
      <trkpt lat="48.7029" lon="1.72176">
        <ele>185</ele>
        <time>2012-08-20T09:25:25.000Z</time>
      </trkpt>
      <trkpt lat="48.70289" lon="1.72178">
        <ele>185</ele>
        <time>2012-08-20T09:25:26.000Z</time>
      </trkpt>
      <trkpt lat="48.70282" lon="1.72193">
        <ele>185</ele>
        <time>2012-08-20T09:25:34.000Z</time>
      </trkpt>
      <trkpt lat="48.70279" lon="1.72203">
        <ele>185</ele>
        <time>2012-08-20T09:25:39.000Z</time>
      </trkpt>
      <trkpt lat="48.70276" lon="1.72217">
        <ele>185</ele>
        <time>2012-08-20T09:25:46.000Z</time>
      </trkpt>
      <trkpt lat="48.70273" lon="1.72225">
        <ele>185</ele>
        <time>2012-08-20T09:25:50.000Z</time>
      </trkpt>
      <trkpt lat="48.70271" lon="1.72244">
        <ele>185.19999694824</ele>
        <time>2012-08-20T09:25:58.000Z</time>
      </trkpt>
      <trkpt lat="48.70271" lon="1.72259">
        <ele>185.19999694824</ele>
        <time>2012-08-20T09:26:05.000Z</time>
      </trkpt>
      <trkpt lat="48.7027" lon="1.72276">
        <ele>185</ele>
        <time>2012-08-20T09:26:11.000Z</time>
      </trkpt>
      <trkpt lat="48.70269" lon="1.72295">
        <ele>185</ele>
        <time>2012-08-20T09:26:18.000Z</time>
      </trkpt>
      <trkpt lat="48.70266" lon="1.72309">
        <ele>185</ele>
        <time>2012-08-20T09:26:24.000Z</time>
      </trkpt>
      <trkpt lat="48.70262" lon="1.72322">
        <ele>184.80000305176</ele>
        <time>2012-08-20T09:26:29.000Z</time>
      </trkpt>
      <trkpt lat="48.70259" lon="1.72338">
        <ele>184.80000305176</ele>
        <time>2012-08-20T09:26:34.000Z</time>
      </trkpt>
      <trkpt lat="48.70256" lon="1.7235">
        <ele>184.39999389648</ele>
        <time>2012-08-20T09:26:40.000Z</time>
      </trkpt>
      <trkpt lat="48.70255" lon="1.72363">
        <ele>183.80000305176</ele>
        <time>2012-08-20T09:26:47.000Z</time>
      </trkpt>
      <trkpt lat="48.70253" lon="1.72379">
        <ele>183.39999389648</ele>
        <time>2012-08-20T09:26:54.000Z</time>
      </trkpt>
      <trkpt lat="48.7025" lon="1.72391">
        <ele>183</ele>
        <time>2012-08-20T09:27:00.000Z</time>
      </trkpt>
      <trkpt lat="48.70247" lon="1.72407">
        <ele>182.39999389648</ele>
        <time>2012-08-20T09:27:07.000Z</time>
      </trkpt>
      <trkpt lat="48.70244" lon="1.72418">
        <ele>182.19999694824</ele>
        <time>2012-08-20T09:27:13.000Z</time>
      </trkpt>
      <trkpt lat="48.70244" lon="1.72422">
        <ele>182.19999694824</ele>
        <time>2012-08-20T09:27:15.000Z</time>
      </trkpt>
      <trkpt lat="48.70239" lon="1.72433">
        <ele>182.19999694824</ele>
        <time>2012-08-20T09:27:21.000Z</time>
      </trkpt>
      <trkpt lat="48.70234" lon="1.72447">
        <ele>182.19999694824</ele>
        <time>2012-08-20T09:27:28.000Z</time>
      </trkpt>
      <trkpt lat="48.70231" lon="1.72464">
        <ele>181.80000305176</ele>
        <time>2012-08-20T09:27:35.000Z</time>
      </trkpt>
      <trkpt lat="48.70229" lon="1.72477">
        <ele>181.80000305176</ele>
        <time>2012-08-20T09:27:42.000Z</time>
      </trkpt>
      <trkpt lat="48.70228" lon="1.72481">
        <ele>181.60000610352</ele>
        <time>2012-08-20T09:27:44.000Z</time>
      </trkpt>
      <trkpt lat="48.70223" lon="1.72498">
        <ele>181.60000610352</ele>
        <time>2012-08-20T09:27:51.000Z</time>
      </trkpt>
      <trkpt lat="48.7022" lon="1.72507">
        <ele>181.60000610352</ele>
        <time>2012-08-20T09:27:55.000Z</time>
      </trkpt>
      <trkpt lat="48.70217" lon="1.72521">
        <ele>181.39999389648</ele>
        <time>2012-08-20T09:28:01.000Z</time>
      </trkpt>
      <trkpt lat="48.70212" lon="1.72535">
        <ele>181.39999389648</ele>
        <time>2012-08-20T09:28:08.000Z</time>
      </trkpt>
      <trkpt lat="48.70212" lon="1.72544">
        <ele>181.19999694824</ele>
        <time>2012-08-20T09:28:11.000Z</time>
      </trkpt>
      <trkpt lat="48.70212" lon="1.72563">
        <ele>180.60000610352</ele>
        <time>2012-08-20T09:28:18.000Z</time>
      </trkpt>
      <trkpt lat="48.70211" lon="1.72575">
        <ele>180.39999389648</ele>
        <time>2012-08-20T09:28:23.000Z</time>
      </trkpt>
      <trkpt lat="48.70209" lon="1.7258">
        <ele>180.60000610352</ele>
        <time>2012-08-20T09:28:25.000Z</time>
      </trkpt>
      <trkpt lat="48.70208" lon="1.72595">
        <ele>180.19999694824</ele>
        <time>2012-08-20T09:28:31.000Z</time>
      </trkpt>
      <trkpt lat="48.7021" lon="1.72613">
        <ele>179.39999389648</ele>
        <time>2012-08-20T09:28:38.000Z</time>
      </trkpt>
      <trkpt lat="48.70209" lon="1.72632">
        <ele>179</ele>
        <time>2012-08-20T09:28:46.000Z</time>
      </trkpt>
      <trkpt lat="48.70206" lon="1.72652">
        <ele>178.60000610352</ele>
        <time>2012-08-20T09:28:53.000Z</time>
      </trkpt>
      <trkpt lat="48.70201" lon="1.72664">
        <ele>178.39999389648</ele>
        <time>2012-08-20T09:28:59.000Z</time>
      </trkpt>
      <trkpt lat="48.70198" lon="1.72675">
        <ele>178.39999389648</ele>
        <time>2012-08-20T09:29:04.000Z</time>
      </trkpt>
      <trkpt lat="48.70193" lon="1.72688">
        <ele>178.19999694824</ele>
        <time>2012-08-20T09:29:10.000Z</time>
      </trkpt>
      <trkpt lat="48.70186" lon="1.72706">
        <ele>177.80000305176</ele>
        <time>2012-08-20T09:29:19.000Z</time>
      </trkpt>
      <trkpt lat="48.70178" lon="1.72718">
        <ele>177.60000610352</ele>
        <time>2012-08-20T09:29:25.000Z</time>
      </trkpt>
      <trkpt lat="48.70175" lon="1.72733">
        <ele>176.80000305176</ele>
        <time>2012-08-20T09:29:31.000Z</time>
      </trkpt>
      <trkpt lat="48.70168" lon="1.72746">
        <ele>176.19999694824</ele>
        <time>2012-08-20T09:29:38.000Z</time>
      </trkpt>
      <trkpt lat="48.70161" lon="1.72764">
        <ele>176</ele>
        <time>2012-08-20T09:29:46.000Z</time>
      </trkpt>
      <trkpt lat="48.70159" lon="1.72779">
        <ele>175.80000305176</ele>
        <time>2012-08-20T09:29:53.000Z</time>
      </trkpt>
      <trkpt lat="48.70156" lon="1.72793">
        <ele>175.80000305176</ele>
        <time>2012-08-20T09:29:59.000Z</time>
      </trkpt>
      <trkpt lat="48.70148" lon="1.72808">
        <ele>176</ele>
        <time>2012-08-20T09:30:06.000Z</time>
      </trkpt>
      <trkpt lat="48.70145" lon="1.72817">
        <ele>176</ele>
        <time>2012-08-20T09:30:10.000Z</time>
      </trkpt>
      <trkpt lat="48.70142" lon="1.72827">
        <ele>176.19999694824</ele>
        <time>2012-08-20T09:30:15.000Z</time>
      </trkpt>
      <trkpt lat="48.70135" lon="1.72842">
        <ele>176.60000610352</ele>
        <time>2012-08-20T09:30:23.000Z</time>
      </trkpt>
      <trkpt lat="48.70129" lon="1.72853">
        <ele>176.80000305176</ele>
        <time>2012-08-20T09:30:29.000Z</time>
      </trkpt>
      <trkpt lat="48.70124" lon="1.72866">
        <ele>177</ele>
        <time>2012-08-20T09:30:36.000Z</time>
      </trkpt>
      <trkpt lat="48.70116" lon="1.72887">
        <ele>177.19999694824</ele>
        <time>2012-08-20T09:30:46.000Z</time>
      </trkpt>
      <trkpt lat="48.7011" lon="1.72905">
        <ele>177.19999694824</ele>
        <time>2012-08-20T09:30:55.000Z</time>
      </trkpt>
      <trkpt lat="48.70105" lon="1.72921">
        <ele>177.60000610352</ele>
        <time>2012-08-20T09:31:03.000Z</time>
      </trkpt>
      <trkpt lat="48.70101" lon="1.72943">
        <ele>178.19999694824</ele>
        <time>2012-08-20T09:31:12.000Z</time>
      </trkpt>
      <trkpt lat="48.70096" lon="1.72959">
        <ele>178.80000305176</ele>
        <time>2012-08-20T09:31:20.000Z</time>
      </trkpt>
      <trkpt lat="48.70093" lon="1.72976">
        <ele>179</ele>
        <time>2012-08-20T09:31:27.000Z</time>
      </trkpt>
      <trkpt lat="48.70088" lon="1.72989">
        <ele>179.60000610352</ele>
        <time>2012-08-20T09:31:34.000Z</time>
      </trkpt>
      <trkpt lat="48.70082" lon="1.73007">
        <ele>180.19999694824</ele>
        <time>2012-08-20T09:31:42.000Z</time>
      </trkpt>
      <trkpt lat="48.7008" lon="1.73018">
        <ele>180.80000305176</ele>
        <time>2012-08-20T09:31:48.000Z</time>
      </trkpt>
      <trkpt lat="48.70081" lon="1.73015">
        <ele>180.60000610352</ele>
        <time>2012-08-20T09:31:54.000Z</time>
      </trkpt>
      <trkpt lat="48.70082" lon="1.73015">
        <ele>180.39999389648</ele>
        <time>2012-08-20T09:31:55.000Z</time>
      </trkpt>
      <trkpt lat="48.70094" lon="1.73009">
        <ele>179.60000610352</ele>
        <time>2012-08-20T09:32:04.000Z</time>
      </trkpt>
      <trkpt lat="48.70104" lon="1.7301">
        <ele>179</ele>
        <time>2012-08-20T09:32:10.000Z</time>
      </trkpt>
      <trkpt lat="48.70117" lon="1.73008">
        <ele>178.19999694824</ele>
        <time>2012-08-20T09:32:18.000Z</time>
      </trkpt>
      <trkpt lat="48.70129" lon="1.73007">
        <ele>177.60000610352</ele>
        <time>2012-08-20T09:32:24.000Z</time>
      </trkpt>
      <trkpt lat="48.70142" lon="1.73007">
        <ele>176.80000305176</ele>
        <time>2012-08-20T09:32:32.000Z</time>
      </trkpt>
      <trkpt lat="48.70151" lon="1.73008">
        <ele>176.19999694824</ele>
        <time>2012-08-20T09:32:38.000Z</time>
      </trkpt>
      <trkpt lat="48.70161" lon="1.7301">
        <ele>175.80000305176</ele>
        <time>2012-08-20T09:32:45.000Z</time>
      </trkpt>
      <trkpt lat="48.70176" lon="1.73011">
        <ele>175.60000610352</ele>
        <time>2012-08-20T09:32:54.000Z</time>
      </trkpt>
      <trkpt lat="48.70194" lon="1.73012">
        <ele>176</ele>
        <time>2012-08-20T09:33:06.000Z</time>
      </trkpt>
      <trkpt lat="48.70209" lon="1.73011">
        <ele>176</ele>
        <time>2012-08-20T09:33:15.000Z</time>
      </trkpt>
      <trkpt lat="48.70218" lon="1.73012">
        <ele>176.19999694824</ele>
        <time>2012-08-20T09:33:21.000Z</time>
      </trkpt>
      <trkpt lat="48.70229" lon="1.73014">
        <ele>176.39999389648</ele>
        <time>2012-08-20T09:33:28.000Z</time>
      </trkpt>
      <trkpt lat="48.70245" lon="1.73015">
        <ele>176.60000610352</ele>
        <time>2012-08-20T09:33:38.000Z</time>
      </trkpt>
      <trkpt lat="48.7026" lon="1.73013">
        <ele>176.60000610352</ele>
        <time>2012-08-20T09:33:47.000Z</time>
      </trkpt>
      <trkpt lat="48.70274" lon="1.73013">
        <ele>176.60000610352</ele>
        <time>2012-08-20T09:33:56.000Z</time>
      </trkpt>
      <trkpt lat="48.70289" lon="1.73011">
        <ele>176.60000610352</ele>
        <time>2012-08-20T09:34:05.000Z</time>
      </trkpt>
      <trkpt lat="48.70303" lon="1.73012">
        <ele>176.60000610352</ele>
        <time>2012-08-20T09:34:14.000Z</time>
      </trkpt>
      <trkpt lat="48.70318" lon="1.73013">
        <ele>176.80000305176</ele>
        <time>2012-08-20T09:34:23.000Z</time>
      </trkpt>
      <trkpt lat="48.70332" lon="1.73013">
        <ele>176.80000305176</ele>
        <time>2012-08-20T09:34:31.000Z</time>
      </trkpt>
      <trkpt lat="48.70346" lon="1.73013">
        <ele>177.19999694824</ele>
        <time>2012-08-20T09:34:39.000Z</time>
      </trkpt>
      <trkpt lat="48.70362" lon="1.73015">
        <ele>177.80000305176</ele>
        <time>2012-08-20T09:34:49.000Z</time>
      </trkpt>
      <trkpt lat="48.7037" lon="1.73014">
        <ele>178</ele>
        <time>2012-08-20T09:34:54.000Z</time>
      </trkpt>
      <trkpt lat="48.7038" lon="1.73013">
        <ele>178.39999389648</ele>
        <time>2012-08-20T09:35:01.000Z</time>
      </trkpt>
      <trkpt lat="48.7039" lon="1.73014">
        <ele>178.60000610352</ele>
        <time>2012-08-20T09:35:07.000Z</time>
      </trkpt>
      <trkpt lat="48.70405" lon="1.73013">
        <ele>179</ele>
        <time>2012-08-20T09:35:16.000Z</time>
      </trkpt>
      <trkpt lat="48.70422" lon="1.73015">
        <ele>179.60000610352</ele>
        <time>2012-08-20T09:35:27.000Z</time>
      </trkpt>
      <trkpt lat="48.70438" lon="1.73015">
        <ele>180.19999694824</ele>
        <time>2012-08-20T09:35:37.000Z</time>
      </trkpt>
      <trkpt lat="48.70449" lon="1.73016">
        <ele>180.60000610352</ele>
        <time>2012-08-20T09:35:44.000Z</time>
      </trkpt>
      <trkpt lat="48.70452" lon="1.73016">
        <ele>180.80000305176</ele>
        <time>2012-08-20T09:35:46.000Z</time>
      </trkpt>
      <trkpt lat="48.70464" lon="1.73015">
        <ele>181.19999694824</ele>
        <time>2012-08-20T09:35:53.000Z</time>
      </trkpt>
      <trkpt lat="48.70468" lon="1.73018">
        <ele>181.39999389648</ele>
        <time>2012-08-20T09:35:56.000Z</time>
      </trkpt>
      <trkpt lat="48.70468" lon="1.7303">
        <ele>181.80000305176</ele>
        <time>2012-08-20T09:36:02.000Z</time>
      </trkpt>
      <trkpt lat="48.7047" lon="1.73043">
        <ele>182.19999694824</ele>
        <time>2012-08-20T09:36:09.000Z</time>
      </trkpt>
      <trkpt lat="48.7048" lon="1.73052">
        <ele>182.60000610352</ele>
        <time>2012-08-20T09:36:17.000Z</time>
      </trkpt>
      <trkpt lat="48.70485" lon="1.73059">
        <ele>183</ele>
        <time>2012-08-20T09:36:22.000Z</time>
      </trkpt>
      <trkpt lat="48.70489" lon="1.73062">
        <ele>183.19999694824</ele>
        <time>2012-08-20T09:36:26.000Z</time>
      </trkpt>
      <trkpt lat="48.70497" lon="1.73073">
        <ele>183.60000610352</ele>
        <time>2012-08-20T09:36:34.000Z</time>
      </trkpt>
      <trkpt lat="48.705" lon="1.73078">
        <ele>183.80000305176</ele>
        <time>2012-08-20T09:36:37.000Z</time>
      </trkpt>
      <trkpt lat="48.70504" lon="1.73091">
        <ele>183.80000305176</ele>
        <time>2012-08-20T09:36:44.000Z</time>
      </trkpt>
      <trkpt lat="48.70504" lon="1.73097">
        <ele>183.80000305176</ele>
        <time>2012-08-20T09:36:47.000Z</time>
      </trkpt>
      <trkpt lat="48.70506" lon="1.73102">
        <ele>183.80000305176</ele>
        <time>2012-08-20T09:36:51.000Z</time>
      </trkpt>
      <trkpt lat="48.70506" lon="1.73107">
        <ele>183.80000305176</ele>
        <time>2012-08-20T09:36:54.000Z</time>
      </trkpt>
      <trkpt lat="48.70505" lon="1.7312">
        <ele>184</ele>
        <time>2012-08-20T09:36:59.000Z</time>
      </trkpt>
      <trkpt lat="48.70504" lon="1.73122">
        <ele>184.19999694824</ele>
        <time>2012-08-20T09:37:00.000Z</time>
      </trkpt>
      <trkpt lat="48.70505" lon="1.73142">
        <ele>184.39999389648</ele>
        <time>2012-08-20T09:37:07.000Z</time>
      </trkpt>
      <trkpt lat="48.70505" lon="1.73159">
        <ele>184.39999389648</ele>
        <time>2012-08-20T09:37:13.000Z</time>
      </trkpt>
      <trkpt lat="48.70505" lon="1.73178">
        <ele>184.19999694824</ele>
        <time>2012-08-20T09:37:20.000Z</time>
      </trkpt>
      <trkpt lat="48.70504" lon="1.73208">
        <ele>183.60000610352</ele>
        <time>2012-08-20T09:37:26.000Z</time>
      </trkpt>
      <trkpt lat="48.70502" lon="1.73232">
        <ele>183.19999694824</ele>
        <time>2012-08-20T09:37:32.000Z</time>
      </trkpt>
      <trkpt lat="48.70502" lon="1.73259">
        <ele>182.60000610352</ele>
        <time>2012-08-20T09:37:38.000Z</time>
      </trkpt>
      <trkpt lat="48.70502" lon="1.73282">
        <ele>182.19999694824</ele>
        <time>2012-08-20T09:37:43.000Z</time>
      </trkpt>
      <trkpt lat="48.70501" lon="1.73285">
        <ele>182</ele>
        <time>2012-08-20T09:37:44.000Z</time>
      </trkpt>
      <trkpt lat="48.70505" lon="1.73296">
        <ele>181.60000610352</ele>
        <time>2012-08-20T09:37:49.000Z</time>
      </trkpt>
      <trkpt lat="48.70506" lon="1.73296">
        <ele>181.60000610352</ele>
        <time>2012-08-20T09:37:51.000Z</time>
      </trkpt>
      <trkpt lat="48.70504" lon="1.73305">
        <ele>181.39999389648</ele>
        <time>2012-08-20T09:38:00.000Z</time>
      </trkpt>
      <trkpt lat="48.70503" lon="1.73317">
        <ele>181.19999694824</ele>
        <time>2012-08-20T09:38:05.000Z</time>
      </trkpt>
      <trkpt lat="48.70503" lon="1.73329">
        <ele>181</ele>
        <time>2012-08-20T09:38:11.000Z</time>
      </trkpt>
      <trkpt lat="48.70503" lon="1.73331">
        <ele>181</ele>
        <time>2012-08-20T09:38:12.000Z</time>
      </trkpt>
      <trkpt lat="48.70499" lon="1.73351">
        <ele>181.19999694824</ele>
        <time>2012-08-20T09:38:21.000Z</time>
      </trkpt>
      <trkpt lat="48.70499" lon="1.73363">
        <ele>181.39999389648</ele>
        <time>2012-08-20T09:38:26.000Z</time>
      </trkpt>
      <trkpt lat="48.705" lon="1.73375">
        <ele>181.39999389648</ele>
        <time>2012-08-20T09:38:32.000Z</time>
      </trkpt>
      <trkpt lat="48.70501" lon="1.73383">
        <ele>181.60000610352</ele>
        <time>2012-08-20T09:38:36.000Z</time>
      </trkpt>
      <trkpt lat="48.70502" lon="1.73398">
        <ele>181.80000305176</ele>
        <time>2012-08-20T09:38:43.000Z</time>
      </trkpt>
      <trkpt lat="48.70506" lon="1.7341">
        <ele>181.80000305176</ele>
        <time>2012-08-20T09:38:47.000Z</time>
      </trkpt>
      <trkpt lat="48.70506" lon="1.73431">
        <ele>182</ele>
        <time>2012-08-20T09:38:55.000Z</time>
      </trkpt>
      <trkpt lat="48.70504" lon="1.73449">
        <ele>182</ele>
        <time>2012-08-20T09:39:02.000Z</time>
      </trkpt>
      <trkpt lat="48.70501" lon="1.73467">
        <ele>182</ele>
        <time>2012-08-20T09:39:09.000Z</time>
      </trkpt>
      <trkpt lat="48.70502" lon="1.73471">
        <ele>182</ele>
        <time>2012-08-20T09:39:10.000Z</time>
      </trkpt>
      <trkpt lat="48.70502" lon="1.73498">
        <ele>182</ele>
        <time>2012-08-20T09:39:16.000Z</time>
      </trkpt>
      <trkpt lat="48.70502" lon="1.73517">
        <ele>182</ele>
        <time>2012-08-20T09:39:20.000Z</time>
      </trkpt>
      <trkpt lat="48.70501" lon="1.73541">
        <ele>182</ele>
        <time>2012-08-20T09:39:26.000Z</time>
      </trkpt>
      <trkpt lat="48.70501" lon="1.73568">
        <ele>182</ele>
        <time>2012-08-20T09:39:32.000Z</time>
      </trkpt>
      <trkpt lat="48.70501" lon="1.73591">
        <ele>181.80000305176</ele>
        <time>2012-08-20T09:39:37.000Z</time>
      </trkpt>
      <trkpt lat="48.70502" lon="1.73622">
        <ele>181.39999389648</ele>
        <time>2012-08-20T09:39:43.000Z</time>
      </trkpt>
      <trkpt lat="48.70504" lon="1.73633">
        <ele>181.19999694824</ele>
        <time>2012-08-20T09:39:45.000Z</time>
      </trkpt>
      <trkpt lat="48.70504" lon="1.73669">
        <ele>180.80000305176</ele>
        <time>2012-08-20T09:39:52.000Z</time>
      </trkpt>
      <trkpt lat="48.70506" lon="1.737">
        <ele>180.39999389648</ele>
        <time>2012-08-20T09:39:58.000Z</time>
      </trkpt>
      <trkpt lat="48.70506" lon="1.73715">
        <ele>180.19999694824</ele>
        <time>2012-08-20T09:40:03.000Z</time>
      </trkpt>
      <trkpt lat="48.70505" lon="1.73723">
        <ele>180</ele>
        <time>2012-08-20T09:40:07.000Z</time>
      </trkpt>
      <trkpt lat="48.70508" lon="1.73741">
        <ele>179.80000305176</ele>
        <time>2012-08-20T09:40:15.000Z</time>
      </trkpt>
      <trkpt lat="48.70507" lon="1.73745">
        <ele>179.80000305176</ele>
        <time>2012-08-20T09:40:18.000Z</time>
      </trkpt>
      <trkpt lat="48.70505" lon="1.73766">
        <ele>179.39999389648</ele>
        <time>2012-08-20T09:40:26.000Z</time>
      </trkpt>
      <trkpt lat="48.70506" lon="1.73785">
        <ele>178.80000305176</ele>
        <time>2012-08-20T09:40:31.000Z</time>
      </trkpt>
      <trkpt lat="48.70507" lon="1.73812">
        <ele>178</ele>
        <time>2012-08-20T09:40:36.000Z</time>
      </trkpt>
      <trkpt lat="48.70508" lon="1.73843">
        <ele>177.19999694824</ele>
        <time>2012-08-20T09:40:42.000Z</time>
      </trkpt>
      <trkpt lat="48.70507" lon="1.73864">
        <ele>177</ele>
        <time>2012-08-20T09:40:46.000Z</time>
      </trkpt>
      <trkpt lat="48.70506" lon="1.73883">
        <ele>176.80000305176</ele>
        <time>2012-08-20T09:40:50.000Z</time>
      </trkpt>
      <trkpt lat="48.70505" lon="1.73906">
        <ele>176.60000610352</ele>
        <time>2012-08-20T09:40:55.000Z</time>
      </trkpt>
      <trkpt lat="48.70506" lon="1.73938">
        <ele>176.39999389648</ele>
        <time>2012-08-20T09:41:01.000Z</time>
      </trkpt>
      <trkpt lat="48.70507" lon="1.73965">
        <ele>176.39999389648</ele>
        <time>2012-08-20T09:41:06.000Z</time>
      </trkpt>
      <trkpt lat="48.70507" lon="1.73998">
        <ele>176.60000610352</ele>
        <time>2012-08-20T09:41:13.000Z</time>
      </trkpt>
      <trkpt lat="48.70507" lon="1.74024">
        <ele>176.80000305176</ele>
        <time>2012-08-20T09:41:18.000Z</time>
      </trkpt>
      <trkpt lat="48.70508" lon="1.74052">
        <ele>177</ele>
        <time>2012-08-20T09:41:24.000Z</time>
      </trkpt>
      <trkpt lat="48.70508" lon="1.74081">
        <ele>177.39999389648</ele>
        <time>2012-08-20T09:41:30.000Z</time>
      </trkpt>
      <trkpt lat="48.7051" lon="1.74111">
        <ele>177.19999694824</ele>
        <time>2012-08-20T09:41:36.000Z</time>
      </trkpt>
      <trkpt lat="48.7051" lon="1.74132">
        <ele>177.19999694824</ele>
        <time>2012-08-20T09:41:41.000Z</time>
      </trkpt>
      <trkpt lat="48.70507" lon="1.7416">
        <ele>177.60000610352</ele>
        <time>2012-08-20T09:41:48.000Z</time>
      </trkpt>
      <trkpt lat="48.70505" lon="1.7418">
        <ele>177.60000610352</ele>
        <time>2012-08-20T09:41:52.000Z</time>
      </trkpt>
      <trkpt lat="48.70501" lon="1.74201">
        <ele>178</ele>
        <time>2012-08-20T09:41:57.000Z</time>
      </trkpt>
      <trkpt lat="48.70497" lon="1.74221">
        <ele>178</ele>
        <time>2012-08-20T09:42:02.000Z</time>
      </trkpt>
      <trkpt lat="48.70496" lon="1.74233">
        <ele>178</ele>
        <time>2012-08-20T09:42:06.000Z</time>
      </trkpt>
      <trkpt lat="48.70499" lon="1.74236">
        <ele>178</ele>
        <time>2012-08-20T09:42:11.000Z</time>
      </trkpt>
      <trkpt lat="48.70503" lon="1.74239">
        <ele>177.80000305176</ele>
        <time>2012-08-20T09:42:16.000Z</time>
      </trkpt>
      <trkpt lat="48.70507" lon="1.74241">
        <ele>177.80000305176</ele>
        <time>2012-08-20T09:42:19.000Z</time>
      </trkpt>
      <trkpt lat="48.70518" lon="1.74247">
        <ele>177.39999389648</ele>
        <time>2012-08-20T09:42:27.000Z</time>
      </trkpt>
      <trkpt lat="48.70526" lon="1.74252">
        <ele>177.19999694824</ele>
        <time>2012-08-20T09:42:32.000Z</time>
      </trkpt>
      <trkpt lat="48.70537" lon="1.74256">
        <ele>177</ele>
        <time>2012-08-20T09:42:39.000Z</time>
      </trkpt>
      <trkpt lat="48.70544" lon="1.74262">
        <ele>177</ele>
        <time>2012-08-20T09:42:48.000Z</time>
      </trkpt>
      <trkpt lat="48.70552" lon="1.74268">
        <ele>177.19999694824</ele>
        <time>2012-08-20T09:42:55.000Z</time>
      </trkpt>
      <trkpt lat="48.70558" lon="1.74274">
        <ele>177.39999389648</ele>
        <time>2012-08-20T09:43:00.000Z</time>
      </trkpt>
      <trkpt lat="48.70565" lon="1.74285">
        <ele>178</ele>
        <time>2012-08-20T09:43:07.000Z</time>
      </trkpt>
      <trkpt lat="48.70572" lon="1.74296">
        <ele>178.80000305176</ele>
        <time>2012-08-20T09:43:15.000Z</time>
      </trkpt>
      <trkpt lat="48.70581" lon="1.74308">
        <ele>179.80000305176</ele>
        <time>2012-08-20T09:43:23.000Z</time>
      </trkpt>
      <trkpt lat="48.70586" lon="1.74318">
        <ele>180.60000610352</ele>
        <time>2012-08-20T09:43:29.000Z</time>
      </trkpt>
      <trkpt lat="48.70589" lon="1.74323">
        <ele>181</ele>
        <time>2012-08-20T09:43:33.000Z</time>
      </trkpt>
      <trkpt lat="48.70593" lon="1.74328">
        <ele>181.19999694824</ele>
        <time>2012-08-20T09:43:37.000Z</time>
      </trkpt>
      <trkpt lat="48.706" lon="1.74336">
        <ele>181.39999389648</ele>
        <time>2012-08-20T09:43:43.000Z</time>
      </trkpt>
      <trkpt lat="48.70606" lon="1.74345">
        <ele>181.39999389648</ele>
        <time>2012-08-20T09:43:50.000Z</time>
      </trkpt>
      <trkpt lat="48.70611" lon="1.74353">
        <ele>181.39999389648</ele>
        <time>2012-08-20T09:43:56.000Z</time>
      </trkpt>
      <trkpt lat="48.7062" lon="1.74362">
        <ele>181.39999389648</ele>
        <time>2012-08-20T09:44:03.000Z</time>
      </trkpt>
      <trkpt lat="48.70625" lon="1.74369">
        <ele>181.39999389648</ele>
        <time>2012-08-20T09:44:07.000Z</time>
      </trkpt>
      <trkpt lat="48.7063" lon="1.74373">
        <ele>181.19999694824</ele>
        <time>2012-08-20T09:44:11.000Z</time>
      </trkpt>
      <trkpt lat="48.70637" lon="1.74384">
        <ele>181.19999694824</ele>
        <time>2012-08-20T09:44:18.000Z</time>
      </trkpt>
      <trkpt lat="48.70646" lon="1.74394">
        <ele>181.19999694824</ele>
        <time>2012-08-20T09:44:25.000Z</time>
      </trkpt>
      <trkpt lat="48.70656" lon="1.74403">
        <ele>181</ele>
        <time>2012-08-20T09:44:33.000Z</time>
      </trkpt>
      <trkpt lat="48.70662" lon="1.74409">
        <ele>181</ele>
        <time>2012-08-20T09:44:38.000Z</time>
      </trkpt>
      <trkpt lat="48.70673" lon="1.74419">
        <ele>180.80000305176</ele>
        <time>2012-08-20T09:44:46.000Z</time>
      </trkpt>
      <trkpt lat="48.7068" lon="1.74428">
        <ele>180.39999389648</ele>
        <time>2012-08-20T09:44:52.000Z</time>
      </trkpt>
      <trkpt lat="48.70688" lon="1.74438">
        <ele>180</ele>
        <time>2012-08-20T09:44:59.000Z</time>
      </trkpt>
      <trkpt lat="48.70694" lon="1.74447">
        <ele>179.60000610352</ele>
        <time>2012-08-20T09:45:05.000Z</time>
      </trkpt>
      <trkpt lat="48.70701" lon="1.74458">
        <ele>179.19999694824</ele>
        <time>2012-08-20T09:45:13.000Z</time>
      </trkpt>
      <trkpt lat="48.70701" lon="1.74461">
        <ele>179.19999694824</ele>
        <time>2012-08-20T09:45:16.000Z</time>
      </trkpt>
      <trkpt lat="48.70704" lon="1.74462">
        <ele>179.19999694824</ele>
        <time>2012-08-20T09:45:18.000Z</time>
      </trkpt>
      <trkpt lat="48.70712" lon="1.74462">
        <ele>178.80000305176</ele>
        <time>2012-08-20T09:45:25.000Z</time>
      </trkpt>
      <trkpt lat="48.70718" lon="1.74462">
        <ele>178.60000610352</ele>
        <time>2012-08-20T09:45:30.000Z</time>
      </trkpt>
      <trkpt lat="48.70726" lon="1.74465">
        <ele>178.19999694824</ele>
        <time>2012-08-20T09:45:36.000Z</time>
      </trkpt>
      <trkpt lat="48.70733" lon="1.74471">
        <ele>178</ele>
        <time>2012-08-20T09:45:41.000Z</time>
      </trkpt>
      <trkpt lat="48.70733" lon="1.74472">
        <ele>178</ele>
        <time>2012-08-20T09:45:44.000Z</time>
      </trkpt>
      <trkpt lat="48.70742" lon="1.74479">
        <ele>177.60000610352</ele>
        <time>2012-08-20T09:46:42.000Z</time>
      </trkpt>
      <trkpt lat="48.70747" lon="1.74488">
        <ele>177.19999694824</ele>
        <time>2012-08-20T09:46:46.000Z</time>
      </trkpt>
      <trkpt lat="48.70759" lon="1.74501">
        <ele>176.80000305176</ele>
        <time>2012-08-20T09:46:56.000Z</time>
      </trkpt>
      <trkpt lat="48.70769" lon="1.74513">
        <ele>176.80000305176</ele>
        <time>2012-08-20T09:47:04.000Z</time>
      </trkpt>
      <trkpt lat="48.70777" lon="1.74523">
        <ele>176.60000610352</ele>
        <time>2012-08-20T09:47:11.000Z</time>
      </trkpt>
      <trkpt lat="48.70784" lon="1.74533">
        <ele>176.60000610352</ele>
        <time>2012-08-20T09:47:17.000Z</time>
      </trkpt>
      <trkpt lat="48.70793" lon="1.74542">
        <ele>176.39999389648</ele>
        <time>2012-08-20T09:47:24.000Z</time>
      </trkpt>
      <trkpt lat="48.70804" lon="1.74556">
        <ele>176.39999389648</ele>
        <time>2012-08-20T09:47:33.000Z</time>
      </trkpt>
      <trkpt lat="48.70813" lon="1.74567">
        <ele>176.19999694824</ele>
        <time>2012-08-20T09:47:42.000Z</time>
      </trkpt>
      <trkpt lat="48.70822" lon="1.74579">
        <ele>176.19999694824</ele>
        <time>2012-08-20T09:47:50.000Z</time>
      </trkpt>
      <trkpt lat="48.70823" lon="1.74582">
        <ele>176.19999694824</ele>
        <time>2012-08-20T09:47:52.000Z</time>
      </trkpt>
      <trkpt lat="48.70824" lon="1.74586">
        <ele>176.19999694824</ele>
        <time>2012-08-20T09:47:57.000Z</time>
      </trkpt>
      <trkpt lat="48.70826" lon="1.74592">
        <ele>176.19999694824</ele>
        <time>2012-08-20T09:48:05.000Z</time>
      </trkpt>
      <trkpt lat="48.7083" lon="1.74598">
        <ele>176</ele>
        <time>2012-08-20T09:48:08.000Z</time>
      </trkpt>
      <trkpt lat="48.70842" lon="1.7461">
        <ele>176</ele>
        <time>2012-08-20T09:48:18.000Z</time>
      </trkpt>
      <trkpt lat="48.7085" lon="1.74621">
        <ele>175.80000305176</ele>
        <time>2012-08-20T09:48:25.000Z</time>
      </trkpt>
      <trkpt lat="48.70858" lon="1.74632">
        <ele>175.80000305176</ele>
        <time>2012-08-20T09:48:33.000Z</time>
      </trkpt>
      <trkpt lat="48.7086" lon="1.74634">
        <ele>175.80000305176</ele>
        <time>2012-08-20T09:48:35.000Z</time>
      </trkpt>
      <trkpt lat="48.70864" lon="1.74641">
        <ele>175.80000305176</ele>
        <time>2012-08-20T09:48:40.000Z</time>
      </trkpt>
      <trkpt lat="48.70867" lon="1.74645">
        <ele>175.80000305176</ele>
        <time>2012-08-20T09:48:43.000Z</time>
      </trkpt>
      <trkpt lat="48.70875" lon="1.74653">
        <ele>176</ele>
        <time>2012-08-20T09:48:49.000Z</time>
      </trkpt>
      <trkpt lat="48.70883" lon="1.74664">
        <ele>176</ele>
        <time>2012-08-20T09:48:56.000Z</time>
      </trkpt>
      <trkpt lat="48.70893" lon="1.74676">
        <ele>176.19999694824</ele>
        <time>2012-08-20T09:49:05.000Z</time>
      </trkpt>
      <trkpt lat="48.70902" lon="1.74688">
        <ele>176.60000610352</ele>
        <time>2012-08-20T09:49:13.000Z</time>
      </trkpt>
      <trkpt lat="48.7091" lon="1.747">
        <ele>176.80000305176</ele>
        <time>2012-08-20T09:49:21.000Z</time>
      </trkpt>
      <trkpt lat="48.70917" lon="1.74708">
        <ele>177</ele>
        <time>2012-08-20T09:49:27.000Z</time>
      </trkpt>
      <trkpt lat="48.70919" lon="1.74711">
        <ele>177</ele>
        <time>2012-08-20T09:49:29.000Z</time>
      </trkpt>
      <trkpt lat="48.70926" lon="1.74721">
        <ele>177.39999389648</ele>
        <time>2012-08-20T09:49:36.000Z</time>
      </trkpt>
      <trkpt lat="48.7093" lon="1.74727">
        <ele>177.60000610352</ele>
        <time>2012-08-20T09:49:40.000Z</time>
      </trkpt>
      <trkpt lat="48.70939" lon="1.74739">
        <ele>177.80000305176</ele>
        <time>2012-08-20T09:49:49.000Z</time>
      </trkpt>
      <trkpt lat="48.70947" lon="1.74749">
        <ele>178</ele>
        <time>2012-08-20T09:49:56.000Z</time>
      </trkpt>
      <trkpt lat="48.70954" lon="1.74758">
        <ele>178</ele>
        <time>2012-08-20T09:50:03.000Z</time>
      </trkpt>
      <trkpt lat="48.7096" lon="1.74766">
        <ele>178.19999694824</ele>
        <time>2012-08-20T09:50:09.000Z</time>
      </trkpt>
      <trkpt lat="48.70962" lon="1.74771">
        <ele>178.19999694824</ele>
        <time>2012-08-20T09:50:13.000Z</time>
      </trkpt>
      <trkpt lat="48.70973" lon="1.74784">
        <ele>178.19999694824</ele>
        <time>2012-08-20T09:50:22.000Z</time>
      </trkpt>
      <trkpt lat="48.70984" lon="1.74795">
        <ele>178.39999389648</ele>
        <time>2012-08-20T09:50:30.000Z</time>
      </trkpt>
      <trkpt lat="48.70994" lon="1.74805">
        <ele>178.60000610352</ele>
        <time>2012-08-20T09:50:37.000Z</time>
      </trkpt>
      <trkpt lat="48.71007" lon="1.74819">
        <ele>178.39999389648</ele>
        <time>2012-08-20T09:50:46.000Z</time>
      </trkpt>
      <trkpt lat="48.71013" lon="1.74828">
        <ele>178.19999694824</ele>
        <time>2012-08-20T09:50:52.000Z</time>
      </trkpt>
      <trkpt lat="48.71015" lon="1.7483">
        <ele>178</ele>
        <time>2012-08-20T09:50:53.000Z</time>
      </trkpt>
      <trkpt lat="48.71017" lon="1.74839">
        <ele>178</ele>
        <time>2012-08-20T09:50:58.000Z</time>
      </trkpt>
      <trkpt lat="48.71017" lon="1.74844">
        <ele>178</ele>
        <time>2012-08-20T09:51:00.000Z</time>
      </trkpt>
      <trkpt lat="48.71014" lon="1.74855">
        <ele>178.19999694824</ele>
        <time>2012-08-20T09:51:05.000Z</time>
      </trkpt>
      <trkpt lat="48.71013" lon="1.74857">
        <ele>178.39999389648</ele>
        <time>2012-08-20T09:51:06.000Z</time>
      </trkpt>
      <trkpt lat="48.7101" lon="1.7486">
        <ele>178.39999389648</ele>
        <time>2012-08-20T09:51:08.000Z</time>
      </trkpt>
      <trkpt lat="48.71001" lon="1.74873">
        <ele>179</ele>
        <time>2012-08-20T09:51:15.000Z</time>
      </trkpt>
      <trkpt lat="48.70998" lon="1.74879">
        <ele>179</ele>
        <time>2012-08-20T09:51:18.000Z</time>
      </trkpt>
      <trkpt lat="48.70989" lon="1.74888">
        <ele>178.60000610352</ele>
        <time>2012-08-20T09:51:25.000Z</time>
      </trkpt>
      <trkpt lat="48.70987" lon="1.74892">
        <ele>178.60000610352</ele>
        <time>2012-08-20T09:51:27.000Z</time>
      </trkpt>
      <trkpt lat="48.7098" lon="1.74899">
        <ele>178.19999694824</ele>
        <time>2012-08-20T09:51:33.000Z</time>
      </trkpt>
      <trkpt lat="48.70972" lon="1.74907">
        <ele>177.80000305176</ele>
        <time>2012-08-20T09:51:39.000Z</time>
      </trkpt>
      <trkpt lat="48.70971" lon="1.74908">
        <ele>177.80000305176</ele>
        <time>2012-08-20T09:51:40.000Z</time>
      </trkpt>
      <trkpt lat="48.70962" lon="1.7492">
        <ele>177.19999694824</ele>
        <time>2012-08-20T09:51:47.000Z</time>
      </trkpt>
      <trkpt lat="48.70956" lon="1.74926">
        <ele>176.80000305176</ele>
        <time>2012-08-20T09:51:51.000Z</time>
      </trkpt>
      <trkpt lat="48.70947" lon="1.74941">
        <ele>176.39999389648</ele>
        <time>2012-08-20T09:51:59.000Z</time>
      </trkpt>
      <trkpt lat="48.70944" lon="1.74949">
        <ele>176.19999694824</ele>
        <time>2012-08-20T09:52:04.000Z</time>
      </trkpt>
      <trkpt lat="48.70943" lon="1.74951">
        <ele>176.19999694824</ele>
        <time>2012-08-20T09:52:06.000Z</time>
      </trkpt>
      <trkpt lat="48.7094" lon="1.74959">
        <ele>176</ele>
        <time>2012-08-20T09:52:11.000Z</time>
      </trkpt>
      <trkpt lat="48.7093" lon="1.74971">
        <ele>175.60000610352</ele>
        <time>2012-08-20T09:52:19.000Z</time>
      </trkpt>
      <trkpt lat="48.70929" lon="1.74973">
        <ele>175.39999389648</ele>
        <time>2012-08-20T09:52:20.000Z</time>
      </trkpt>
      <trkpt lat="48.70922" lon="1.74983">
        <ele>175.19999694824</ele>
        <time>2012-08-20T09:52:27.000Z</time>
      </trkpt>
      <trkpt lat="48.70921" lon="1.74986">
        <ele>175.19999694824</ele>
        <time>2012-08-20T09:52:29.000Z</time>
      </trkpt>
      <trkpt lat="48.70918" lon="1.74994">
        <ele>175</ele>
        <time>2012-08-20T09:52:34.000Z</time>
      </trkpt>
      <trkpt lat="48.70914" lon="1.75005">
        <ele>175</ele>
        <time>2012-08-20T09:52:40.000Z</time>
      </trkpt>
      <trkpt lat="48.70909" lon="1.75016">
        <ele>174.80000305176</ele>
        <time>2012-08-20T09:52:46.000Z</time>
      </trkpt>
      <trkpt lat="48.70904" lon="1.75031">
        <ele>174.60000610352</ele>
        <time>2012-08-20T09:52:54.000Z</time>
      </trkpt>
      <trkpt lat="48.70898" lon="1.75039">
        <ele>174.60000610352</ele>
        <time>2012-08-20T09:52:59.000Z</time>
      </trkpt>
      <trkpt lat="48.70897" lon="1.7504">
        <ele>174.60000610352</ele>
        <time>2012-08-20T09:53:00.000Z</time>
      </trkpt>
      <trkpt lat="48.70891" lon="1.75049">
        <ele>174.39999389648</ele>
        <time>2012-08-20T09:53:05.000Z</time>
      </trkpt>
      <trkpt lat="48.70886" lon="1.75058">
        <ele>174.39999389648</ele>
        <time>2012-08-20T09:53:10.000Z</time>
      </trkpt>
      <trkpt lat="48.70886" lon="1.7506">
        <ele>174.19999694824</ele>
        <time>2012-08-20T09:53:11.000Z</time>
      </trkpt>
      <trkpt lat="48.70883" lon="1.75063">
        <ele>174.19999694824</ele>
        <time>2012-08-20T09:53:13.000Z</time>
      </trkpt>
      <trkpt lat="48.70879" lon="1.75074">
        <ele>174.19999694824</ele>
        <time>2012-08-20T09:53:19.000Z</time>
      </trkpt>
      <trkpt lat="48.70874" lon="1.75088">
        <ele>174</ele>
        <time>2012-08-20T09:53:26.000Z</time>
      </trkpt>
      <trkpt lat="48.70871" lon="1.75098">
        <ele>174</ele>
        <time>2012-08-20T09:53:31.000Z</time>
      </trkpt>
      <trkpt lat="48.70867" lon="1.75105">
        <ele>174.19999694824</ele>
        <time>2012-08-20T09:53:35.000Z</time>
      </trkpt>
      <trkpt lat="48.70864" lon="1.7511">
        <ele>174.19999694824</ele>
        <time>2012-08-20T09:53:39.000Z</time>
      </trkpt>
      <trkpt lat="48.70859" lon="1.7512">
        <ele>174.19999694824</ele>
        <time>2012-08-20T09:53:45.000Z</time>
      </trkpt>
      <trkpt lat="48.70856" lon="1.7513">
        <ele>174.19999694824</ele>
        <time>2012-08-20T09:53:52.000Z</time>
      </trkpt>
      <trkpt lat="48.70854" lon="1.75137">
        <ele>174.19999694824</ele>
        <time>2012-08-20T09:53:55.000Z</time>
      </trkpt>
      <trkpt lat="48.7085" lon="1.75143">
        <ele>174.19999694824</ele>
        <time>2012-08-20T09:53:59.000Z</time>
      </trkpt>
      <trkpt lat="48.70846" lon="1.75153">
        <ele>174.19999694824</ele>
        <time>2012-08-20T09:54:04.000Z</time>
      </trkpt>
      <trkpt lat="48.70845" lon="1.75157">
        <ele>174.19999694824</ele>
        <time>2012-08-20T09:54:06.000Z</time>
      </trkpt>
      <trkpt lat="48.70838" lon="1.75175">
        <ele>174</ele>
        <time>2012-08-20T09:54:15.000Z</time>
      </trkpt>
      <trkpt lat="48.70831" lon="1.75189">
        <ele>174</ele>
        <time>2012-08-20T09:54:22.000Z</time>
      </trkpt>
      <trkpt lat="48.70828" lon="1.75195">
        <ele>174</ele>
        <time>2012-08-20T09:54:26.000Z</time>
      </trkpt>
      <trkpt lat="48.70825" lon="1.75204">
        <ele>173.80000305176</ele>
        <time>2012-08-20T09:54:31.000Z</time>
      </trkpt>
      <trkpt lat="48.70825" lon="1.75209">
        <ele>173.80000305176</ele>
        <time>2012-08-20T09:54:33.000Z</time>
      </trkpt>
      <trkpt lat="48.70822" lon="1.75222">
        <ele>173.80000305176</ele>
        <time>2012-08-20T09:54:40.000Z</time>
      </trkpt>
      <trkpt lat="48.70819" lon="1.75231">
        <ele>173.80000305176</ele>
        <time>2012-08-20T09:54:45.000Z</time>
      </trkpt>
      <trkpt lat="48.70814" lon="1.75238">
        <ele>173.80000305176</ele>
        <time>2012-08-20T09:54:50.000Z</time>
      </trkpt>
      <trkpt lat="48.70808" lon="1.7524">
        <ele>173.80000305176</ele>
        <time>2012-08-20T09:54:53.000Z</time>
      </trkpt>
      <trkpt lat="48.70803" lon="1.75253">
        <ele>173.60000610352</ele>
        <time>2012-08-20T09:55:00.000Z</time>
      </trkpt>
      <trkpt lat="48.70797" lon="1.75266">
        <ele>173.60000610352</ele>
        <time>2012-08-20T09:55:07.000Z</time>
      </trkpt>
      <trkpt lat="48.70796" lon="1.75268">
        <ele>173.60000610352</ele>
        <time>2012-08-20T09:55:08.000Z</time>
      </trkpt>
      <trkpt lat="48.70793" lon="1.75272">
        <ele>173.60000610352</ele>
        <time>2012-08-20T09:55:11.000Z</time>
      </trkpt>
      <trkpt lat="48.70793" lon="1.75272">
        <ele>173.60000610352</ele>
        <time>2012-08-20T09:55:14.000Z</time>
      </trkpt>
      <trkpt lat="48.7079" lon="1.75278">
        <ele>173.39999389648</ele>
        <time>2012-08-20T09:55:23.000Z</time>
      </trkpt>
      <trkpt lat="48.70786" lon="1.75291">
        <ele>173.39999389648</ele>
        <time>2012-08-20T09:55:29.000Z</time>
      </trkpt>
      <trkpt lat="48.70783" lon="1.75303">
        <ele>173.39999389648</ele>
        <time>2012-08-20T09:55:35.000Z</time>
      </trkpt>
      <trkpt lat="48.70781" lon="1.75314">
        <ele>173.39999389648</ele>
        <time>2012-08-20T09:55:41.000Z</time>
      </trkpt>
      <trkpt lat="48.70775" lon="1.75327">
        <ele>173.19999694824</ele>
        <time>2012-08-20T09:55:48.000Z</time>
      </trkpt>
      <trkpt lat="48.70769" lon="1.7534">
        <ele>173.19999694824</ele>
        <time>2012-08-20T09:55:56.000Z</time>
      </trkpt>
      <trkpt lat="48.70764" lon="1.75351">
        <ele>173</ele>
        <time>2012-08-20T09:56:02.000Z</time>
      </trkpt>
      <trkpt lat="48.70759" lon="1.75364">
        <ele>172.80000305176</ele>
        <time>2012-08-20T09:56:09.000Z</time>
      </trkpt>
      <trkpt lat="48.70757" lon="1.75368">
        <ele>172.60000610352</ele>
        <time>2012-08-20T09:56:12.000Z</time>
      </trkpt>
      <trkpt lat="48.70751" lon="1.75381">
        <ele>172.39999389648</ele>
        <time>2012-08-20T09:56:20.000Z</time>
      </trkpt>
      <trkpt lat="48.7075" lon="1.75383">
        <ele>172.39999389648</ele>
        <time>2012-08-20T09:56:21.000Z</time>
      </trkpt>
      <trkpt lat="48.70748" lon="1.75383">
        <ele>172.39999389648</ele>
        <time>2012-08-20T09:56:26.000Z</time>
      </trkpt>
      <trkpt lat="48.70744" lon="1.75386">
        <ele>172.19999694824</ele>
        <time>2012-08-20T09:58:41.000Z</time>
      </trkpt>
      <trkpt lat="48.70741" lon="1.75394">
        <ele>172.19999694824</ele>
        <time>2012-08-20T09:58:46.000Z</time>
      </trkpt>
      <trkpt lat="48.70739" lon="1.75398">
        <ele>172</ele>
        <time>2012-08-20T09:58:49.000Z</time>
      </trkpt>
      <trkpt lat="48.70737" lon="1.75406">
        <ele>172</ele>
        <time>2012-08-20T09:58:55.000Z</time>
      </trkpt>
      <trkpt lat="48.70737" lon="1.75409">
        <ele>172</ele>
        <time>2012-08-20T09:59:00.000Z</time>
      </trkpt>
      <trkpt lat="48.7073" lon="1.7542">
        <ele>171.80000305176</ele>
        <time>2012-08-20T09:59:16.000Z</time>
      </trkpt>
      <trkpt lat="48.70726" lon="1.7543">
        <ele>171.60000610352</ele>
        <time>2012-08-20T09:59:21.000Z</time>
      </trkpt>
      <trkpt lat="48.70726" lon="1.75438">
        <ele>171.60000610352</ele>
        <time>2012-08-20T09:59:24.000Z</time>
      </trkpt>
      <trkpt lat="48.70724" lon="1.75445">
        <ele>171.60000610352</ele>
        <time>2012-08-20T09:59:29.000Z</time>
      </trkpt>
      <trkpt lat="48.70722" lon="1.75448">
        <ele>171.60000610352</ele>
        <time>2012-08-20T09:59:31.000Z</time>
      </trkpt>
      <trkpt lat="48.70719" lon="1.75454">
        <ele>171.60000610352</ele>
        <time>2012-08-20T09:59:36.000Z</time>
      </trkpt>
      <trkpt lat="48.70716" lon="1.75459">
        <ele>171.80000305176</ele>
        <time>2012-08-20T09:59:40.000Z</time>
      </trkpt>
      <trkpt lat="48.70712" lon="1.75469">
        <ele>171.80000305176</ele>
        <time>2012-08-20T09:59:47.000Z</time>
      </trkpt>
      <trkpt lat="48.70708" lon="1.75475">
        <ele>171.80000305176</ele>
        <time>2012-08-20T09:59:52.000Z</time>
      </trkpt>
      <trkpt lat="48.70703" lon="1.75484">
        <ele>172</ele>
        <time>2012-08-20T09:59:59.000Z</time>
      </trkpt>
      <trkpt lat="48.707" lon="1.75484">
        <ele>172</ele>
        <time>2012-08-20T10:00:05.000Z</time>
      </trkpt>
      <trkpt lat="48.707" lon="1.75484">
        <ele>172</ele>
        <time>2012-08-20T10:00:06.000Z</time>
      </trkpt>
    </trkseg>
  </trk>
</gpx>